[[[{"header":{"parameterUnit":"kt","parameterCategory":2,"dx":1,"dy":1,"la1":29.285339999999998,"la2":30.599998999999997,"lo1":-89.70041500000002,"lo2":-87.6738589999976,"nx":112,"ny":82,"refTime":"2022-10-04T00:00:00:Z","depth":0,"parameterNumber":1,"parameterNumberName":"U-component_of_WINDS"},"data":[11.2762,11.0542,0.0,10.7067,10.4758,0.0,10.1827,0.0,0.0,0.0,0.0,0.0,0.0,0.0,0.0,0.0,0.0,0.0,0.0,0.0,0.0,0.0,0.0,0.0,0.0,0.0,0.0,0.0,0.0,0.0,0.0,0.0,13.1284,12.9983,13.3784,13.5247,13.4032,13.7098,14.0298,14.3496,14.4012,14.5413,14.7558,14.7113,14.6943,14.6943,14.6943,14.6323,14.5327,14.5327,14.5327,14.5527,14.7411,14.7055,14.6068,15.2108,15.3077,15.1521,15.2394,15.2743,15.2212,14.9241,14.6182,14.3354,14.1418,14.1599,14.2884,14.4841,14.8276,15.19,15.3805,15.509,15.5913,15.5913,15.5913,15.5913,15.5913,15.5913,15.5913,15.5913,15.5913,15.5913,15.5913,15.5913,15.5913,15.5913,15.5913,15.5913,15.5913,15.5913,15.5913,15.5913,15.5913,15.5913,15.5913,15.5913,15.5913,15.5913,15.5913,15.5913,15.5913,15.5913,15.5913,15.5913,15.5913,15.5913,15.5913,15.5913,15.5913,15.5913,15.5913,15.565,0.0,0.0,10.5623,10.4175,0.0,0.0,0.0,0.0,0.0,0.0,0.0,0.0,0.0,0.0,0.0,0.0,0.0,0.0,0.0,0.0,0.0,0.0,0.0,0.0,0.0,0.0,0.0,0.0,0.0,0.0,0.0,13.0637,13.2159,13.1297,13.4762,13.6703,13.6867,14.0524,14.3779,14.6517,14.7522,14.8664,14.9917,14.9971,14.9971,14.9917,14.8879,14.8441,14.8386,14.7362,14.7557,14.8633,15.0612,15.0212,14.9105,15.4098,15.4601,15.3205,15.5255,15.5214,15.3881,15.0915,14.8551,14.638,14.3415,14.3882,14.5898,14.789,15.0585,15.3359,15.5404,15.5913,15.5913,15.5913,15.5913,15.5913,15.5913,15.5913,15.5913,15.5913,15.5913,15.5913,15.5913,15.5913,15.5913,15.5913,15.5913,15.5913,15.5913,15.5913,15.5913,15.5913,15.5913,15.5913,15.5913,15.5913,15.5913,15.5913,15.5913,15.5913,15.5913,15.5913,15.5913,15.5913,15.5913,15.5913,15.5913,15.5913,15.5913,15.5913,15.5913,15.5913,0.0,0.0,0.0,10.0737,0.0,0.0,0.0,0.0,9.3844,0.0,0.0,0.0,0.0,0.0,0.0,0.0,0.0,0.0,0.0,0.0,0.0,0.0,0.0,0.0,0.0,0.0,0.0,0.0,0.0,0.0,13.2572,13.2606,13.3875,13.6573,13.6802,13.9517,14.5165,14.5329,14.5315,14.5145,15.1046,15.1528,14.7446,15.3231,15.5913,15.57,15.2846,15.1548,15.1337,14.8414,14.8969,15.1548,15.1548,15.1548,15.1952,15.4841,15.5913,15.5913,15.5913,15.3982,15.11,14.8166,14.7167,14.6549,14.3619,14.6802,15.1416,15.1416,15.3602,15.5913,15.5913,15.5913,15.5913,15.5913,15.5913,15.5913,15.5913,15.5913,15.5913,15.5913,15.5913,15.5913,15.5913,15.5913,15.5913,15.5913,15.5913,15.5913,15.5913,15.5913,15.5913,15.5913,15.5913,15.5913,15.5913,15.5913,15.5913,15.5913,15.5913,15.5913,15.5913,15.5913,15.5913,15.5913,15.5913,15.5913,15.5913,15.5913,15.5913,15.5913,15.5913,15.5913,10.8067,0.0,0.0,0.0,0.0,0.0,0.0,0.0,0.0,0.0,0.0,0.0,0.0,0.0,0.0,0.0,0.0,0.0,0.0,0.0,0.0,0.0,0.0,0.0,0.0,0.0,0.0,0.0,0.0,0.0,13.2634,13.3553,13.4884,13.6573,13.9678,14.2581,14.519,14.8265,15.0365,15.1349,15.4018,15.4623,15.3525,15.514,15.5913,15.5889,15.5016,15.4651,15.4576,15.378,15.3906,15.4651,15.4651,15.4651,15.4791,15.5577,15.5913,15.5913,15.5913,15.5379,15.4526,15.3729,15.1978,15.0051,14.9241,15.0105,15.1416,15.1416,15.3602,15.5913,15.5913,15.5913,15.5913,15.5913,15.5913,15.5913,15.5913,15.5913,15.5913,15.5913,15.5913,15.5913,15.5913,15.5913,15.5913,15.5913,15.5913,15.5913,15.5913,15.5913,15.5913,15.5913,15.5913,15.5913,15.5913,15.5913,15.5913,15.5913,15.5913,15.5913,15.5913,15.5913,15.5913,15.5913,15.5913,15.5913,15.5913,15.5913,15.5913,15.5913,15.5913,15.5913,0.0,0.0,0.0,0.0,0.0,0.0,0.0,0.0,9.2078,0.0,0.0,0.0,0.0,0.0,0.0,0.0,0.0,0.0,0.0,0.0,10.8091,0.0,0.0,0.0,0.0,0.0,0.0,0.0,0.0,13.4017,13.0932,13.3768,13.6128,13.747,14.1707,14.5226,14.7889,15.0983,15.2594,15.2811,15.4936,15.5214,15.4098,15.5289,15.5913,15.5913,15.5913,15.5913,15.5913,15.5913,15.5913,15.5913,15.5913,15.5913,15.5913,15.5913,15.5913,15.5913,15.5913,15.5913,15.5913,15.5913,15.4676,15.3052,15.1847,15.229,15.3282,15.3282,15.4526,15.5913,15.5913,15.5913,15.5913,15.5913,15.5913,15.5913,15.5913,15.5913,15.5913,15.5913,15.5913,15.5913,15.5913,15.5913,15.5913,15.5913,15.5913,15.5913,15.5913,15.5913,15.5913,15.5913,15.5913,15.5913,15.5913,15.5913,15.5913,15.5913,15.5913,15.5913,15.5913,15.5913,15.5913,15.5913,15.5913,15.5913,15.5913,15.5913,15.5913,15.5913,15.5913,15.5913,0.0,0.0,0.0,0.0,9.8181,0.0,0.0,0.0,0.0,0.0,0.0,0.0,0.0,0.0,0.0,0.0,0.0,0.0,10.1303,10.534,11.0284,0.0,0.0,0.0,0.0,12.5511,12.8364,12.5121,13.166,13.3684,12.9016,13.3815,13.7372,13.898,14.3346,14.7686,15.1836,15.3151,15.3131,15.1978,15.4601,15.4476,15.203,15.4716,15.5913,15.5913,15.5913,15.5913,15.5913,15.5913,15.5913,15.5913,15.5913,15.5913,15.5913,15.5913,15.5913,15.5913,15.5913,15.5913,15.5913,15.5913,15.5913,15.5404,15.2769,15.378,15.5913,15.5913,15.5913,15.5913,15.5913,15.5913,15.5913,15.5913,15.5913,15.5913,15.5913,15.5913,15.5913,15.5913,15.5913,15.5913,15.5913,15.5913,15.5913,15.5913,15.5913,15.5913,15.5913,15.5913,15.5913,15.5913,15.5913,15.5913,15.5913,15.5913,15.5913,15.5913,15.5913,15.5913,15.5913,15.5913,15.5913,15.5913,15.5913,15.5913,15.5913,15.5913,15.5913,15.5913,15.5913,15.5913,0.0,0.0,0.0,0.0,0.0,9.7652,0.0,0.0,0.0,0.0,0.0,9.8919,10.0431,10.2641,0.0,10.3595,0.0,0.0,0.0,11.3283,0.0,0.0,0.0,0.0,0.0,12.2678,12.5154,12.7518,13.0137,13.1571,13.1576,13.4915,13.7965,14.0429,14.5801,15.0152,15.3324,15.3587,15.4198,15.5041,15.5601,15.5577,15.5041,15.5626,15.5913,15.5913,15.5913,15.5913,15.5913,15.5913,15.5913,15.5913,15.5913,15.5913,15.5913,15.5913,15.5913,15.5913,15.5913,15.5913,15.5913,15.5913,15.5913,15.5749,15.5255,15.5453,15.5913,15.5913,15.5913,15.5913,15.5913,15.5913,15.5913,15.5913,15.5913,15.5913,15.5913,15.5913,15.5913,15.5913,15.5913,15.5913,15.5913,15.5913,15.5913,15.5913,15.5913,15.5913,15.5913,15.5913,15.5913,15.5913,15.5913,15.5913,15.5913,15.5913,15.5913,15.5913,15.5913,15.5913,15.5913,15.5913,15.5913,15.5913,15.5913,15.5913,15.5913,15.5913,15.5913,15.5913,15.5913,15.5913,0.0,0.0,0.0,10.334,0.0,0.0,0.0,9.7725,9.6302,9.8199,10.0082,10.2083,10.4002,10.6004,10.7725,10.8979,11.0808,11.2986,11.5519,11.8078,11.9998,0.0,0.0,0.0,12.2499,12.3167,12.5192,12.9158,13.0645,13.2029,13.3348,13.6924,14.0209,14.3015,14.8605,15.2338,15.3719,15.4442,15.519,15.5913,15.5913,15.5913,15.5913,15.5913,15.5913,15.5913,15.5913,15.5913,15.5913,15.5913,15.5913,15.5913,15.5913,15.5913,15.5913,15.5913,15.5913,15.5913,15.5913,15.5913,15.5913,15.5913,15.5913,15.5913,15.5913,15.5913,15.5913,15.5913,15.5913,15.5913,15.5913,15.5913,15.5913,15.5913,15.5913,15.5913,15.5913,15.5913,15.5913,15.5913,15.5913,15.5913,15.5913,15.5913,15.5913,15.5913,15.5913,15.5913,15.5913,15.5913,15.5913,15.5913,15.5913,15.5913,15.5913,15.5913,15.5913,15.5913,15.5913,15.5913,15.5913,15.5913,15.5913,15.5913,15.5913,15.5913,15.5913,15.5913,15.5913,15.5913,15.5913,15.5913,0.0,0.0,0.0,0.0,0.0,0.0,10.0179,9.9285,9.8547,10.0582,10.2722,10.5015,10.7899,10.9437,11.1066,11.3341,11.4795,11.6915,12.058,12.1131,12.1596,0.0,0.0,0.0,12.4651,12.4826,12.623,12.9771,13.0958,13.2583,13.4818,13.9281,14.3085,14.5972,15.1026,15.3916,15.4179,15.5321,15.5913,15.5913,15.5913,15.5913,15.5913,15.5913,15.5913,15.5913,15.5913,15.5913,15.5913,15.5913,15.5913,15.5913,15.5913,15.5913,15.5913,15.5913,15.5913,15.5913,15.5913,15.5913,15.5913,15.5913,15.5913,15.5913,15.5913,15.5913,15.5913,15.5913,15.5913,15.5913,15.5913,15.5913,15.5913,15.5913,15.5913,15.5913,15.5913,15.5913,15.5913,15.5913,15.5913,15.5913,15.5913,15.5913,15.5913,15.5913,15.5913,15.5913,15.5913,15.5913,15.5913,15.5913,15.5913,15.5913,15.5913,15.5913,15.5913,15.5913,15.5913,15.5913,15.5913,15.5913,15.5913,15.5913,15.5913,15.5913,15.5913,15.5913,15.5913,15.5913,15.5913,15.5913,0.0,0.0,0.0,0.0,0.0,0.0,10.2649,10.116,10.0664,10.5456,10.662,10.7957,11.1655,11.3399,11.4705,11.6186,11.7497,11.9273,12.2062,12.2439,12.2876,0.0,0.0,0.0,12.599,12.6106,12.6774,12.8434,12.8668,13.0974,13.614,14.1682,14.6063,14.8919,15.2093,15.4376,15.565,15.5847,15.5913,15.5913,15.5913,15.5913,15.5913,15.5913,15.5913,15.5913,15.5913,15.5913,15.5913,15.5913,15.5913,15.5913,15.5913,15.5913,15.5913,15.5913,15.5913,15.5913,15.5913,15.5913,15.5913,15.5913,15.5913,15.5913,15.5913,15.5913,15.5913,15.5913,15.5913,15.5913,15.5913,15.5913,15.5913,15.5913,15.5913,15.5913,15.5913,15.5913,15.5913,15.5913,15.5913,15.5913,15.5913,15.5913,15.5913,15.5913,15.5913,15.5913,15.5913,15.5913,15.5913,15.5913,15.5913,15.5913,15.5913,15.5913,15.5913,15.5913,15.5913,15.5913,15.5913,15.5913,15.5913,15.5913,15.5913,15.5913,15.5913,15.5913,15.5913,15.5913,15.5913,15.5913,0.0,0.0,0.0,0.0,0.0,0.0,10.2639,10.3562,10.47,10.6877,10.9644,11.2204,11.3748,11.5725,11.7613,11.892,12.0754,12.2441,12.3516,12.4302,12.4972,0.0,0.0,0.0,0.0,12.7472,12.7996,12.9305,12.9421,13.1537,13.6381,14.3684,14.9032,15.1925,15.397,15.5321,15.5913,15.5913,15.5913,15.5913,15.5913,15.5913,15.5913,15.5913,15.5913,15.5913,15.5913,15.5913,15.5913,15.5913,15.5913,15.5913,15.5913,15.5913,15.5913,15.5913,15.5913,15.5913,15.5913,15.5913,15.5913,15.5913,15.5913,15.5913,15.5913,15.5913,15.5913,15.5913,15.5913,15.5913,15.5913,15.5913,15.5913,15.5913,15.5913,15.5913,15.5913,15.5913,15.5913,15.5913,15.5913,15.5913,15.5913,15.5913,15.5913,15.5913,15.5913,15.5913,15.5913,15.5913,15.5913,15.5913,15.5913,15.5913,15.5913,15.5913,15.5913,15.5913,15.5913,15.5913,15.5913,15.5913,15.5913,15.5913,15.5913,15.5913,15.5913,15.5913,15.5913,15.5913,15.5913,15.5913,9.8869,0.0,0.0,0.0,0.0,0.0,10.3401,10.5543,10.7691,10.9121,11.232,11.5228,11.6333,11.7993,11.9854,12.1452,12.3255,12.4535,12.4855,12.5728,12.6513,0.0,0.0,0.0,0.0,0.0,0.0,0.0,13.0789,13.2978,13.8116,14.4617,15.0127,15.4213,15.5387,15.5913,15.5913,15.5913,15.5913,15.5913,15.5913,15.5913,15.5913,15.5913,15.5913,15.5913,15.5913,15.5913,15.5913,15.5913,15.5913,15.5913,15.5913,15.5913,15.5913,15.5913,15.5913,15.5913,15.5913,15.5913,15.5913,15.5913,15.5913,15.5913,15.5913,15.5913,15.5913,15.5913,15.5913,15.5913,15.5913,15.5913,15.5913,15.5913,15.5913,15.5913,15.5913,15.5913,15.5913,15.5913,15.5913,15.5913,15.5913,15.5913,15.5913,15.5913,15.5913,15.5913,15.5913,15.5913,15.5913,15.5913,15.5913,15.5913,15.5913,15.5913,15.5913,15.5913,15.5913,15.5913,15.5913,15.5913,15.5913,15.5913,15.5913,15.5913,15.5913,15.5913,15.5913,15.5913,15.5913,15.5913,0.0,0.0,0.0,10.2958,10.4226,10.5706,10.6134,10.676,10.8714,11.3658,11.4763,11.6043,11.9823,12.058,12.1452,12.3895,12.436,12.4884,12.6106,12.6338,12.6804,12.8054,0.0,0.0,0.0,0.0,0.0,0.0,13.2157,13.5221,14.2303,14.4253,14.8431,15.5634,15.5847,15.5913,15.5913,15.5913,15.5913,15.5913,15.5913,15.5913,15.5913,15.5913,15.5913,15.5913,15.5913,15.5913,15.5913,15.5913,15.5913,15.5913,15.5913,15.5913,15.5913,15.5913,15.5913,15.5913,15.5913,15.5913,15.5913,15.5913,15.5913,15.5913,15.5913,15.5913,15.5913,15.5913,15.5913,15.5913,15.5913,15.5913,15.5913,15.5913,15.5913,15.5913,15.5913,15.5913,15.5913,15.5913,15.5913,15.5913,15.5913,15.5913,15.5913,15.5913,15.5913,15.5913,15.5913,15.5913,15.5913,15.5913,15.5913,15.5913,15.5913,15.5913,15.5913,15.5913,15.5913,15.5913,15.5913,15.5913,15.5913,15.5913,15.5913,15.5913,15.5913,15.5913,15.5913,15.5913,15.5913,15.5913,9.7567,9.966,10.1742,10.1495,10.3196,10.53,10.663,10.9084,11.1771,11.4356,11.6973,11.9125,12.0463,12.2034,12.343,12.4244,12.5873,12.7152,12.7589,12.8403,12.9072,12.9537,0.0,0.0,0.0,0.0,0.0,0.0,0.0,0.0,14.3895,14.4724,14.8351,15.57,15.5913,15.5913,15.5913,15.5913,15.5913,15.5913,15.5913,15.5913,15.5913,15.5913,15.5913,15.5913,15.5913,15.5913,15.5913,15.5913,15.5913,15.5913,15.5913,15.5913,15.5913,15.5913,15.5913,15.5913,15.5913,15.5913,15.5913,15.5913,15.5913,15.5913,15.5913,15.5913,15.5913,15.5913,15.5913,15.5913,15.5913,15.5913,15.5913,15.5913,15.5913,15.5913,15.5913,15.5913,15.5913,15.5913,15.5913,15.5913,15.5913,15.5913,15.5913,15.5913,15.5913,15.5913,15.5913,15.5913,15.5913,15.5913,15.5913,15.5913,15.5913,15.5913,15.5913,15.5913,15.5913,15.5913,15.5913,15.5913,15.5913,15.5913,15.5913,15.5913,15.5913,15.5913,15.5913,15.5913,15.5913,15.5913,9.7504,9.9763,10.1987,10.0951,10.3353,10.6406,10.7681,11.0924,11.4155,11.59,11.866,12.087,12.1305,12.3023,12.4709,12.564,12.7211,12.8461,12.8897,12.9712,13.0265,13.0265,0.0,0.0,0.0,0.0,0.0,0.0,0.0,13.8043,14.5324,14.5692,14.8805,15.5675,15.5913,15.5913,15.5913,15.5913,15.5913,15.5913,15.5913,15.5913,15.5913,15.5913,15.5913,15.5913,15.5913,15.5913,15.5913,15.5913,15.5913,15.5913,15.5913,15.5913,15.5913,15.5913,15.5913,15.5913,15.5913,15.5913,15.5913,15.5913,15.5913,15.5913,15.5913,15.5913,15.5913,15.5913,15.5913,15.5913,15.5913,15.5913,15.5913,15.5913,15.5913,15.5913,15.5913,15.5913,15.5913,15.5913,15.5913,15.5913,15.5913,15.5913,15.5913,15.5913,15.5913,15.5913,15.5913,15.5913,15.5913,15.5913,15.5913,15.5913,15.5913,15.5913,15.5913,15.5913,15.5913,15.5913,15.5913,15.5913,15.5913,15.5913,15.5913,15.5913,15.5913,15.5913,15.5913,15.5913,15.5913,15.5913,9.8953,10.1834,10.4334,10.156,10.4779,10.8806,10.9308,11.2346,11.5752,11.8342,11.994,12.1247,12.2469,12.3691,12.5349,12.7879,12.8374,12.8839,13.0061,13.0265,13.0265,13.0265,0.0,0.0,0.0,0.0,0.0,0.0,13.6141,13.932,14.6571,14.6943,14.9701,15.5675,15.5913,15.5913,15.5913,15.5913,15.5913,15.5913,15.5913,15.5913,15.5913,15.5913,15.5913,15.5913,15.5913,15.5913,15.5913,15.5913,15.5913,15.5913,15.5913,15.5913,15.5913,15.5913,15.5913,15.5913,15.5913,15.5913,15.5913,15.5913,15.5913,15.5913,15.5913,15.5913,15.5913,15.5913,15.5913,15.5913,15.5913,15.5913,15.5913,15.5913,15.5913,15.5913,15.5913,15.5913,15.5913,15.5913,15.5913,15.5913,15.5913,15.5913,15.5913,15.5913,15.5913,15.5913,15.5913,15.5913,15.5913,15.5913,15.5913,15.5913,15.5913,15.5913,15.5913,15.5913,15.5913,15.5913,15.5913,15.5913,15.5913,15.5913,15.5913,15.5913,15.5913,15.5913,15.5913,15.5913,15.5913,15.5913,9.9305,10.2602,10.4778,10.3955,10.6251,10.9261,11.1455,11.4239,11.7058,11.9707,12.1247,12.2527,12.3749,12.4972,12.6425,12.7996,12.913,12.9858,13.0207,13.0265,13.0265,13.0265,0.0,0.0,0.0,0.0,0.0,0.0,13.6898,14.0181,14.6634,14.6943,14.9701,15.5675,15.5913,15.5913,15.5913,15.5913,15.5913,15.5913,15.5913,15.5913,15.5913,15.5913,15.5913,15.5913,15.5913,15.5913,15.5913,15.5913,15.5913,15.5913,15.5913,15.5913,15.5913,15.5913,15.5913,15.5913,15.5913,15.5913,15.5913,15.5913,15.5913,15.5913,15.5913,15.5913,15.5913,15.5913,15.5913,15.5913,15.5913,15.5913,15.5913,15.5913,15.5913,15.5913,15.5913,15.5913,15.5913,15.5913,15.5913,15.5913,15.5913,15.5913,15.5913,15.5913,15.5913,15.5913,15.5913,15.5913,15.5913,15.5913,15.5913,15.5913,15.5913,15.5913,15.5913,15.5913,15.5913,15.5913,15.5913,15.5913,15.5913,15.5913,15.5913,15.5913,15.5913,15.5913,15.5913,15.5913,15.5913,15.5913,9.9157,10.3076,10.5975,10.628,10.8405,11.1169,11.3885,11.6159,11.8253,12.0289,12.1771,12.3167,12.4914,12.5844,12.7007,12.8839,12.977,13.0265,13.0265,13.0265,13.0265,13.0265,0.0,0.0,0.0,0.0,0.0,0.0,13.8704,14.193,14.669,14.8193,15.1074,15.5725,15.5913,15.5913,15.5913,15.5913,15.5913,15.5913,15.5913,15.5913,15.5913,15.5913,15.5913,15.5913,15.5913,15.5913,15.5913,15.5913,15.5913,15.5913,15.5913,15.5913,15.5913,15.5913,15.5913,15.5913,15.5913,15.5913,15.5913,15.5913,15.5913,15.5913,15.5913,15.5913,15.5913,15.5913,15.5913,15.5913,15.5913,15.5913,15.5913,15.5913,15.5913,15.5913,15.5913,15.5913,15.5913,15.5913,15.5913,15.5913,15.5913,15.5913,15.5913,15.5913,15.5913,15.5913,15.5913,15.5913,15.5913,15.5913,15.5913,15.5913,15.5913,15.5913,15.5913,15.5913,15.5913,15.5913,15.5913,15.5913,15.5913,15.5913,15.5913,15.5913,15.5913,15.5913,15.5913,15.5913,15.5913,15.5913,9.8738,10.3316,10.749,10.828,11.0822,11.3719,11.5762,11.7528,11.9156,12.0638,12.1887,12.3342,12.5669,12.6222,12.7181,12.9595,13.0149,13.0265,13.0265,13.0265,13.0265,13.0265,0.0,0.0,0.0,0.0,0.0,0.0,14.072,14.3765,14.6774,14.9809,15.282,15.5774,15.5913,15.5913,15.5913,15.5913,15.5913,15.5913,15.5913,15.5913,15.5913,15.5913,15.5913,15.5913,15.5913,15.5913,15.5913,15.5913,15.5913,15.5913,15.5913,15.5913,15.5913,15.5913,15.5913,15.5913,15.5913,15.5913,15.5913,15.5913,15.5913,15.5913,15.5913,15.5913,15.5913,15.5913,15.5913,15.5913,15.5913,15.5913,15.5913,15.5913,15.5913,15.5913,15.5913,15.5913,15.5913,15.5913,15.5913,15.5913,15.5913,15.5913,15.5913,15.5913,15.5913,15.5913,15.5913,15.5913,15.5913,15.5913,15.5913,15.5913,15.5913,15.5913,15.5913,15.5913,15.5913,15.5913,15.5913,15.5913,15.5913,15.5913,15.5913,15.5913,15.5913,15.5913,15.5913,15.5913,15.5913,15.5913,9.8738,10.3685,10.8306,10.9279,11.247,11.5318,11.5195,11.7034,11.9447,12.1829,12.2469,12.3109,12.4477,12.5611,12.6862,12.8345,12.9537,13.0265,13.0265,13.0265,13.0265,13.0265,0.0,0.0,0.0,0.0,0.0,0.0,0.0,14.3765,14.6774,14.9809,15.282,15.5774,15.5913,15.5913,15.5913,15.5913,15.5913,15.5913,15.5913,15.5913,15.5913,15.5913,15.5913,15.5913,15.5913,15.5913,15.5913,15.5913,15.5913,15.5913,15.5913,15.5913,15.5913,15.5913,15.5913,15.5913,15.5913,15.5913,15.5913,15.5913,15.5913,15.5913,15.5913,15.5913,15.5913,15.5913,15.5913,15.5913,15.5913,15.5913,15.5913,15.5913,15.5913,15.5913,15.5913,15.5913,15.5913,15.5913,15.5913,15.5913,15.5913,15.5913,15.5913,15.5913,15.5913,15.5913,15.5913,15.5913,15.5913,15.5913,15.5913,15.5913,15.5913,15.5913,15.5913,15.5913,15.5913,15.5913,15.5913,15.5913,15.5913,15.5913,15.5913,15.5913,15.5913,15.5913,15.5913,15.5913,15.5913,15.5913,9.8738,10.38,10.8592,10.986,11.4026,11.7661,11.6852,11.8765,12.1455,12.4142,12.3613,12.2993,12.4186,12.5495,12.6745,12.8054,12.9363,13.0265,13.0265,13.0265,13.0801,13.2264,13.344,0.0,0.0,0.0,0.0,0.0,0.0,14.6125,14.916,15.2134,15.4425,15.5889,15.5913,15.5913,15.5913,15.5913,15.5913,15.5913,15.5913,15.5913,15.5913,15.5913,15.5913,15.5913,15.5913,15.5913,15.5913,15.5913,15.5913,15.5913,15.5913,15.5913,15.5913,15.5913,15.5913,15.5913,15.5913,15.5913,15.5913,15.5913,15.5913,15.5913,15.5913,15.5913,15.5913,15.5913,15.5913,15.5913,15.5913,15.5913,15.5913,15.5913,15.5913,15.5913,15.5913,15.5913,15.5913,15.5913,15.5913,15.5913,15.5913,15.5913,15.5913,15.5913,15.5913,15.5913,15.5913,15.5913,15.5913,15.5913,15.5913,15.5913,15.5913,15.5913,15.5913,15.5913,15.5913,15.5913,15.5913,15.5913,15.5913,15.5913,15.5913,15.5913,15.5913,15.5913,15.5913,15.5913,15.5913,15.5913,9.8738,10.38,10.8599,11.0062,11.4422,11.849,11.912,12.1545,12.4139,12.5759,12.4683,12.3768,12.4678,12.5458,12.657,12.8461,12.9368,12.9886,13.0207,13.0265,13.1302,13.415,13.4867,0.0,0.0,0.0,0.0,0.0,0.0,0.0,15.0319,15.3906,15.5913,15.5913,15.5913,15.5913,15.5913,15.5913,15.5913,0.0,15.5913,15.5913,15.5913,15.5913,15.5913,15.5913,15.5913,15.5913,15.5913,15.5913,15.5913,15.5913,15.5913,15.5913,15.5913,15.5913,15.5913,15.5913,15.5913,15.5913,15.5913,15.5913,15.5913,15.5913,15.5913,15.5913,15.5913,15.5913,15.5913,15.5913,15.5913,15.5913,15.5913,15.5913,15.5913,15.5913,15.5913,15.5913,15.5913,15.5913,15.5913,15.5913,15.5913,15.5913,15.5913,15.5913,15.5913,15.5913,15.5913,15.5913,15.5913,15.5913,15.5913,15.5913,15.5913,15.5913,15.5913,15.5913,15.5913,15.5913,15.5913,15.5913,15.5913,15.5913,15.5913,15.5913,15.5913,15.5913,15.5913,15.5913,15.5913,15.5913,9.8738,10.38,10.8599,11.0062,11.2172,11.5374,12.0874,12.4983,12.7017,12.4982,12.5492,12.62,12.632,12.5396,12.5824,12.9606,12.9263,12.8897,13.0061,13.0265,13.1302,13.415,13.6665,0.0,0.0,0.0,0.0,0.0,0.0,0.0,0.0,15.282,15.5913,15.5913,15.5913,15.5913,15.5913,15.5913,15.5913,15.5913,15.5913,15.5913,15.5913,15.5913,15.5913,15.5913,15.5913,15.5913,15.5913,15.5913,15.5913,15.5913,15.5913,15.5913,15.5913,15.5913,15.5913,15.5913,15.5913,15.5913,15.5913,15.5913,15.5913,15.5913,15.5913,15.5913,15.5913,15.5913,15.5913,15.5913,15.5913,15.5913,15.5913,15.5913,15.5913,15.5913,15.5913,15.5913,15.5913,15.5913,15.5913,15.5913,15.5913,15.5913,15.5913,15.5913,15.5913,15.5913,15.5913,15.5913,15.5913,15.5913,15.5913,15.5913,15.5913,15.5913,15.5913,15.5913,15.5913,15.5913,15.5913,15.5913,15.5913,15.5913,15.5913,15.5913,15.5913,15.5913,15.5913,15.5913,15.5913,15.5913,9.8738,10.3159,10.7318,10.8747,11.0579,11.3547,11.9161,12.4307,12.8104,12.9007,12.9101,12.9028,12.9028,12.7836,0.0,12.9005,12.8726,12.9076,13.1308,13.0862,13.2612,13.8952,13.9063,0.0,0.0,0.0,0.0,0.0,0.0,0.0,0.0,15.3627,15.5913,15.5913,15.5913,15.5913,15.5913,15.5913,15.5913,15.5913,15.5913,15.5913,15.5913,15.5913,15.5913,15.5913,15.5913,15.5913,15.5913,15.5913,15.5913,15.5913,15.5913,15.5913,15.5913,15.5913,15.5913,15.5913,15.5913,15.5913,15.5913,15.5913,15.5913,15.5913,15.5913,15.5913,15.5913,15.5913,15.5913,15.5913,15.5913,15.5913,15.5913,15.5913,15.5913,15.5913,15.5913,15.5913,15.5913,15.5913,15.5913,15.5913,15.5913,15.5913,15.5913,15.5913,15.5913,15.5913,15.5913,15.5913,15.5913,15.5913,15.5913,15.5913,15.5913,15.5913,15.5913,15.5913,15.5913,15.5913,15.5913,15.5913,15.5913,15.5913,15.5913,15.5913,15.5913,15.5913,15.5913,15.5913,15.5913,15.5913,9.8738,10.2764,10.648,10.7958,11.0255,11.3417,11.8094,12.2593,12.6799,13.026,13.1078,13.1152,13.1152,13.0056,0.0,12.9606,12.9274,12.9499,13.1105,13.0714,13.3099,14.0853,14.0306,0.0,0.0,0.0,0.0,0.0,0.0,0.0,0.0,15.4274,15.5913,15.5913,15.5913,15.5913,15.5913,15.5913,15.5913,15.5913,15.5913,15.5913,15.5913,15.5913,15.5913,15.5913,15.5913,15.5913,15.5913,15.5913,15.5913,15.5913,15.5913,15.5913,15.5913,15.5913,15.5913,15.5913,15.5913,15.5913,15.5913,15.5913,15.5913,15.5913,15.5913,15.5913,15.5913,15.5913,15.5913,15.5913,15.5913,15.5913,15.5913,15.5913,15.5913,15.5913,15.5913,15.5913,15.5913,15.5913,15.5913,15.5913,15.5913,15.5913,15.5913,15.5913,15.5913,15.5913,15.5913,15.5913,15.5913,15.5913,15.5913,15.5913,15.5913,15.5913,15.5913,15.5913,15.5913,15.5913,15.5913,15.5913,15.5913,15.5913,15.5913,15.5913,15.5913,15.5913,15.5913,15.5913,15.5913,15.5913,9.8738,10.2764,10.648,10.7958,11.1474,11.5417,11.8478,12.0291,12.2593,12.6848,13.024,13.236,13.236,13.1371,0.0,13.2332,13.1353,12.9922,12.8522,12.9451,13.2351,13.8128,14.0091,14.252,0.0,0.0,0.0,0.0,0.0,0.0,0.0,15.4274,15.5913,15.5913,15.5913,15.5913,15.5913,15.5913,15.5913,15.5913,15.5913,15.5913,15.5913,15.5913,15.5913,15.5913,15.5913,15.5913,15.5913,15.5913,15.5913,15.5913,15.5913,15.5913,15.5913,15.5913,15.5913,15.5913,15.5913,15.5913,15.5913,15.5913,15.5913,15.5913,15.5913,15.5913,15.5913,15.5913,15.5913,15.5913,15.5913,15.5913,15.5913,15.5913,15.5913,15.5913,15.5913,15.5913,15.5913,15.5913,15.5913,15.5913,15.5913,15.5913,15.5913,15.5913,15.5913,15.5913,15.5913,15.5913,15.5913,15.5913,15.5913,15.5913,15.5913,15.5913,15.5913,15.5913,15.5913,15.5913,15.5913,15.5913,15.5913,15.5913,15.5913,15.5913,15.5913,15.5913,15.5913,15.5913,15.5913,15.5913,9.8475,10.1252,10.3701,10.62,10.929,11.225,11.4222,11.8055,12.1935,12.4283,12.7881,13.1558,13.46,0.0,13.228,13.3675,13.28,13.2761,13.5262,13.5052,13.7102,14.3711,14.4117,14.5564,0.0,0.0,0.0,0.0,0.0,0.0,0.0,15.4274,15.5913,15.5913,15.5913,15.5913,15.5913,15.5913,15.5913,15.5913,15.5913,15.5913,15.5913,15.5913,15.5913,15.5913,15.5913,15.5913,15.5913,15.5913,15.5913,15.5913,15.5913,15.5913,15.5913,15.5913,15.5913,15.5913,15.5913,15.5913,15.5913,15.5913,15.5913,15.5913,15.5913,15.5913,15.5913,15.5913,15.5913,15.5913,15.5913,15.5913,15.5913,15.5913,15.5913,15.5913,15.5913,15.5913,15.5913,15.5913,15.5913,15.5913,15.5913,15.5913,15.5913,15.5913,15.5913,15.5913,15.5913,15.5913,15.5913,15.5913,15.5913,15.5913,15.5913,15.5913,15.5913,15.5913,15.5913,15.5913,15.5913,15.5913,15.5913,15.5913,15.5913,15.5913,15.5913,15.5913,15.5913,15.5913,15.5913,15.5913,9.8344,10.0594,10.2386,10.5362,10.7466,10.929,11.1281,11.4964,11.8844,12.1982,12.4724,0.0,0.0,13.3926,13.404,13.4431,13.344,13.3321,13.5481,13.541,13.7316,14.3278,14.4217,14.6302,0.0,0.0,0.0,0.0,0.0,0.0,15.3103,15.4891,15.5913,15.5913,15.5913,15.5913,15.5913,15.5913,15.5913,15.5913,15.5913,15.5913,15.5913,15.5913,15.5913,15.5913,15.5913,15.5913,15.5913,15.5913,15.5913,15.5913,15.5913,15.5913,15.5913,15.5913,15.5913,15.5913,15.5913,15.5913,15.5913,15.5913,15.5913,15.5913,15.5913,15.5913,15.5913,15.5913,15.5913,15.5913,15.5913,15.5913,15.5913,15.5913,15.5913,15.5913,15.5913,15.5913,15.5913,15.5913,15.5913,15.5913,15.5913,15.5913,15.5913,15.5913,15.5913,15.5913,15.5913,15.5913,15.5913,15.5913,15.5913,15.5913,15.5913,15.5913,15.5913,15.5913,15.5913,15.5913,15.5913,15.5913,15.5913,15.5913,15.5913,15.5913,15.5913,15.5913,15.5913,15.5913,15.5913,15.5913,9.8212,10.0397,10.2189,10.5098,10.5953,10.6808,10.9488,11.1329,11.4109,11.9568,0.0,0.0,12.8274,13.2963,13.5691,13.4789,13.369,13.2611,13.149,0.0,13.4805,13.887,14.1758,14.5555,15.1053,15.1597,0.0,0.0,0.0,0.0,15.5913,15.5913,15.5913,15.5913,15.5913,15.5913,15.5913,15.5913,15.5913,15.5913,15.5913,15.5913,15.5913,15.5913,15.5913,15.5913,15.5913,15.5913,15.5913,15.5913,15.5913,15.5913,15.5913,15.5913,15.5913,15.5913,15.5913,15.5913,15.5913,15.5913,15.5913,15.5913,15.5913,15.5913,15.5913,15.5913,15.5913,15.5913,15.5913,15.5913,15.5913,15.5913,15.5913,15.5913,15.5913,15.5913,15.5913,15.5913,15.5913,15.5913,15.5913,15.5913,15.5913,15.5913,15.5913,15.5913,15.5913,15.5913,15.5913,15.5913,15.5913,15.5913,15.5913,15.5913,15.5913,15.5913,15.5913,15.5913,15.5913,15.5913,15.5913,15.5913,15.5913,15.5913,15.5913,15.5913,15.5913,15.5913,15.5913,15.5913,15.5913,15.5913,9.6731,9.8951,10.0463,10.2254,10.4441,10.6282,10.7006,10.9965,11.2925,11.4324,11.8186,12.1672,12.3053,12.7703,13.2381,13.5538,13.6705,13.7871,13.9732,14.0242,14.1619,14.4807,14.5817,14.7585,15.1286,15.1597,15.2781,0.0,0.0,0.0,15.5913,15.5913,15.5913,15.5913,15.5913,15.5913,15.5913,15.5913,15.5913,15.5913,15.5913,15.5913,15.5913,15.5913,15.5913,15.5913,15.5913,15.5913,15.5913,15.5913,15.5913,15.5913,15.5913,15.5913,15.5913,15.5913,15.5913,15.5913,15.5913,15.5913,15.5913,15.5913,15.5913,15.5913,15.5913,15.5913,15.5913,15.5913,15.5913,15.5913,15.5913,15.5913,15.5913,15.5913,15.5913,15.5913,15.5913,15.5913,15.5913,15.5913,15.5913,15.5913,15.5913,15.5913,15.5913,15.5913,15.5913,15.5913,15.5913,15.5913,15.5913,15.5913,15.5913,15.5913,15.5913,15.5913,15.5913,15.5913,15.5913,15.5913,15.5913,15.5913,15.5913,15.5913,15.5913,15.5913,15.5913,15.5913,15.5913,15.5913,15.5913,15.5913,9.6994,9.8951,9.9856,10.1334,10.3438,10.5296,10.5953,10.7927,11.0163,11.2136,11.5095,11.8121,12.0817,12.4941,12.9063,13.2832,13.4732,13.667,13.9552,14.0596,14.1854,0.0,0.0,14.8088,15.0413,15.1202,15.2518,0.0,0.0,0.0,15.5913,15.5913,15.5913,15.5913,15.5913,15.5913,15.5913,15.5913,15.5913,15.5913,15.5913,15.5913,15.5913,15.5913,15.5913,15.5913,0.0,15.5913,15.5913,15.5913,15.5913,15.5913,15.5913,15.5913,15.5913,15.5913,15.5913,15.5913,15.5913,15.5913,15.5913,15.5913,15.5913,15.5913,15.5913,15.5913,15.5913,15.5913,15.5913,15.5913,15.5913,15.5913,15.5913,15.5913,15.5913,15.5913,15.5913,15.5913,15.5913,15.5913,15.5913,15.5913,15.5913,15.5913,15.5913,15.5913,15.5913,15.5913,15.5913,15.5913,15.5913,15.5913,15.5913,15.5913,15.5913,15.5913,15.5913,15.5913,15.5913,15.5913,15.5913,15.5913,15.5913,15.5913,15.5913,15.5913,15.5913,15.5913,15.5913,15.5913,15.5913,15.5913,9.7833,9.9527,10.02,10.1662,10.3027,10.4293,10.5559,10.5953,10.7137,11.082,11.207,11.4043,11.9041,12.2659,12.5862,12.8735,13.0976,13.3471,13.666,13.8345,13.9807,14.1255,0.0,14.7496,14.9337,15.0808,15.2255,15.3653,0.0,15.5913,15.5913,15.5913,15.5913,15.5913,15.5913,15.5913,15.5913,15.5913,15.5913,15.5913,15.5913,15.5913,15.5913,15.5913,15.5913,15.5913,0.0,15.5913,15.5913,15.5913,15.5913,15.5913,15.5913,15.5913,15.5913,15.5913,15.5913,15.5913,15.5913,15.5913,15.5913,15.5913,15.5913,15.5913,15.5913,15.5913,15.5913,15.5913,15.5913,15.5913,15.5913,15.5913,15.5913,15.5913,15.5913,15.5913,15.5913,15.5913,15.5913,15.5913,15.5913,15.5913,15.5913,15.5913,15.5913,15.5913,15.5913,15.5913,15.5913,15.5913,15.5913,15.5913,15.5913,15.5913,15.5913,15.5913,15.5913,15.5913,15.5913,15.5913,15.5913,15.5913,15.5913,15.5913,15.5913,15.5913,15.5913,15.5913,15.5913,15.5913,15.5913,15.5913,9.714,9.9492,10.1712,10.3224,10.3816,10.4079,10.4276,10.5279,10.6348,10.694,11.0031,11.2793,11.3714,11.8318,12.2922,12.5796,12.9499,13.3943,13.9292,14.0297,14.1433,14.4007,14.4942,0.0,14.9206,15.0808,15.2255,15.3653,15.5058,15.5913,15.5913,15.5913,15.5913,15.5913,15.5913,15.5913,15.5913,15.5913,15.5913,15.5913,15.5913,15.5913,15.5913,15.5913,15.5913,15.5913,0.0,0.0,15.5913,15.5913,15.5913,15.5913,15.5913,15.5913,15.5913,15.5913,15.5913,15.5913,15.5913,15.5913,15.5913,15.5913,15.5913,15.5913,15.5913,15.5913,15.5913,15.5913,15.5913,15.5913,15.5913,15.5913,15.5913,15.5913,15.5913,15.5913,15.5913,15.5913,15.5913,15.5913,15.5913,15.5913,15.5913,15.5913,15.5913,15.5913,15.5913,15.5913,15.5913,15.5913,15.5913,15.5913,15.5913,15.5913,15.5913,15.5913,15.5913,15.5913,15.5913,15.5913,15.5913,15.5913,15.5913,15.5913,15.5913,15.5913,15.5913,15.5913,15.5913,15.5913,15.5913,15.5913,9.8901,10.1268,10.3109,10.3816,10.4013,10.4013,10.4013,10.449,10.5213,10.5953,10.7746,10.9768,11.2153,11.6016,12.0075,12.3804,12.8689,13.3226,13.6777,13.9276,14.1512,14.3616,14.4514,14.5829,0.0,15.0282,15.1926,15.2559,15.4664,15.5913,15.5913,15.5913,15.5913,15.5913,15.5913,15.5913,15.5913,15.5913,15.5913,15.5913,15.5913,15.5913,15.5913,15.5913,15.5913,0.0,0.0,0.0,15.5913,15.5913,15.5913,15.5913,15.5913,15.5913,15.5913,15.5913,15.5913,15.5913,15.5913,15.5913,15.5913,15.5913,15.5913,15.5913,15.5913,15.5913,15.5913,15.5913,15.5913,15.5913,15.5913,15.5913,15.5913,15.5913,15.5913,15.5913,15.5913,15.5913,15.5913,15.5913,15.5913,15.5913,15.5913,15.5913,15.5913,15.5913,15.5913,15.5913,15.5913,15.5913,15.5913,15.5913,15.5913,15.5913,15.5913,15.5913,15.5913,15.5913,15.5913,15.5913,15.5913,15.5913,15.5913,15.5913,15.5913,15.5913,15.5913,15.5913,15.5913,15.5913,15.5913,15.5913,10.1202,0.0,10.4013,10.4013,10.4013,10.4013,0.0,10.4013,10.4293,10.5411,10.5888,10.7269,11.0886,11.4157,11.7773,12.2226,12.7748,13.2174,13.4081,13.7764,14.0854,14.2652,14.4142,14.5566,14.7036,14.9887,15.1597,15.1597,15.4269,15.5913,15.5913,15.5913,15.5913,15.5913,15.5913,15.5913,15.5913,15.5913,15.5913,15.5913,15.5913,15.5913,15.5913,15.5913,15.5913,0.0,0.0,0.0,15.5913,15.5913,15.5913,15.5913,15.5913,15.5913,15.5913,15.5913,15.5913,15.5913,15.5913,15.5913,15.5913,15.5913,15.5913,15.5913,15.5913,15.5913,15.5913,15.5913,15.5913,15.5913,15.5913,15.5913,15.5913,15.5913,15.5913,15.5913,15.5913,15.5913,15.5913,15.5913,15.5913,15.5913,15.5913,15.5913,15.5913,15.5913,15.5913,15.5913,15.5913,15.5913,15.5913,15.5913,15.5913,15.5913,15.5913,15.5913,15.5913,15.5913,15.5913,15.5913,15.5913,15.5913,15.5913,15.5913,15.5913,15.5913,15.5913,15.5913,15.5913,15.5913,15.5913,15.5913,0.0,10.3898,10.4013,10.4013,10.4013,10.4013,10.4013,10.4013,0.0,10.4145,10.5213,10.6677,10.827,11.2017,11.6308,12.0751,12.6256,13.1036,13.3884,13.6887,13.9802,14.2521,14.4142,14.5566,14.7036,14.9887,15.1597,15.1597,15.4269,15.5913,15.5913,15.5913,15.5913,15.5913,15.5913,15.5913,15.5913,15.5913,15.5913,15.5913,15.5913,15.5913,15.5913,15.5913,15.5913,0.0,0.0,0.0,0.0,15.5913,15.5913,15.5913,15.5913,15.5913,15.5913,15.5913,15.5913,15.5913,15.5913,15.5913,15.5913,15.5913,15.5913,15.5913,15.5913,15.5913,15.5913,15.5913,15.5913,15.5913,15.5913,15.5913,15.5913,15.5913,15.5913,15.5913,15.5913,15.5913,15.5913,15.5913,15.5913,15.5913,15.5913,15.5913,15.5913,15.5913,15.5913,15.5913,15.5913,15.5913,15.5913,15.5913,15.5913,15.5913,15.5913,15.5913,15.5913,15.5913,15.5913,15.5913,15.5913,15.5913,15.5913,15.5913,15.5913,15.5913,15.5913,15.5913,15.5913,15.5913,15.5913,15.5913,10.3832,10.4013,10.4013,10.4013,10.4013,10.4013,10.4013,10.4013,10.4013,10.4013,10.5148,10.6611,10.8007,11.1754,11.6177,12.0554,12.5355,12.9873,13.3753,13.5988,13.8027,14.0,14.2235,14.4603,0.0,14.9074,15.0676,15.1531,15.348,15.4993,15.5847,15.5913,15.5913,15.5913,15.5913,15.5913,15.5913,15.5913,15.5913,15.5913,15.5913,15.5913,15.5913,15.5913,15.5913,0.0,0.0,0.0,0.0,15.5913,15.5913,15.5913,15.5913,15.5913,15.5913,15.5913,15.5913,15.5913,15.5913,15.5913,15.5913,15.5913,15.5913,15.5913,15.5913,15.5913,15.5913,15.5913,15.5913,15.5913,15.5913,15.5913,15.5913,15.5913,15.5913,15.5913,15.5913,15.5913,15.5913,15.5913,15.5913,15.5913,15.5913,15.5913,15.5913,15.5913,15.5913,15.5913,15.5913,15.5913,15.5913,15.5913,15.5913,15.5913,15.5913,15.5913,15.5913,15.5913,15.5913,15.5913,15.5913,15.5913,15.5913,15.5913,15.5913,15.5913,15.5913,15.5913,15.5913,15.5913,15.5913,15.5913,10.4013,10.4013,10.4096,10.4556,10.4687,10.4687,10.4687,10.4687,10.4687,10.4687,10.5493,10.6743,10.8616,11.2083,11.6177,12.0554,12.4895,12.9236,13.3687,13.5528,13.7194,13.9057,14.1381,14.3836,14.6247,0.0,15.0061,15.1531,15.2954,15.4376,15.5847,15.5913,15.5913,15.5913,15.5913,15.5913,15.5913,15.5913,15.5913,15.5913,15.5913,15.5913,15.5913,15.5913,15.5913,0.0,0.0,0.0,0.0,15.5913,15.5913,15.5913,15.5913,15.5913,15.5913,15.5913,15.5913,15.5913,15.5913,15.5913,15.5913,15.5913,15.5913,15.5913,15.5913,15.5913,15.5913,15.5913,15.5913,15.5913,15.5913,15.5913,15.5913,15.5913,15.5913,15.5913,15.5913,15.5913,15.5913,15.5913,15.5913,15.5913,15.5913,15.5913,15.5913,15.5913,15.5913,15.5913,15.5913,15.5913,15.5913,15.5913,15.5913,15.5913,15.5913,15.5913,15.5913,15.5913,15.5913,15.5913,15.5913,15.5913,15.5913,15.5913,15.5913,15.5913,15.5913,15.5913,15.5913,15.5913,15.5913,15.5913,10.4013,10.403,10.4359,10.5756,10.6151,10.6151,10.6151,10.6151,10.6151,10.6151,10.6151,10.7072,10.9882,11.2758,11.6177,12.062,12.4895,12.9236,13.3687,13.5528,13.7522,14.0394,14.1995,14.3442,14.4843,14.7693,15.0061,15.1465,15.2954,0.0,15.5782,15.5847,15.5847,15.5913,15.5913,15.5913,15.5913,15.5913,15.5913,15.5913,15.5913,15.5913,15.5913,15.5913,15.5913,0.0,0.0,0.0,0.0,15.5913,15.5913,15.5913,15.5913,15.5913,15.5913,15.5913,15.5913,15.5913,15.5913,15.5913,15.5913,15.5913,15.5913,15.5913,15.5913,15.5913,15.5913,15.5913,15.5913,15.5913,15.5913,15.5913,15.5913,15.5913,15.5913,15.5913,15.5913,15.5913,15.5913,15.5913,15.5913,15.5913,15.5913,15.5913,15.5913,15.5913,15.5913,15.5913,15.5913,15.5913,15.5913,15.5913,15.5913,15.5913,15.5913,15.5913,15.5913,15.5913,15.5913,15.5913,15.5913,15.5913,15.5913,15.5913,15.5913,15.5913,15.5913,15.5913,15.5913,15.5913,15.5913,15.5913,10.4013,10.4753,10.5625,10.6019,10.6923,10.763,10.763,10.763,10.763,10.763,10.8436,10.9685,11.161,11.4222,11.7623,12.2094,12.5553,12.9236,13.3687,13.5528,13.7106,13.8991,14.0526,14.1929,14.3353,14.526,14.7341,14.9929,15.1442,15.2888,15.4335,15.4376,15.4837,15.5847,15.5913,15.5913,15.5913,15.5913,15.5913,15.5913,15.5913,15.5913,15.5913,15.5913,15.5913,15.5913,15.5913,0.0,0.0,15.5913,15.5913,15.5913,15.5913,15.5913,15.5913,15.5913,15.5913,15.5913,15.5913,15.5913,15.5913,15.5913,15.5913,15.5913,15.5913,15.5913,15.5913,15.5913,15.5913,15.5913,15.5913,15.5913,15.5913,15.5913,15.5913,15.5913,15.5913,15.5913,15.5913,15.5913,15.5913,15.5913,15.5913,15.5913,15.5913,15.5913,15.5913,15.5913,15.5913,15.5913,15.5913,15.5913,15.5913,15.5913,15.5913,15.5913,15.5913,15.5913,15.5913,15.5913,15.5913,15.5913,15.5913,15.5913,15.5913,15.5913,15.5913,15.5913,15.5913,15.5913,15.5913,15.5913,10.4687,10.5476,10.6414,10.7532,10.8501,10.9142,10.9142,10.9142,10.9142,10.9142,11.0259,11.1658,11.3104,11.5801,11.9004,12.2817,12.5862,12.9236,13.3687,13.5528,13.6996,13.84,13.9846,14.1315,14.2718,0.0,14.5961,14.8351,14.9929,15.1137,15.2009,15.2625,15.3546,15.4993,15.5058,15.5321,15.5913,15.5913,15.5913,15.5913,15.5913,15.5913,15.5913,15.5913,15.5913,15.5913,15.5913,0.0,0.0,15.5913,15.5913,15.5913,15.5913,15.5913,15.5913,15.5913,15.5913,15.5913,15.5913,15.5913,15.5913,15.5913,15.5913,15.5913,15.5913,15.5913,15.5913,15.5913,15.5913,15.5913,15.5913,15.5913,15.5913,15.5913,15.5913,15.5913,15.5913,15.5913,15.5913,15.5913,15.5913,15.5913,15.5913,15.5913,15.5913,15.5913,15.5913,15.5913,15.5913,15.5913,15.5913,15.5913,15.5913,15.5913,15.5913,15.5913,15.5913,15.5913,15.5913,15.5913,15.5913,15.5913,15.5913,15.5913,15.5913,15.5913,15.5913,15.5913,15.5913,15.5913,15.5913,15.5913,10.5756,10.6217,10.7006,10.9751,11.054,11.0606,11.0606,11.0606,11.0671,11.0803,11.1855,11.3254,11.4796,11.7426,12.0253,12.3146,12.6125,12.9564,13.3753,13.5681,13.7106,13.8465,13.9715,14.1117,14.2521,14.3945,14.5369,14.6838,14.8417,14.9272,14.9272,15.061,15.2099,15.3522,15.3587,15.4245,15.565,15.5716,15.5782,15.5913,15.5913,15.5913,15.5913,15.5913,15.5913,15.5913,15.5913,0.0,0.0,15.5913,15.5913,15.5913,15.5913,15.5913,15.5913,15.5913,15.5913,15.5913,15.5913,15.5913,15.5913,15.5913,15.5913,15.5913,15.5913,15.5913,15.5913,15.5913,15.5913,15.5913,15.5913,15.5913,15.5913,15.5913,15.5913,15.5913,15.5913,15.5913,15.5913,15.5913,15.5913,15.5913,15.5913,15.5913,15.5913,15.5913,15.5913,15.5913,15.5913,15.5913,15.5913,15.5913,15.5913,15.5913,15.5913,15.5913,15.5913,15.5913,15.5913,15.5913,15.5913,15.5913,15.5913,15.5913,15.5913,15.5913,15.5913,15.5913,15.5847,15.5716,15.5716,15.565,10.5756,10.6923,10.8221,11.0014,11.1263,11.207,11.207,11.207,11.2381,11.3547,11.4007,11.5059,11.7689,11.9615,12.1785,12.4678,12.8492,13.1846,13.4016,13.6514,13.8268,13.8597,13.886,13.9649,14.1052,14.2498,0.0,14.5369,14.6838,14.7628,14.7628,14.9074,15.0587,15.2057,15.2123,15.2757,15.4179,15.4245,15.4771,15.5913,15.5913,15.5913,15.5913,15.5913,15.5913,15.5913,15.5913,0.0,0.0,15.5913,15.5913,15.5913,15.5913,15.5913,15.5913,15.5913,15.5913,15.5913,15.5913,15.5913,15.5913,15.5913,15.5913,15.5913,15.5913,15.5913,15.5913,15.5913,15.5913,15.5913,15.5913,15.5913,15.5913,15.5913,15.5913,15.5913,15.5913,15.5913,15.5913,15.5913,15.5913,15.5913,15.5913,15.5913,15.5913,15.5913,15.5913,15.5913,15.5913,15.5913,15.5913,15.5913,15.5913,15.5913,15.5913,15.5913,15.5913,15.5913,15.5913,15.5913,15.5913,15.5913,15.5913,15.5913,15.5913,15.5913,15.5913,15.5913,15.5321,15.4245,15.4245,15.3612,10.6578,10.7695,10.8796,11.0869,11.2004,11.253,11.253,11.253,11.2925,11.4402,11.5256,11.644,11.876,12.0864,12.3034,12.5204,12.9215,13.2503,13.4081,13.6756,13.8597,13.8597,13.8597,13.9189,14.0591,14.206,14.3507,14.4909,14.6312,14.6838,14.6181,14.7562,14.9074,15.0545,15.061,15.1268,15.2757,15.2757,15.3086,15.3833,15.4532,15.4861,15.4902,15.5584,15.5913,15.5913,15.5913,0.0,15.5913,15.5913,15.5913,15.5913,15.5913,15.5913,15.5913,15.5913,15.5913,15.5913,15.5913,15.5913,15.5913,15.5913,15.5913,15.5913,15.5913,15.5913,15.5913,15.5913,15.5913,15.5913,15.5913,15.5913,15.5913,15.5913,15.5913,15.5913,15.5913,15.5913,15.5913,15.5913,15.5913,15.5913,15.5913,15.5913,15.5913,15.5913,15.5913,15.5913,15.5913,15.5913,15.5913,15.5913,15.5913,15.5913,15.5913,15.5913,15.5913,15.5913,15.5913,15.5913,15.5913,15.5913,15.5584,15.4902,15.4861,15.4532,15.3809,15.3809,15.348,15.2757,15.2757,15.232,10.7169,10.8073,10.8862,11.1544,11.2399,11.253,11.253,11.253,11.3056,11.473,11.598,11.7379,11.922,12.1897,12.4198,12.5401,12.9413,13.2832,13.4147,13.6756,13.8597,0.0,13.8597,13.9057,14.0263,14.1666,0.0,0.0,14.5589,14.5984,14.504,14.6158,14.7496,14.9009,14.9074,14.9798,15.1202,15.1268,15.14,15.1663,15.2823,15.339,15.339,15.4598,15.5124,15.519,15.5387,0.0,15.5519,15.5782,15.5913,15.5913,15.5913,15.5913,15.5913,15.5913,15.5913,15.5913,15.5913,15.5913,15.5847,15.5321,15.5124,15.5124,15.5124,15.5124,15.5124,15.5124,15.5124,15.5124,15.5124,15.5124,15.5124,15.5124,15.5124,15.5124,15.5124,15.5124,15.5124,15.5124,15.5321,15.5519,15.5519,15.5716,15.5913,15.5913,15.5913,15.5913,15.5913,15.5453,15.5124,15.5124,15.5124,15.5124,15.5124,15.5124,15.5124,15.5124,15.5124,15.5124,15.5124,15.5124,15.4598,15.339,15.339,15.2823,15.1597,15.1597,15.1465,15.1268,15.1268,15.1071,10.6003,10.7301,10.8664,11.0259,11.161,11.253,11.253,11.253,11.332,11.5998,11.6721,11.7708,12.0488,12.3363,12.5335,12.5533,13.0333,13.4081,13.4279,13.6756,13.8597,13.8597,13.8597,13.8663,13.886,14.0197,14.1117,14.1315,14.2652,14.3879,14.4974,14.5172,14.5961,14.743,14.743,14.8219,14.9732,14.9798,15.0413,15.1597,15.1794,15.1926,15.1926,15.2123,15.2189,15.2255,15.348,0.0,15.4113,15.5387,15.5913,15.5913,15.5913,15.5913,15.5913,15.5913,15.5913,15.5913,15.5913,15.5913,15.5519,15.2978,15.2189,15.2189,15.2189,15.2189,15.2189,15.2189,15.2189,15.2189,15.2189,15.2189,15.2189,15.2189,15.2189,15.2189,15.2189,15.2189,15.2189,15.2189,15.3217,15.4048,15.4048,15.5058,15.5913,15.5913,15.5913,15.5913,15.5913,15.3702,15.2189,15.2189,15.2189,15.2189,15.2189,15.2189,15.2189,15.2189,15.2189,15.2189,15.2189,15.2189,15.2123,15.1926,15.1926,15.1794,15.1597,15.1597,15.1005,14.9798,14.9798,14.9009,10.5756,10.6611,10.7449,10.8879,11.0259,11.1346,11.1346,11.1938,11.3122,11.5191,11.6261,11.751,11.968,12.2423,12.4658,12.5467,12.9084,13.2417,13.4081,13.612,13.7698,0.0,13.8597,0.0,13.8597,13.9934,14.0723,0.0,14.1337,14.1907,14.2564,14.3353,14.4471,14.5895,14.5984,14.6641,14.8154,14.8154,14.8482,14.9098,15.0018,15.0413,15.0479,15.1268,15.1597,15.1663,0.0,15.2559,15.2625,15.3217,15.3504,15.3504,15.3504,15.3504,15.3504,15.3504,15.3504,15.3504,15.3504,15.3504,15.3307,15.1992,15.1597,15.1597,15.1597,15.1597,15.1597,15.1597,15.1597,15.1597,15.1597,15.1597,15.1597,15.1597,15.1597,15.1597,15.1597,15.1597,15.1597,15.1597,15.2099,15.2559,15.2559,15.311,15.3504,15.3504,15.3504,15.3504,15.3504,15.2386,15.1597,15.1597,15.1597,15.1597,15.1597,15.1597,15.1597,15.1597,15.1597,15.1597,15.1597,15.1597,15.1268,15.0455,15.0413,15.0018,14.9098,14.9098,14.8745,14.8154,14.8154,14.7825,10.5279,10.5888,10.6414,10.7432,10.8813,10.9865,10.9865,11.1,11.2381,11.3876,11.5256,11.6853,11.8825,12.1174,12.3475,12.527,12.7946,0.0,13.3358,13.5286,0.0,13.7939,0.0,13.8597,13.8597,13.9583,0.0,0.0,14.0197,14.0328,14.0723,14.1732,14.2981,14.4405,14.4471,14.4997,14.6049,14.6444,14.6773,14.7167,14.8351,14.8877,14.8943,15.0018,15.0479,15.0545,15.0939,15.1071,15.1071,15.1465,15.1597,15.1597,15.1597,15.1597,15.1597,15.1597,15.1597,15.1531,15.0742,15.0479,15.0479,15.0479,15.0479,15.0479,15.0479,15.0479,15.0479,15.0479,15.0479,15.0479,15.0479,15.0479,15.0479,15.0479,15.0479,15.0479,15.0479,15.0479,15.0479,15.0479,15.0479,15.061,15.1005,15.14,15.1597,15.1597,15.1597,15.1334,15.0545,15.0479,15.0479,15.0479,15.0479,15.0479,15.0479,15.0479,15.0479,15.0479,15.0479,15.0479,15.0479,15.0479,15.0018,14.8877,14.8877,14.8285,14.7167,14.7167,14.7167,14.7167,14.7167,14.7167,10.4079,10.5082,10.6151,10.6217,10.7301,10.8401,10.8401,10.947,11.0934,11.2333,11.381,11.5717,11.8628,0.0,12.233,12.5138,12.7946,13.0378,13.1911,13.4607,13.647,0.0,0.0,0.0,0.0,0.0,0.0,13.8728,0.0,13.932,14.0657,14.0789,14.1512,14.2915,14.2981,14.2981,14.3113,14.4471,14.5786,14.7167,14.7233,14.7233,14.7233,14.7365,14.7365,14.743,14.8943,14.96,14.9666,15.1071,15.1597,15.1597,15.1597,15.1597,15.1597,15.1597,15.1597,15.1202,14.8374,14.7365,14.7365,14.7365,14.7365,14.7365,14.7365,14.7365,14.7365,14.7365,14.7365,14.7365,14.7365,14.7365,14.7365,14.7365,14.7365,14.7365,14.7365,14.7365,14.7365,14.7365,14.7365,14.7825,14.9337,15.0742,15.1597,15.1597,15.1597,15.061,14.7782,14.7365,14.7365,14.7365,14.7365,14.7365,14.7365,14.7365,14.7365,14.7365,14.7365,14.7365,14.7365,14.7365,14.7365,14.7233,14.7233,14.7233,14.7167,14.7167,14.7167,14.7167,14.7167,14.7167,10.375,10.4359,10.4753,10.4753,10.5805,10.6923,10.6923,10.8024,10.947,11.0869,11.2315,11.3959,11.5914,11.8299,12.0535,12.2527,12.5204,12.7946,13.0247,13.2372,13.43,13.6207,13.6909,13.7567,0.0,0.0,0.0,13.8597,13.8597,13.886,13.932,13.932,13.9978,14.1469,14.1534,14.1929,14.285,14.3376,14.3902,14.4428,14.5326,14.5763,14.5786,14.6707,14.7167,14.7167,14.7759,14.7956,14.8022,14.8548,14.8769,14.8769,14.8769,14.8769,14.8769,14.8769,14.8769,14.8374,14.5415,14.4428,14.4428,14.4428,14.4428,14.456,14.5523,14.5763,14.5961,14.6904,14.7167,14.7167,14.7167,14.7167,14.7167,14.7167,14.7167,14.7167,14.7167,14.7167,14.7167,14.7167,14.7167,14.7299,14.7891,14.8417,14.8769,14.8769,14.8769,14.8351,14.7299,14.7167,14.7167,14.7167,14.7167,14.7167,14.7167,14.7167,14.7167,14.7167,14.6312,14.5763,14.5763,14.4889,14.4428,14.4428,14.4428,14.4428,14.4428,14.4428,14.4428,14.4428,14.4428,14.4428,10.2238,10.2501,10.2633,10.3093,10.3898,10.477,10.5296,10.6529,10.7827,10.8764,11.0145,11.1658,11.3613,11.5603,11.7905,12.0817,12.2902,12.5138,12.8011,13.007,13.1977,13.4016,13.5549,0.0,0.0,0.0,0.0,13.7895,13.8334,13.8597,13.8597,13.8597,13.9057,13.9978,13.9978,14.046,14.1381,14.1929,14.2126,14.2192,14.3616,14.4274,14.434,14.526,14.5744,14.5744,14.5744,14.5744,14.5744,14.5744,14.5744,14.5744,14.5744,14.5744,14.5744,14.5744,14.5744,14.5415,14.3507,14.285,14.285,14.285,14.285,14.3047,14.4011,14.4274,14.4471,14.5458,14.5744,14.5744,14.5744,14.5744,14.5786,14.6312,14.6444,14.6575,14.7036,14.7167,14.7167,14.7167,14.7167,14.7167,14.7167,14.7167,14.7167,14.7167,14.7167,14.6773,14.5786,14.5744,14.5744,14.5744,14.5744,14.5744,14.5744,14.5744,14.5744,14.5744,14.48,14.4274,14.4274,14.3376,14.285,14.285,14.285,14.285,14.285,14.285,14.285,14.285,14.285,14.285,9.9395,9.9395,9.9724,10.1202,10.1531,10.1925,10.3504,10.495,10.6019,10.6085,10.7186,10.9076,11.1938,11.2465,11.4456,12.0094,12.1212,12.2264,12.5072,12.788,12.9787,12.9832,13.3621,13.6273,0.0,13.6273,13.6339,13.6404,13.7698,13.8531,13.8531,13.8597,13.8597,13.8597,13.8597,13.8597,13.8597,13.9978,14.0657,14.0723,14.206,14.2784,14.2784,14.2784,14.285,14.285,14.285,14.285,14.285,14.285,14.285,14.285,14.285,14.285,14.285,14.2784,14.2718,14.2718,14.2718,14.2718,14.2718,14.2718,14.2718,14.2784,14.2784,14.2784,14.2784,14.285,14.285,14.285,14.285,14.285,14.3244,14.458,14.4974,14.5303,14.6707,14.7036,14.7036,14.7036,14.7036,14.7036,14.7036,14.7036,14.7036,14.7036,14.7036,14.5984,14.3244,14.285,14.285,14.285,14.285,14.285,14.285,14.285,14.285,14.285,14.285,14.2784,14.2784,14.2784,14.2718,14.2718,14.2718,14.2718,14.2718,14.2718,14.2718,14.2718,14.2718,14.2718,9.6124,9.6452,9.6781,9.8177,9.8587,9.8966,10.0397,10.1844,10.3241,10.4359,10.5739,10.7252,10.9142,11.1132,11.3056,11.4701,11.8515,12.1541,12.2396,12.4941,12.7485,12.9589,13.0904,13.1714,13.1714,13.2635,13.3687,13.4805,13.6251,13.7062,13.7062,13.8005,13.8597,13.8597,13.8597,13.8597,13.8597,13.8991,13.9189,13.9189,13.9583,14.0328,14.1315,14.1315,14.1863,14.285,14.285,14.285,14.285,14.285,14.285,14.285,14.285,14.285,14.2587,14.0526,13.9802,13.9802,13.9802,13.9802,13.9802,13.9802,13.9802,13.9978,14.0986,14.1315,14.1512,14.2587,14.285,14.285,14.285,14.285,14.2981,14.3376,14.3442,14.3573,14.3968,14.4034,14.4034,14.4034,14.4034,14.4034,14.4034,14.4034,14.4034,14.4034,14.4034,14.377,14.2981,14.285,14.285,14.285,14.285,14.285,14.285,14.285,14.285,14.285,14.1929,14.1315,14.1315,14.0328,13.9802,13.9802,13.9802,13.9802,13.9802,13.9802,13.9802,13.9802,13.9802,13.9802,9.1273,9.1682,9.2142,9.4181,9.4707,9.5233,9.7241,9.8819,10.015,10.1071,10.2846,10.4687,10.6183,10.8304,11.0228,0.0,11.503,11.7858,11.8431,12.1587,12.4415,12.6059,12.6256,12.6499,12.7071,12.9524,13.143,13.2351,13.4344,13.5549,13.5549,13.6383,13.7085,13.7698,13.7698,13.8005,13.8597,13.8597,13.8597,13.8597,13.8597,13.9057,13.9846,13.9846,14.0328,14.1052,14.1052,14.1052,14.1052,14.1052,14.1052,14.1052,14.1052,14.1052,14.0854,13.9189,13.8597,13.8597,13.8597,13.8597,13.8597,13.8597,13.8597,13.8728,13.9583,13.9846,13.9978,14.0854,14.1052,14.1052,14.1052,14.1052,14.1249,14.1863,14.1995,14.2126,14.2718,14.285,14.285,14.285,14.285,14.285,14.285,14.285,14.2455,14.1249,14.1052,14.1052,14.1052,14.1052,14.1052,14.1052,14.1052,14.1052,14.1052,14.1052,14.1052,14.1052,14.0328,13.9846,13.9846,13.9057,13.8597,13.8597,13.8005,13.7698,13.7698,13.7085,13.6822,13.6822,13.6822,13.6427,8.5842,8.6184,8.6842,8.9577,9.0235,9.0958,0.0,0.0,9.668,9.668,9.9098,10.1597,10.2978,10.4687,10.6743,10.929,11.1132,11.2793,11.427,11.7971,12.0488,12.0357,12.0488,12.1258,12.3015,12.6611,12.9063,12.9326,13.1977,13.3687,13.3818,13.395,13.4739,13.6141,13.6207,13.6843,13.8137,13.8268,13.8334,13.8334,13.8531,13.8597,13.8597,13.8597,13.8597,13.8597,13.8597,13.8597,13.8597,13.8597,13.8597,13.8597,13.8597,13.84,13.8137,13.8137,13.8137,13.8137,13.8137,13.8137,13.8137,13.8137,13.8202,13.8334,13.8334,13.8465,13.8597,13.8597,13.8597,13.8597,13.8597,13.8597,13.8926,14.0197,14.0526,14.0854,14.2126,14.2389,14.2389,14.2389,14.2389,14.2389,14.2389,14.2389,14.1534,13.8991,13.8597,13.8597,13.8597,13.8597,13.8597,13.8597,13.8597,13.8597,13.8597,13.8597,13.8597,13.8597,13.8597,13.8531,13.8334,13.8334,13.8268,13.8137,13.6843,13.6207,13.6207,13.4739,13.4081,13.4081,13.3884,13.2832,0.0,0.0,0.0,0.0,0.0,0.0,0.0,0.0,9.2208,9.2208,9.543,9.8324,9.8587,10.1794,10.4622,10.5131,10.837,11.1329,11.2793,11.4683,11.5519,11.4372,11.5274,11.7492,12.1324,12.2461,12.3889,12.6256,12.8052,12.9499,13.0641,13.1846,13.3161,13.4673,13.4739,13.487,13.5133,13.6339,13.6843,13.6865,13.8071,13.8597,13.8597,13.8597,13.8597,13.8597,13.8597,13.8597,13.8597,13.8597,13.8597,13.8597,13.8597,13.715,13.5133,13.5133,13.5133,13.5133,13.5133,13.5133,13.5133,13.5133,13.5923,13.6843,13.6843,13.7698,13.8597,13.8597,13.8597,13.8597,13.8597,13.8597,13.8663,13.8926,13.8991,13.9057,13.9386,13.9452,13.9452,13.9452,13.9452,13.9452,13.9452,13.9452,13.9254,13.8663,13.8597,13.8597,13.8597,13.8597,13.8597,13.8597,13.8597,13.8597,13.8597,13.8597,13.8597,13.8597,13.8597,13.8071,13.6931,13.6843,13.6317,13.5199,13.487,13.4739,13.4739,13.3161,13.2437,13.2437,13.1233,12.8669,0.0,0.0,0.0,0.0,0.0,0.0,0.0,0.0,0.0,0.0,0.0,9.4378,0.0,0.0,10.1136,10.2583,10.5279,10.7712,10.911,11.1197,11.2035,11.0606,11.1706,11.3678,11.6674,11.8252,11.9943,12.2179,12.4349,12.5862,12.6611,12.8032,12.9478,13.0991,13.1714,13.2417,13.3161,13.4629,13.5397,13.5397,13.6098,13.6427,13.6427,13.6427,13.6427,13.6427,13.6427,13.6427,13.6427,13.6427,13.6427,13.6427,13.6427,13.5594,13.4344,13.4344,13.4344,13.4344,13.4344,13.4344,13.4344,13.4344,13.4805,13.5397,13.5397,13.5923,13.6427,13.6427,13.6427,13.6427,13.6427,13.6953,13.7501,13.7501,13.8071,13.8597,13.8597,13.8597,13.8597,13.8597,13.8597,13.8597,13.8597,13.8597,13.8597,13.8597,13.8597,13.8597,13.8597,13.8597,13.8597,13.8597,13.8597,13.8597,13.8597,13.8597,13.8597,13.8597,13.7939,13.6909,13.5462,13.4607,13.3884,13.3161,13.1735,13.1011,13.1011,12.8821,12.7683,12.7617,12.3231,12.0798,0.0,0.0,0.0,0.0,0.0,0.0,0.0,0.0,0.0,0.0,0.0,0.0,0.0,0.0,0.0,9.9608,10.1531,10.3438,10.5427,10.7186,10.809,10.7481,10.8699,11.0277,11.1938,11.4222,11.6327,11.8149,12.045,12.2009,12.2554,12.3672,12.5138,12.6868,12.8011,12.9326,13.0728,13.2306,13.3029,13.3029,0.0,0.0,13.3884,13.4213,13.4344,13.4344,13.4344,13.4344,13.4344,13.4344,13.4344,13.4213,13.3095,13.2635,13.2635,13.2635,13.2635,13.2635,13.2635,13.2635,13.2635,13.2635,13.2832,13.3029,13.3029,13.3226,0.0,13.349,13.3687,13.3884,13.3884,13.4936,13.6076,13.6076,13.6909,13.7742,13.7742,13.7742,13.7874,13.8137,13.8202,13.8268,13.8531,13.8137,13.7874,13.8137,13.7939,13.8005,13.8531,13.8334,13.8268,13.8597,13.8597,13.8465,13.8202,13.8465,13.84,13.7808,13.6909,13.5549,13.3555,13.1977,13.0925,13.0333,12.8032,12.6736,12.6473,12.356,12.216,12.1963,11.5579,11.3973,0.0,0.0,0.0,0.0,0.0,0.0,0.0,0.0,0.0,0.0,0.0,0.0,0.0,0.0,0.0,0.0,9.6321,9.9574,10.3635,10.2238,10.1696,10.4211,10.5739,10.7646,11.0408,11.0917,11.2232,11.4993,11.5501,11.6834,11.9464,0.0,0.0,0.0,0.0,12.4856,12.6256,12.7723,12.8446,12.8512,13.1056,13.224,13.2306,13.3687,13.4344,13.4344,13.4344,13.4344,13.4344,13.4344,13.4344,13.3818,12.8623,12.6585,12.6585,12.6585,12.6585,12.6585,12.6585,0.0,0.0,12.6585,12.7394,12.8446,12.8446,12.9347,13.0378,13.0378,13.1254,13.224,13.224,13.3424,13.4542,13.4542,13.4673,13.4805,13.4805,13.4805,13.5199,13.647,13.6667,13.7106,13.84,13.6493,13.5265,13.6536,13.5594,13.5704,13.8268,13.7501,13.7172,13.8465,0.0,0.0,13.6799,13.7874,13.7479,13.4981,13.5812,13.4629,13.051,12.8952,12.6979,12.4441,12.4047,12.3297,12.2001,11.9023,11.7557,11.7518,11.4246,11.3568,0.0,0.0,0.0,0.0,0.0,0.0,0.0,0.0,0.0,0.0,0.0,0.0,0.0,0.0,0.0,0.0,9.2851,9.4312,9.6154,9.6781,9.7833,9.9887,10.2139,10.4359,10.6463,10.7449,10.8764,11.0768,11.1706,11.2758,11.4025,11.5651,11.7097,11.8328,12.0056,12.1239,12.185,12.4067,12.5204,12.527,12.7308,12.8229,12.8295,12.8952,12.9215,0.0,12.9215,12.9215,12.9215,12.9215,12.9215,0.0,0.0,0.0,0.0,0.0,12.3119,12.3119,12.3119,12.3119,12.3119,12.3119,12.3514,12.3974,12.3974,12.4434,12.4875,12.4875,12.5907,12.7025,12.7025,12.8755,13.0465,13.0465,13.1122,13.1956,13.2766,13.2963,13.3424,13.4936,13.5199,0.0,13.3731,13.2548,13.2219,13.3642,13.3358,13.3753,13.5835,13.5594,13.5462,13.6054,13.6098,13.5857,13.5265,13.5791,0.0,0.0,0.0,13.1385,12.8689,12.6453,0.0,0.0,0.0,0.0,0.0,0.0,0.0,0.0,10.6203,10.579,0.0,0.0,0.0,0.0,0.0,0.0,0.0,0.0,0.0,0.0,0.0,0.0,0.0,0.0,0.0,0.0,0.0,8.9657,8.9248,9.1667,9.4166,9.6007,9.8785,10.1071,10.2633,10.3701,10.5082,10.6955,10.8024,10.9027,10.9799,11.1772,11.3135,11.3481,11.5585,11.6918,11.7313,11.9793,12.1023,12.1023,12.2883,12.3823,12.3823,12.4218,12.4415,12.4415,12.4415,12.4415,12.4415,12.4415,12.4415,12.402,12.0357,11.891,11.891,11.891,11.891,11.891,11.891,11.891,11.891,11.891,11.891,11.891,11.891,11.891,11.891,11.891,12.0206,12.1634,12.1634,12.3757,12.5947,12.5947,12.6716,12.788,12.9347,12.961,13.0202,13.2109,13.1517,13.007,12.79,12.7814,12.8537,13.0004,13.0202,0.0,13.2811,13.3095,13.3226,13.3621,13.4081,13.4016,13.3161,13.3424,13.27,13.0399,12.9281,12.7834,12.6013,12.3165,11.9924,11.6308,11.5527,11.4444,0.0,0.0,0.0,0.0,0.0,0.0,0.0,0.0,0.0,0.0,0.0,0.0,0.0,0.0,0.0,0.0,0.0,0.0,0.0,0.0,0.0,0.0,0.0,0.0,8.4802,8.7168,9.0061,9.2953,9.5744,9.8061,9.9527,9.9724,10.0973,10.3882,10.4145,10.5394,10.8204,10.8401,10.9125,11.054,11.0671,11.1329,11.2728,11.4204,11.4975,11.4975,11.7952,11.9351,11.9417,12.0817,12.1409,12.1409,12.1409,12.1409,12.1409,12.1409,12.1409,12.0817,11.5095,11.2793,11.2793,11.2793,11.2793,11.2793,11.2793,11.2793,11.2793,11.2793,11.2793,11.2793,11.2793,11.2793,11.2793,11.2793,11.4898,11.705,11.705,11.922,12.1475,12.1475,12.1541,12.1935,12.3409,12.3718,12.4527,12.7394,12.4566,12.1672,12.1606,12.2686,12.4113,12.5533,12.5796,0.0,12.9589,12.9984,13.051,13.1911,13.3424,13.3161,13.0247,13.1254,13.0267,12.6059,12.573,12.4415,12.1606,11.8628,11.6308,11.4778,11.2022,10.9842,10.8292,0.0,0.0,0.0,0.0,0.0,0.0,0.0,0.0,0.0,0.0,0.0,0.0,0.0,0.0,0.0,0.0,0.0,0.0,0.0,0.0,0.0,0.0,0.0,0.0,0.0,8.6248,8.7234,9.0747,9.3326,9.3837,9.5598,9.7504,9.9442,9.964,10.0479,10.2354,10.3356,10.4605,10.6117,10.7055,10.8238,10.9733,11.1114,11.1837,11.1837,11.3828,11.4766,11.4832,11.5293,11.549,11.549,11.549,11.549,11.549,11.549,11.4372,11.2495,11.0457,10.9733,10.9733,10.9733,10.9733,10.9733,10.9733,10.9733,10.9857,11.0807,11.1104,11.1104,11.1104,11.1882,11.228,11.0252,11.1795,11.3787,11.2813,11.4811,11.6765,11.5696,11.6304,11.7396,11.8738,11.9088,11.9943,12.2922,12.0719,11.8471,11.8559,11.8898,12.0369,12.3909,12.343,12.3826,12.6731,12.709,12.7242,12.7703,12.8229,12.8097,12.7111,12.6565,12.5316,12.2902,12.185,12.0009,11.7031,11.5011,11.3302,11.1903,10.8931,10.7166,10.6538,0.0,0.0,0.0,0.0,0.0,0.0,0.0,0.0,0.0,0.0,0.0,0.0,0.0,0.0,0.0,0.0,0.0,0.0,0.0,0.0,0.0,0.0,0.0,0.0,0.0,0.0,8.2764,8.6261,0.0,8.9394,9.109,9.28,9.4247,9.4839,9.5744,9.716,9.8622,10.0084,10.1597,10.2533,10.3701,10.5115,10.7104,10.8107,10.8173,11.008,11.1,11.1,11.1,11.1,11.1,11.1,11.1,11.0869,10.8764,10.7126,10.5916,10.5916,10.6186,10.645,10.5511,10.5186,10.5038,10.4526,10.4311,10.4499,10.59,10.6322,10.6322,10.6322,10.7442,10.8237,10.632,10.7884,10.9949,10.9044,11.1059,11.3002,11.1989,11.2556,11.3621,11.5024,11.531,11.5575,11.6401,11.597,11.5315,11.4844,11.5597,11.7236,12.0203,12.063,12.1119,12.2485,12.3492,12.3915,12.3375,12.3757,12.4095,12.4105,12.276,12.1346,11.9937,11.7963,11.5735,11.3284,11.0803,10.902,10.8004,10.455,10.2686,0.0,0.0,0.0,0.0,0.0,0.0,0.0,0.0,0.0,0.0,0.0,0.0,0.0,0.0,0.0,0.0,0.0,0.0,0.0,0.0,0.0,0.0,0.0,0.0,0.0,0.0,0.0,7.9489,8.2158,0.0,0.0,0.0,0.0,8.8594,8.9868,9.1301,9.2778,9.4115,9.5481,9.7009,9.7075,9.7783,9.9264,10.2238,10.3685,10.3701,10.6512,10.781,10.781,10.781,10.781,10.781,10.781,10.781,10.7415,10.171,10.0214,10.1442,10.1432,10.2146,10.2937,10.0227,9.9251,9.9021,9.7577,9.7064,9.7204,9.834,9.8723,9.8787,9.8787,9.9881,0.0,0.0,10.3167,10.5433,10.5568,10.7838,11.0023,10.9937,11.0048,11.0551,11.1875,11.2247,11.1356,0.0,11.0299,11.2,11.0456,0.0,11.467,11.4826,11.7306,11.8596,11.7238,11.9566,12.0774,11.9356,12.0414,12.1255,12.1347,11.9908,11.8406,11.7059,11.4197,11.182,11.0266,10.6252,10.3842,10.3374,9.9117,0.0,0.0,0.0,0.0,0.0,0.0,0.0,0.0,0.0,0.0,0.0,0.0,0.0,0.0,0.0,0.0,0.0,0.0,0.0,0.0,0.0,0.0,0.0,0.0,0.0,0.0,6.9419,7.1983,7.3541,7.5931,7.8154,0.0,0.0,0.0,0.0,0.0,0.0,8.9404,8.9115,9.0052,9.2537,9.2602,9.3837,9.6321,9.8177,9.9048,9.9113,10.0923,10.1762,10.1762,10.1762,10.1762,10.1762,10.1762,10.1762,10.1595,9.8902,9.7999,9.8317,9.803,9.8119,9.8171,9.6326,9.5626,9.5558,9.5179,9.5043,9.5094,9.5368,0.0,9.7046,9.7046,0.0,0.0,0.0,0.0,10.0573,10.0709,10.2991,10.4896,10.3844,10.5412,10.716,10.7402,10.8433,10.7628,0.0,10.5634,10.8819,10.7373,0.0,0.0,0.0,0.0,11.6316,11.7073,11.8764,11.9709,11.9343,11.9633,11.9834,11.9877,11.746,11.5314,11.3832,11.3063,11.1007,10.722,10.5959,10.3685,10.0174,0.0,0.0,0.0,0.0,0.0,0.0,0.0,0.0,0.0,0.0,0.0,0.0,0.0,0.0,0.0,0.0,0.0,0.0,0.0,0.0,0.0,0.0,0.0,0.0,0.0,0.0,0.0,6.4029,6.7591,6.9465,7.1454,7.333,0.0,0.0,0.0,0.0,0.0,0.0,0.0,0.0,0.0,8.8435,8.9157,9.0631,9.2934,9.3851,9.463,9.5265,9.6248,9.7029,9.7636,9.7636,9.7636,9.7636,9.7636,9.6506,9.4526,9.3604,9.3903,9.4858,0.0,0.0,0.0,0.0,9.2298,9.2229,9.1538,9.0893,0.0,0.0,0.0,0.0,0.0,0.0,0.0,0.0,0.0,0.0,0.0,0.0,0.0,10.0344,10.2049,10.3748,10.3747,10.327,10.1703,0.0,10.1283,10.4518,10.3063,0.0,0.0,0.0,0.0,0.0,11.4183,11.6149,11.7188,11.655,11.6435,11.6695,11.7402,11.533,11.3614,11.2739,11.1404,10.8925,10.5106,10.2929,10.0215,0.0,0.0,0.0,0.0,0.0,0.0,0.0,0.0,0.0,0.0,0.0,0.0,0.0,0.0,0.0,0.0,0.0,0.0,0.0,0.0,0.0,0.0,0.0,0.0,0.0,0.0,0.0,0.0,0.0,6.3104,6.5643,0.0,0.0,0.0,0.0,0.0,0.0,0.0,0.0,0.0,0.0,0.0,0.0,0.0,8.7004,8.8158,8.9201,9.0428,9.1911,9.2409,9.3344,9.4534,9.4534,9.4446,9.43,9.4065,0.0,8.7425,8.7706,0.0,0.0,0.0,0.0,0.0,0.0,0.0,0.0,0.0,0.0,0.0,0.0,0.0,0.0,0.0,0.0,0.0,0.0,0.0,0.0,0.0,0.0,9.7549,9.7783,9.9017,9.9893,0.0,9.7004,9.4878,9.3388,0.0,0.0,0.0,0.0,0.0,0.0,0.0,0.0,11.0538,11.2968,11.4353,11.3151,11.3034,11.3637,11.4928,11.3608,11.2625,11.2332,10.9659,10.6536,10.3098,9.894,0.0,0.0,0.0,0.0,0.0,0.0,0.0,0.0,0.0,0.0,0.0,0.0,0.0,0.0,0.0,0.0,0.0,0.0,0.0,0.0,0.0,0.0,0.0,0.0,0.0,0.0,0.0,0.0,0.0,0.0,0.0,0.0,0.0,0.0,0.0,0.0,0.0,0.0,0.0,0.0,0.0,0.0,0.0,0.0,0.0,0.0,0.0,0.0,0.0,0.0,8.9861,9.0693,9.0897,9.0897,9.0362,8.9399,8.7895,8.5511,8.295,0.0,0.0,0.0,0.0,0.0,0.0,0.0,0.0,0.0,0.0,0.0,0.0,0.0,0.0,0.0,0.0,0.0,0.0,0.0,0.0,0.0,0.0,0.0,0.0,0.0,9.3986,9.3721,0.0,0.0,0.0,0.0,0.0,0.0,0.0,0.0,0.0,0.0,0.0,0.0,11.012,11.203,11.3513,11.4544,11.4661,11.4756,11.5042,11.3624,11.1674,10.9271,10.8433,10.555,0.0,0.0,0.0,0.0,0.0,0.0,0.0,0.0,0.0,0.0,0.0,0.0,0.0,0.0,0.0,0.0,0.0,0.0,0.0,0.0,0.0,0.0,0.0,0.0,0.0,0.0,0.0,0.0,0.0,0.0,0.0,0.0,0.0,0.0,0.0,0.0,0.0,0.0,0.0,0.0,0.0,0.0,0.0,0.0,0.0,0.0,0.0,0.0,0.0,0.0,0.0,0.0,0.0,0.0,0.0,0.0,0.0,0.0,0.0,7.9794,0.0,0.0,0.0,0.0,0.0,0.0,0.0,0.0,0.0,0.0,0.0,0.0,0.0,0.0,0.0,0.0,0.0,0.0,0.0,0.0,0.0,0.0,0.0,0.0,0.0,0.0,0.0,0.0,0.0,0.0,0.0,0.0,0.0,0.0,0.0,0.0,0.0,0.0,0.0,0.0,10.6518,10.9586,11.1798,11.2571,11.3385,11.3551,11.2729,11.2001,11.0222,10.7144,10.5365,0.0,0.0,0.0,0.0,0.0,0.0,0.0,0.0,0.0,0.0,0.0,0.0,0.0,0.0,0.0,0.0,0.0,0.0,0.0,0.0,0.0,0.0,0.0,0.0,0.0,0.0,0.0,0.0,0.0,0.0,0.0,0.0,0.0,0.0,0.0,0.0,0.0,0.0,0.0,0.0,0.0,0.0,0.0,0.0,0.0,0.0,0.0,0.0,0.0,0.0,0.0,0.0,0.0,0.0,0.0,0.0,0.0,0.0,0.0,7.7088,0.0,0.0,0.0,0.0,0.0,0.0,0.0,0.0,0.0,0.0,0.0,0.0,0.0,0.0,0.0,0.0,0.0,0.0,0.0,0.0,0.0,0.0,0.0,0.0,0.0,0.0,0.0,0.0,0.0,0.0,0.0,0.0,0.0,0.0,0.0,0.0,0.0,0.0,0.0,0.0,0.0,10.2584,10.6447,10.9147,10.9871,11.1024,11.1249,11.0014,10.9586,10.823,10.5377,0.0,0.0,0.0,0.0,0.0,0.0,0.0,0.0,0.0,0.0,0.0,0.0,0.0,0.0,0.0,0.0,0.0,0.0,0.0,0.0,0.0,0.0,0.0,0.0,0.0,0.0,0.0,0.0,0.0,0.0,0.0,0.0,0.0,0.0,0.0,0.0,0.0,0.0,0.0,0.0,0.0,0.0,0.0,0.0,0.0,0.0,0.0,0.0,0.0,0.0,0.0,0.0,0.0,0.0,0.0,0.0,0.0,0.0,0.0,0.0,0.0,0.0,0.0,0.0,0.0,0.0,0.0,0.0,0.0,0.0,0.0,0.0,0.0,0.0,0.0,0.0,0.0,0.0,0.0,0.0,0.0,0.0,0.0,0.0,0.0,0.0,0.0,0.0,0.0,0.0,0.0,0.0,0.0,0.0,0.0,0.0,0.0,0.0,0.0,0.0,0.0,0.0,10.0688,10.2879,10.5162,10.7977,10.8405,10.8477,10.8334,10.6967,10.5448,10.3725,0.0,0.0,0.0,0.0,0.0,0.0,0.0,0.0,0.0,0.0,0.0,0.0,0.0,0.0,0.0,0.0,0.0,0.0,0.0,0.0,0.0,0.0,0.0,0.0,0.0,0.0,0.0,0.0,0.0,0.0,0.0,0.0,0.0,0.0,0.0,0.0,0.0,0.0,0.0,0.0,0.0,0.0,0.0,0.0,0.0,0.0,0.0,0.0,0.0,0.0,0.0,0.0,0.0,0.0,0.0,0.0,0.0,0.0,0.0,0.0,0.0,0.0,0.0,0.0,0.0,0.0,0.0,0.0,0.0,0.0,0.0,0.0,0.0,0.0,0.0,0.0,0.0,0.0,0.0,0.0,0.0,0.0,0.0,0.0,0.0,0.0,0.0,0.0,0.0,0.0,0.0,0.0,0.0,0.0,0.0,0.0,0.0,0.0,0.0,0.0,0.0,0.0,9.6397,9.9821,10.2818,10.503,10.6111,10.6325,10.5387,10.4663,10.2451,9.7947,0.0,0.0,0.0,0.0,0.0,0.0,0.0,0.0,0.0,0.0,0.0,0.0,0.0,0.0,0.0,0.0,0.0,0.0,0.0,0.0,0.0,0.0,0.0,0.0,0.0,0.0,0.0,0.0,0.0,0.0,0.0,0.0,0.0,0.0,0.0,0.0,0.0,0.0,0.0,0.0,0.0,0.0,0.0,0.0,0.0,0.0,0.0,0.0,0.0,0.0,0.0,0.0,0.0,0.0,0.0,0.0,0.0,0.0,0.0,0.0,0.0,0.0,0.0,0.0,0.0,0.0,0.0,0.0,0.0,0.0,0.0,0.0,0.0,0.0,0.0,0.0,0.0,0.0,0.0,0.0,0.0,0.0,0.0,0.0,0.0,0.0,0.0,0.0,0.0,0.0,0.0,0.0,0.0,0.0,0.0,0.0,0.0,0.0,0.0,0.0,0.0,0.0,9.2882,9.653,9.975,10.1799,10.3022,10.3236,10.2156,10.1157,9.866,9.4175,0.0,0.0,0.0,0.0,0.0,0.0,0.0,0.0,0.0,0.0,0.0,0.0,0.0,0.0,0.0,0.0,0.0,0.0,0.0,0.0,0.0,0.0,0.0,0.0,0.0,0.0,0.0,0.0,0.0,0.0,0.0,0.0,0.0,0.0,0.0,0.0,0.0,0.0,0.0,0.0,0.0,0.0,0.0,0.0,0.0,0.0,0.0,0.0,0.0,0.0,0.0,0.0,0.0,0.0,0.0,0.0,0.0,0.0,0.0,0.0,0.0,0.0,0.0,0.0,0.0,0.0,0.0,0.0,0.0,0.0,0.0,0.0,0.0,0.0,0.0,0.0,0.0,0.0,0.0,0.0,0.0,0.0,0.0,0.0,0.0,0.0,0.0,0.0,0.0,0.0,0.0,0.0,0.0,0.0,0.0,0.0,0.0,0.0,0.0,0.0,0.0,0.0,9.1018,9.2953,9.5174,9.8456,9.8823,9.8823,9.8813,9.5816,9.3961,0.0,0.0,0.0,0.0,0.0,0.0,0.0,0.0,0.0,0.0,0.0,0.0,0.0,0.0,0.0,0.0,0.0,0.0,0.0,0.0,0.0,0.0,0.0,0.0,0.0,0.0,0.0,0.0,0.0,0.0,0.0,0.0,0.0,0.0,0.0,0.0,0.0,0.0,0.0,0.0,0.0,0.0,0.0,0.0,0.0,0.0,0.0,0.0,0.0,0.0,0.0,0.0,0.0,0.0,0.0,0.0,0.0,0.0,0.0,0.0,0.0,0.0,0.0,0.0,0.0,0.0,0.0,0.0,0.0,0.0,0.0,0.0,0.0,0.0,0.0,0.0,0.0,0.0,0.0,0.0,0.0,0.0,0.0,0.0,0.0,0.0,0.0,0.0,0.0,0.0,0.0,0.0,0.0,0.0,0.0,0.0,0.0,0.0,0.0,0.0,0.0,0.0,0.0,8.8022,8.9752,9.1892,0.0,9.4451,9.4309,9.5317,9.3524,9.1375,8.9244,0.0,0.0,0.0,0.0,0.0,0.0,0.0,0.0,0.0,0.0,0.0,0.0,0.0,0.0,0.0,0.0,0.0,0.0,0.0,0.0,0.0,0.0,0.0,0.0,0.0,0.0,0.0,0.0,0.0,0.0,0.0,0.0,0.0,0.0,0.0,0.0,0.0,0.0,0.0,0.0,0.0,0.0,0.0,0.0,0.0,0.0,0.0,0.0,0.0,0.0,0.0,0.0,0.0,0.0,0.0,0.0,0.0,0.0,0.0,0.0,0.0,0.0,0.0,0.0,0.0,0.0,0.0,0.0,0.0,0.0,0.0,0.0,0.0,0.0,0.0,0.0,0.0,0.0,0.0,0.0,0.0,0.0,0.0,0.0,0.0,0.0,0.0,0.0,0.0,0.0,0.0,0.0,0.0,0.0,0.0,0.0,0.0,0.0,0.0,0.0,0.0,0.0,0.0,8.7754,8.9333,0.0,9.125,9.1098,9.2035,9.0661,8.8949,8.7032,0.0,0.0,0.0,0.0,0.0,0.0,0.0,0.0,0.0,0.0,0.0,0.0,0.0,0.0,0.0,0.0,0.0,0.0,0.0,0.0,0.0,0.0,0.0,0.0,0.0,0.0,0.0,0.0,0.0,0.0,0.0,0.0,0.0,0.0,0.0,0.0,0.0,0.0,0.0,0.0,0.0,0.0,0.0,0.0,0.0,0.0,0.0,0.0,0.0,0.0,0.0,0.0,0.0,0.0,0.0,0.0,0.0,0.0,0.0,0.0,0.0,0.0,0.0,0.0,0.0,0.0,0.0,0.0,0.0,0.0,0.0,0.0,0.0,0.0,0.0,0.0,0.0,0.0,0.0,0.0,0.0,0.0,0.0,0.0,0.0,0.0,0.0,0.0,0.0,0.0,0.0,0.0,0.0,0.0,0.0,0.0,0.0,0.0,0.0,0.0,0.0,0.0,0.0,8.6676,8.7326,8.8905,8.8985,8.8905,8.9047,8.7612,8.6755,8.6755,8.383,0.0,0.0,0.0,0.0,0.0,0.0,0.0,0.0,0.0,0.0,0.0,0.0,0.0,0.0,0.0,0.0,0.0,0.0,0.0,0.0,0.0,0.0,0.0,0.0,0.0,0.0,0.0,0.0,0.0,0.0,0.0,0.0,0.0,0.0,0.0,0.0,0.0,0.0,0.0,0.0,0.0,0.0,0.0,0.0,0.0,0.0,0.0,0.0,0.0,0.0,0.0,0.0,0.0,0.0,0.0,0.0,0.0,0.0,0.0,0.0,0.0,0.0,0.0,0.0,0.0,0.0,0.0,0.0,0.0,0.0,0.0,0.0,0.0,0.0,0.0,0.0,0.0,0.0,0.0,0.0,0.0,0.0,0.0,0.0,0.0,0.0,0.0,0.0,0.0,0.0,0.0,0.0,0.0,0.0,0.0,0.0,0.0,0.0,0.0,0.0,0.0,0.0,8.4338,8.5702,8.7255,8.6336,8.613,8.7326,8.5979,8.5131,8.5131,8.2189,0.0,0.0,0.0,0.0,0.0,0.0,0.0,0.0,0.0,0.0,0.0,0.0,0.0,0.0,0.0,0.0,0.0,0.0,0.0,0.0,0.0,0.0,0.0,0.0,0.0,0.0,0.0,0.0,0.0,0.0,0.0,0.0,0.0,0.0,0.0,0.0,0.0,0.0,0.0,0.0,0.0,0.0,0.0,0.0,0.0,0.0,0.0,0.0,0.0,0.0,0.0,0.0,0.0,0.0,0.0,0.0,0.0,0.0,0.0,0.0,0.0,0.0,0.0,0.0,0.0,0.0,0.0,0.0,0.0,0.0,0.0,0.0,0.0,0.0,0.0,0.0,0.0,0.0,0.0,0.0,0.0,0.0,0.0,0.0,0.0,0.0,0.0,0.0,0.0,0.0,0.0,0.0,0.0,0.0,0.0,0.0,0.0,0.0,0.0,0.0,0.0,0.0,8.2063,8.4061,8.5622,8.506,8.4926,8.5765,8.4418,8.349,8.349,7.9906,0.0,0.0,0.0,0.0,0.0,0.0,0.0,0.0,0.0,0.0,0.0,0.0,0.0,0.0,0.0,0.0,0.0,0.0,0.0,0.0,0.0,0.0,0.0,0.0,0.0,0.0,0.0,0.0,0.0,0.0,0.0,0.0,0.0,0.0,0.0,0.0,0.0,0.0,0.0,0.0,0.0,0.0,0.0,0.0,0.0,0.0,0.0,0.0,0.0,0.0,0.0,0.0,0.0,0.0,0.0,0.0,0.0,0.0,0.0,0.0,0.0,0.0,0.0,0.0,0.0,0.0,0.0,0.0,0.0,0.0,0.0,0.0,0.0,0.0,0.0,0.0,0.0,0.0,0.0,0.0,0.0,0.0,0.0,0.0,0.0,0.0,0.0,0.0,0.0,0.0,0.0,0.0,0.0,0.0,0.0,0.0,0.0,0.0,0.0,0.0,0.0,0.0,0.0,8.2198,8.3998,8.4426,8.4435,8.4212,8.2991,8.2126,8.1912,0.0,0.0,0.0,0.0,0.0,0.0,0.0,0.0,0.0,0.0,0.0,0.0,0.0,0.0,0.0,0.0,0.0,0.0,0.0,0.0,0.0,0.0,0.0,0.0,0.0,0.0,0.0,0.0,0.0,0.0,0.0,0.0,0.0,0.0,0.0,0.0,0.0,0.0,0.0,0.0,0.0,0.0,0.0,0.0,0.0,0.0,0.0,0.0,0.0,0.0,0.0,0.0,0.0,0.0,0.0,0.0,0.0,0.0,0.0,0.0,0.0,0.0,0.0,0.0,0.0,0.0,0.0,0.0,0.0,0.0,0.0,0.0,0.0,0.0,0.0,0.0,0.0,0.0,0.0,0.0,0.0,0.0,0.0,0.0,0.0,0.0,0.0,0.0,0.0,0.0,0.0,0.0,0.0,0.0,0.0,0.0,0.0,0.0,0.0,0.0,0.0,0.0,0.0,0.0,0.0,8.2277,8.3784,8.3998,8.2697,8.234,8.169,8.0318,0.0,0.0,0.0,0.0,0.0,0.0,0.0,0.0,0.0,0.0,0.0,0.0,0.0,0.0]}],[{"header":{"parameterUnit":"kt","parameterCategory":2,"dx":1,"dy":1,"la1":29.285339999999998,"la2":30.599998999999997,"lo1":-89.70041500000002,"lo2":-87.6738589999976,"nx":112,"ny":82,"refTime":"2022-10-04T00:00:00:Z","depth":0,"parameterNumber":2,"parameterNumberName":"V-component_of_WINDS"},"data":[8.8646,8.7781,0.0,8.9047,8.7903,0.0,8.549,0.0,0.0,0.0,0.0,0.0,0.0,0.0,0.0,0.0,0.0,0.0,0.0,0.0,0.0,0.0,0.0,0.0,0.0,0.0,0.0,0.0,0.0,0.0,0.0,0.0,9.3806,9.6622,9.5923,9.6749,9.9575,9.9893,9.9211,9.7531,9.973,10.0642,10.0469,10.2056,10.2831,10.2831,10.2831,10.371,10.5102,10.5102,10.5102,10.4825,10.2025,10.267,10.4069,9.5452,9.4036,9.624,9.4995,9.4578,9.5286,9.9602,10.391,10.7903,11.0675,11.0443,10.8651,10.5899,10.0898,9.5784,9.2987,9.1127,9.0016,9.0016,9.0016,9.0016,9.0016,9.0016,9.0016,9.0016,9.0016,9.0016,9.0016,9.0016,9.0016,9.0016,9.0016,9.0016,9.0016,9.0016,9.0016,9.0016,9.0016,9.0016,9.0016,9.0016,9.0016,9.0016,9.0016,9.0016,9.0016,9.0016,9.0016,9.0016,9.0016,9.0016,9.0016,9.0016,9.0016,9.0016,9.0016,8.9865,0.0,0.0,8.2244,8.4312,0.0,0.0,0.0,0.0,0.0,0.0,0.0,0.0,0.0,0.0,0.0,0.0,0.0,0.0,0.0,0.0,0.0,0.0,0.0,0.0,0.0,0.0,0.0,0.0,0.0,0.0,0.0,9.3667,9.454,9.7654,9.6514,9.6668,9.853,9.7032,9.6297,9.629,9.6835,9.7585,9.8582,9.8501,9.8501,9.8582,10.0007,10.0656,10.0737,10.2229,10.1947,10.0372,9.7517,9.8132,9.9806,9.2649,9.1807,9.3827,9.0997,9.0916,9.2861,9.7188,10.0494,10.3631,10.7948,10.7198,10.4308,10.1464,9.7558,9.3576,9.0742,9.0016,9.0016,9.0016,9.0016,9.0016,9.0016,9.0016,9.0016,9.0016,9.0016,9.0016,9.0016,9.0016,9.0016,9.0016,9.0016,9.0016,9.0016,9.0016,9.0016,9.0016,9.0016,9.0016,9.0016,9.0016,9.0016,9.0016,9.0016,9.0016,9.0016,9.0016,9.0016,9.0016,9.0016,9.0016,9.0016,9.0016,9.0016,9.0016,9.0016,9.0016,0.0,0.0,0.0,7.7516,0.0,0.0,0.0,0.0,7.8701,0.0,0.0,0.0,0.0,0.0,0.0,0.0,0.0,0.0,0.0,0.0,0.0,0.0,0.0,0.0,0.0,0.0,0.0,0.0,0.0,0.0,9.2774,9.3122,9.3958,9.5796,9.5734,9.4604,9.2369,9.2251,9.5216,10.1161,9.2845,9.3654,10.2108,9.3785,9.0016,9.0233,9.4411,9.6198,9.6529,10.0696,10.0009,9.6198,9.6198,9.6198,9.5701,9.155,9.0016,9.0016,9.0016,9.2693,9.69,10.106,10.251,10.3391,10.7551,10.3031,9.6405,9.6405,9.3323,9.0016,9.0016,9.0016,9.0016,9.0016,9.0016,9.0016,9.0016,9.0016,9.0016,9.0016,9.0016,9.0016,9.0016,9.0016,9.0016,9.0016,9.0016,9.0016,9.0016,9.0016,9.0016,9.0016,9.0016,9.0016,9.0016,9.0016,9.0016,9.0016,9.0016,9.0016,9.0016,9.0016,9.0016,9.0016,9.0016,9.0016,9.0016,9.0016,9.0016,9.0016,9.0016,9.0016,7.018,0.0,0.0,0.0,0.0,0.0,0.0,0.0,0.0,0.0,0.0,0.0,0.0,0.0,0.0,0.0,0.0,0.0,0.0,0.0,0.0,0.0,0.0,0.0,0.0,0.0,0.0,0.0,0.0,0.0,9.2818,9.3623,9.4502,9.5796,9.355,9.2317,9.2329,8.9969,9.0014,9.235,9.0554,9.1023,9.3448,9.1043,9.0016,9.0059,9.1254,9.1722,9.1849,9.3029,9.2819,9.1722,9.1722,9.1722,9.1634,9.0446,9.0016,9.0016,9.0016,9.0785,9.1933,9.3113,9.5659,9.8378,9.9602,9.8296,9.6405,9.6405,9.3323,9.0016,9.0016,9.0016,9.0016,9.0016,9.0016,9.0016,9.0016,9.0016,9.0016,9.0016,9.0016,9.0016,9.0016,9.0016,9.0016,9.0016,9.0016,9.0016,9.0016,9.0016,9.0016,9.0016,9.0016,9.0016,9.0016,9.0016,9.0016,9.0016,9.0016,9.0016,9.0016,9.0016,9.0016,9.0016,9.0016,9.0016,9.0016,9.0016,9.0016,9.0016,9.0016,9.0016,0.0,0.0,0.0,0.0,0.0,0.0,0.0,0.0,7.7263,0.0,0.0,0.0,0.0,0.0,0.0,0.0,0.0,0.0,0.0,0.0,8.3646,0.0,0.0,0.0,0.0,0.0,0.0,0.0,0.0,9.013,9.8776,9.6465,9.5373,9.6369,9.3239,9.1134,9.0294,8.8825,8.9381,9.1989,9.064,9.0916,9.2649,9.0789,9.0016,9.0016,9.0016,9.0016,9.0016,9.0016,9.0016,9.0016,9.0016,9.0016,9.0016,9.0016,9.0016,9.0016,9.0016,9.0016,9.0016,9.0016,9.168,9.4077,9.5867,9.5162,9.3701,9.3701,9.1933,9.0016,9.0016,9.0016,9.0016,9.0016,9.0016,9.0016,9.0016,9.0016,9.0016,9.0016,9.0016,9.0016,9.0016,9.0016,9.0016,9.0016,9.0016,9.0016,9.0016,9.0016,9.0016,9.0016,9.0016,9.0016,9.0016,9.0016,9.0016,9.0016,9.0016,9.0016,9.0016,9.0016,9.0016,9.0016,9.0016,9.0016,9.0016,9.0016,9.0016,9.0016,9.0016,9.0016,0.0,0.0,0.0,0.0,6.815,0.0,0.0,0.0,0.0,0.0,0.0,0.0,0.0,0.0,0.0,0.0,0.0,0.0,8.5051,8.8391,9.2539,0.0,0.0,0.0,0.0,9.5495,9.5745,10.3199,9.4455,9.4097,10.6353,9.9867,9.6245,9.7258,9.3647,9.0336,8.7663,8.8422,9.116,9.5659,9.1807,9.2017,9.5576,9.1761,9.0016,9.0016,9.0016,9.0016,9.0016,9.0016,9.0016,9.0016,9.0016,9.0016,9.0016,9.0016,9.0016,9.0016,9.0016,9.0016,9.0016,9.0016,9.0016,9.0742,9.4536,9.3029,9.0016,9.0016,9.0016,9.0016,9.0016,9.0016,9.0016,9.0016,9.0016,9.0016,9.0016,9.0016,9.0016,9.0016,9.0016,9.0016,9.0016,9.0016,9.0016,9.0016,9.0016,9.0016,9.0016,9.0016,9.0016,9.0016,9.0016,9.0016,9.0016,9.0016,9.0016,9.0016,9.0016,9.0016,9.0016,9.0016,9.0016,9.0016,9.0016,9.0016,9.0016,9.0016,9.0016,9.0016,9.0016,9.0016,0.0,0.0,0.0,0.0,0.0,6.9694,0.0,0.0,0.0,0.0,0.0,8.3049,8.4318,8.6174,0.0,8.6926,0.0,0.0,0.0,9.5108,0.0,0.0,0.0,0.0,0.0,10.0791,10.0391,9.9853,9.8567,9.9315,10.2799,9.8247,9.6324,9.8101,9.1217,8.7841,8.8578,8.873,8.9644,9.1212,9.0403,9.0446,9.1212,9.0361,9.0016,9.0016,9.0016,9.0016,9.0016,9.0016,9.0016,9.0016,9.0016,9.0016,9.0016,9.0016,9.0016,9.0016,9.0016,9.0016,9.0016,9.0016,9.0016,9.0148,9.0997,9.0658,9.0016,9.0016,9.0016,9.0016,9.0016,9.0016,9.0016,9.0016,9.0016,9.0016,9.0016,9.0016,9.0016,9.0016,9.0016,9.0016,9.0016,9.0016,9.0016,9.0016,9.0016,9.0016,9.0016,9.0016,9.0016,9.0016,9.0016,9.0016,9.0016,9.0016,9.0016,9.0016,9.0016,9.0016,9.0016,9.0016,9.0016,9.0016,9.0016,9.0016,9.0016,9.0016,9.0016,9.0016,9.0016,9.0016,0.0,0.0,0.0,6.0191,0.0,0.0,0.0,7.5454,8.0852,8.249,8.4025,8.5657,8.7268,8.8899,9.0392,9.1495,9.2979,9.4754,9.6932,9.908,10.069,0.0,0.0,0.0,10.2789,10.3292,10.2514,9.9723,10.0531,10.1596,10.2495,9.8969,9.6419,9.539,9.0287,8.8008,8.8806,8.9223,8.9599,9.0016,9.0016,9.0016,9.0016,9.0016,9.0016,9.0016,9.0016,9.0016,9.0016,9.0016,9.0016,9.0016,9.0016,9.0016,9.0016,9.0016,9.0016,9.0016,9.0016,9.0016,9.0016,9.0016,9.0016,9.0016,9.0016,9.0016,9.0016,9.0016,9.0016,9.0016,9.0016,9.0016,9.0016,9.0016,9.0016,9.0016,9.0016,9.0016,9.0016,9.0016,9.0016,9.0016,9.0016,9.0016,9.0016,9.0016,9.0016,9.0016,9.0016,9.0016,9.0016,9.0016,9.0016,9.0016,9.0016,9.0016,9.0016,9.0016,9.0016,9.0016,9.0016,9.0016,9.0016,9.0016,9.0016,9.0016,9.0016,9.0016,9.0016,9.0016,9.0016,9.0016,0.0,0.0,0.0,0.0,0.0,0.0,7.1251,7.6788,8.2783,8.4492,8.6194,8.8069,9.0538,9.1777,9.3144,9.5157,9.6378,9.8103,10.1178,10.1585,10.1975,0.0,0.0,0.0,10.4595,10.4741,10.3883,10.1902,10.2603,10.3236,10.3449,9.9463,9.5832,9.2938,9.0242,8.892,8.9071,8.9675,9.0016,9.0016,9.0016,9.0016,9.0016,9.0016,9.0016,9.0016,9.0016,9.0016,9.0016,9.0016,9.0016,9.0016,9.0016,9.0016,9.0016,9.0016,9.0016,9.0016,9.0016,9.0016,9.0016,9.0016,9.0016,9.0016,9.0016,9.0016,9.0016,9.0016,9.0016,9.0016,9.0016,9.0016,9.0016,9.0016,9.0016,9.0016,9.0016,9.0016,9.0016,9.0016,9.0016,9.0016,9.0016,9.0016,9.0016,9.0016,9.0016,9.0016,9.0016,9.0016,9.0016,9.0016,9.0016,9.0016,9.0016,9.0016,9.0016,9.0016,9.0016,9.0016,9.0016,9.0016,9.0016,9.0016,9.0016,9.0016,9.0016,9.0016,9.0016,9.0016,9.0016,9.0016,0.0,0.0,0.0,0.0,0.0,0.0,7.2755,7.8459,8.4514,8.8488,8.9464,9.0587,9.3741,9.5206,9.6249,9.7437,9.8591,10.0137,10.2365,10.2625,10.3048,0.0,0.0,0.0,10.5835,10.5933,10.6199,10.6817,10.7012,10.6238,10.4346,9.7091,9.3501,9.453,9.0823,8.9185,8.9865,8.9979,9.0016,9.0016,9.0016,9.0016,9.0016,9.0016,9.0016,9.0016,9.0016,9.0016,9.0016,9.0016,9.0016,9.0016,9.0016,9.0016,9.0016,9.0016,9.0016,9.0016,9.0016,9.0016,9.0016,9.0016,9.0016,9.0016,9.0016,9.0016,9.0016,9.0016,9.0016,9.0016,9.0016,9.0016,9.0016,9.0016,9.0016,9.0016,9.0016,9.0016,9.0016,9.0016,9.0016,9.0016,9.0016,9.0016,9.0016,9.0016,9.0016,9.0016,9.0016,9.0016,9.0016,9.0016,9.0016,9.0016,9.0016,9.0016,9.0016,9.0016,9.0016,9.0016,9.0016,9.0016,9.0016,9.0016,9.0016,9.0016,9.0016,9.0016,9.0016,9.0016,9.0016,9.0016,0.0,0.0,0.0,0.0,0.0,0.0,7.6514,8.2285,8.7854,8.9631,9.2002,9.415,9.5499,9.7159,9.8689,9.973,10.1325,10.274,10.3585,10.4302,10.4922,0.0,0.0,0.0,0.0,10.7021,10.7461,10.8499,10.8597,10.735,10.4531,9.7659,9.3069,9.1399,9.0187,8.9675,9.0016,9.0016,9.0016,9.0016,9.0016,9.0016,9.0016,9.0016,9.0016,9.0016,9.0016,9.0016,9.0016,9.0016,9.0016,9.0016,9.0016,9.0016,9.0016,9.0016,9.0016,9.0016,9.0016,9.0016,9.0016,9.0016,9.0016,9.0016,9.0016,9.0016,9.0016,9.0016,9.0016,9.0016,9.0016,9.0016,9.0016,9.0016,9.0016,9.0016,9.0016,9.0016,9.0016,9.0016,9.0016,9.0016,9.0016,9.0016,9.0016,9.0016,9.0016,9.0016,9.0016,9.0016,9.0016,9.0016,9.0016,9.0016,9.0016,9.0016,9.0016,9.0016,9.0016,9.0016,9.0016,9.0016,9.0016,9.0016,9.0016,9.0016,9.0016,9.0016,9.0016,9.0016,9.0016,9.0016,5.7154,0.0,0.0,0.0,0.0,0.0,7.9657,8.5277,9.0314,9.1563,9.4248,9.6688,9.7615,9.9063,10.0625,10.191,10.3423,10.4497,10.4824,10.5556,10.6275,0.0,0.0,0.0,0.0,0.0,0.0,0.0,10.9684,10.7744,10.3371,9.8986,9.4323,8.9316,8.9713,9.0016,9.0016,9.0016,9.0016,9.0016,9.0016,9.0016,9.0016,9.0016,9.0016,9.0016,9.0016,9.0016,9.0016,9.0016,9.0016,9.0016,9.0016,9.0016,9.0016,9.0016,9.0016,9.0016,9.0016,9.0016,9.0016,9.0016,9.0016,9.0016,9.0016,9.0016,9.0016,9.0016,9.0016,9.0016,9.0016,9.0016,9.0016,9.0016,9.0016,9.0016,9.0016,9.0016,9.0016,9.0016,9.0016,9.0016,9.0016,9.0016,9.0016,9.0016,9.0016,9.0016,9.0016,9.0016,9.0016,9.0016,9.0016,9.0016,9.0016,9.0016,9.0016,9.0016,9.0016,9.0016,9.0016,9.0016,9.0016,9.0016,9.0016,9.0016,9.0016,9.0016,9.0016,9.0016,9.0016,9.0016,0.0,0.0,0.0,6.4922,7.0343,7.6053,8.121,8.6308,9.1222,9.537,9.6298,9.7371,10.0544,10.1178,10.191,10.396,10.4351,10.479,10.5933,10.6128,10.6519,10.7509,0.0,0.0,0.0,0.0,0.0,0.0,11.077,10.762,10.0453,10.0714,9.7663,9.0195,8.9979,9.0016,9.0016,9.0016,9.0016,9.0016,9.0016,9.0016,9.0016,9.0016,9.0016,9.0016,9.0016,9.0016,9.0016,9.0016,9.0016,9.0016,9.0016,9.0016,9.0016,9.0016,9.0016,9.0016,9.0016,9.0016,9.0016,9.0016,9.0016,9.0016,9.0016,9.0016,9.0016,9.0016,9.0016,9.0016,9.0016,9.0016,9.0016,9.0016,9.0016,9.0016,9.0016,9.0016,9.0016,9.0016,9.0016,9.0016,9.0016,9.0016,9.0016,9.0016,9.0016,9.0016,9.0016,9.0016,9.0016,9.0016,9.0016,9.0016,9.0016,9.0016,9.0016,9.0016,9.0016,9.0016,9.0016,9.0016,9.0016,9.0016,9.0016,9.0016,9.0016,9.0016,9.0016,9.0016,9.0016,9.0016,5.9643,6.1747,6.4855,7.202,7.6274,8.0299,8.6107,9.0422,9.3839,9.5956,9.8152,9.9958,10.1081,10.2398,10.357,10.4253,10.562,10.6694,10.7119,10.7802,10.8304,10.8695,0.0,0.0,0.0,0.0,0.0,0.0,0.0,0.0,10.1225,10.1101,9.7785,9.0233,9.0016,9.0016,9.0016,9.0016,9.0016,9.0016,9.0016,9.0016,9.0016,9.0016,9.0016,9.0016,9.0016,9.0016,9.0016,9.0016,9.0016,9.0016,9.0016,9.0016,9.0016,9.0016,9.0016,9.0016,9.0016,9.0016,9.0016,9.0016,9.0016,9.0016,9.0016,9.0016,9.0016,9.0016,9.0016,9.0016,9.0016,9.0016,9.0016,9.0016,9.0016,9.0016,9.0016,9.0016,9.0016,9.0016,9.0016,9.0016,9.0016,9.0016,9.0016,9.0016,9.0016,9.0016,9.0016,9.0016,9.0016,9.0016,9.0016,9.0016,9.0016,9.0016,9.0016,9.0016,9.0016,9.0016,9.0016,9.0016,9.0016,9.0016,9.0016,9.0016,9.0016,9.0016,9.0016,9.0016,9.0016,9.0016,6.1186,6.3862,6.7544,7.5728,7.9844,8.3461,8.9259,9.3076,9.5841,9.7305,9.9568,10.1422,10.1731,10.3228,10.4644,10.5425,10.6742,10.7851,10.8158,10.8841,10.9245,10.9245,0.0,0.0,0.0,0.0,0.0,0.0,0.0,10.9804,10.223,10.1837,9.82,9.0276,9.0016,9.0016,9.0016,9.0016,9.0016,9.0016,9.0016,9.0016,9.0016,9.0016,9.0016,9.0016,9.0016,9.0016,9.0016,9.0016,9.0016,9.0016,9.0016,9.0016,9.0016,9.0016,9.0016,9.0016,9.0016,9.0016,9.0016,9.0016,9.0016,9.0016,9.0016,9.0016,9.0016,9.0016,9.0016,9.0016,9.0016,9.0016,9.0016,9.0016,9.0016,9.0016,9.0016,9.0016,9.0016,9.0016,9.0016,9.0016,9.0016,9.0016,9.0016,9.0016,9.0016,9.0016,9.0016,9.0016,9.0016,9.0016,9.0016,9.0016,9.0016,9.0016,9.0016,9.0016,9.0016,9.0016,9.0016,9.0016,9.0016,9.0016,9.0016,9.0016,9.0016,9.0016,9.0016,9.0016,9.0016,9.0016,6.202,6.4993,6.8812,7.6055,8.0855,8.52,9.0508,9.4217,9.7127,9.9356,10.0641,10.1682,10.2707,10.3731,10.5181,10.7363,10.7719,10.8109,10.9134,10.9245,10.9245,10.9245,0.0,0.0,0.0,0.0,0.0,0.0,11.4173,11.0882,10.3227,10.2831,9.8909,9.0276,9.0016,9.0016,9.0016,9.0016,9.0016,9.0016,9.0016,9.0016,9.0016,9.0016,9.0016,9.0016,9.0016,9.0016,9.0016,9.0016,9.0016,9.0016,9.0016,9.0016,9.0016,9.0016,9.0016,9.0016,9.0016,9.0016,9.0016,9.0016,9.0016,9.0016,9.0016,9.0016,9.0016,9.0016,9.0016,9.0016,9.0016,9.0016,9.0016,9.0016,9.0016,9.0016,9.0016,9.0016,9.0016,9.0016,9.0016,9.0016,9.0016,9.0016,9.0016,9.0016,9.0016,9.0016,9.0016,9.0016,9.0016,9.0016,9.0016,9.0016,9.0016,9.0016,9.0016,9.0016,9.0016,9.0016,9.0016,9.0016,9.0016,9.0016,9.0016,9.0016,9.0016,9.0016,9.0016,9.0016,9.0016,9.0016,6.2316,6.5483,6.9105,7.7671,8.1806,8.5604,9.2439,9.5858,9.8169,10.0446,10.1682,10.2756,10.378,10.4922,10.6142,10.7461,10.8353,10.8903,10.9196,10.9245,10.9245,10.9245,0.0,0.0,0.0,0.0,0.0,0.0,11.4807,11.163,10.3271,10.2831,9.8909,9.0276,9.0016,9.0016,9.0016,9.0016,9.0016,9.0016,9.0016,9.0016,9.0016,9.0016,9.0016,9.0016,9.0016,9.0016,9.0016,9.0016,9.0016,9.0016,9.0016,9.0016,9.0016,9.0016,9.0016,9.0016,9.0016,9.0016,9.0016,9.0016,9.0016,9.0016,9.0016,9.0016,9.0016,9.0016,9.0016,9.0016,9.0016,9.0016,9.0016,9.0016,9.0016,9.0016,9.0016,9.0016,9.0016,9.0016,9.0016,9.0016,9.0016,9.0016,9.0016,9.0016,9.0016,9.0016,9.0016,9.0016,9.0016,9.0016,9.0016,9.0016,9.0016,9.0016,9.0016,9.0016,9.0016,9.0016,9.0016,9.0016,9.0016,9.0016,9.0016,9.0016,9.0016,9.0016,9.0016,9.0016,9.0016,9.0016,6.0096,6.4448,6.9356,7.6555,8.1735,8.6368,9.1504,9.5807,9.9226,10.0934,10.2121,10.3292,10.4873,10.5654,10.6631,10.8109,10.889,10.9245,10.9245,10.9245,10.9245,10.9245,0.0,0.0,0.0,0.0,0.0,0.0,11.3579,10.9894,10.3191,10.102,9.6941,9.0191,9.0016,9.0016,9.0016,9.0016,9.0016,9.0016,9.0016,9.0016,9.0016,9.0016,9.0016,9.0016,9.0016,9.0016,9.0016,9.0016,9.0016,9.0016,9.0016,9.0016,9.0016,9.0016,9.0016,9.0016,9.0016,9.0016,9.0016,9.0016,9.0016,9.0016,9.0016,9.0016,9.0016,9.0016,9.0016,9.0016,9.0016,9.0016,9.0016,9.0016,9.0016,9.0016,9.0016,9.0016,9.0016,9.0016,9.0016,9.0016,9.0016,9.0016,9.0016,9.0016,9.0016,9.0016,9.0016,9.0016,9.0016,9.0016,9.0016,9.0016,9.0016,9.0016,9.0016,9.0016,9.0016,9.0016,9.0016,9.0016,9.0016,9.0016,9.0016,9.0016,9.0016,9.0016,9.0016,9.0016,9.0016,9.0016,5.7078,6.2463,6.8974,7.4506,8.1026,8.6915,8.9986,9.5332,10.0039,10.1227,10.2219,10.3439,10.5508,10.603,10.6777,10.8743,10.9147,10.9245,10.9245,10.9245,10.9245,10.9245,0.0,0.0,0.0,0.0,0.0,0.0,11.1683,10.7355,10.3071,9.8746,9.4453,9.0106,9.0016,9.0016,9.0016,9.0016,9.0016,9.0016,9.0016,9.0016,9.0016,9.0016,9.0016,9.0016,9.0016,9.0016,9.0016,9.0016,9.0016,9.0016,9.0016,9.0016,9.0016,9.0016,9.0016,9.0016,9.0016,9.0016,9.0016,9.0016,9.0016,9.0016,9.0016,9.0016,9.0016,9.0016,9.0016,9.0016,9.0016,9.0016,9.0016,9.0016,9.0016,9.0016,9.0016,9.0016,9.0016,9.0016,9.0016,9.0016,9.0016,9.0016,9.0016,9.0016,9.0016,9.0016,9.0016,9.0016,9.0016,9.0016,9.0016,9.0016,9.0016,9.0016,9.0016,9.0016,9.0016,9.0016,9.0016,9.0016,9.0016,9.0016,9.0016,9.0016,9.0016,9.0016,9.0016,9.0016,9.0016,9.0016,5.7078,6.0505,6.5803,7.493,8.0039,8.5039,9.3387,9.7606,10.0284,10.217,10.2707,10.3243,10.4448,10.5459,10.6568,10.7754,10.8695,10.9245,10.9245,10.9245,10.9245,10.9245,0.0,0.0,0.0,0.0,0.0,0.0,0.0,10.7355,10.3071,9.8746,9.4453,9.0106,9.0016,9.0016,9.0016,9.0016,9.0016,9.0016,9.0016,9.0016,9.0016,9.0016,9.0016,9.0016,9.0016,9.0016,9.0016,9.0016,9.0016,9.0016,9.0016,9.0016,9.0016,9.0016,9.0016,9.0016,9.0016,9.0016,9.0016,9.0016,9.0016,9.0016,9.0016,9.0016,9.0016,9.0016,9.0016,9.0016,9.0016,9.0016,9.0016,9.0016,9.0016,9.0016,9.0016,9.0016,9.0016,9.0016,9.0016,9.0016,9.0016,9.0016,9.0016,9.0016,9.0016,9.0016,9.0016,9.0016,9.0016,9.0016,9.0016,9.0016,9.0016,9.0016,9.0016,9.0016,9.0016,9.0016,9.0016,9.0016,9.0016,9.0016,9.0016,9.0016,9.0016,9.0016,9.0016,9.0016,9.0016,9.0016,5.7078,6.0004,6.3846,6.9066,7.4803,8.1767,9.1552,9.5372,9.7478,9.9468,10.1447,10.3146,10.4204,10.5361,10.647,10.7509,10.8548,10.9245,10.9245,10.9245,10.8484,10.6331,10.9939,0.0,0.0,0.0,0.0,0.0,0.0,10.399,9.9724,9.5411,9.2102,9.0059,9.0016,9.0016,9.0016,9.0016,9.0016,9.0016,9.0016,9.0016,9.0016,9.0016,9.0016,9.0016,9.0016,9.0016,9.0016,9.0016,9.0016,9.0016,9.0016,9.0016,9.0016,9.0016,9.0016,9.0016,9.0016,9.0016,9.0016,9.0016,9.0016,9.0016,9.0016,9.0016,9.0016,9.0016,9.0016,9.0016,9.0016,9.0016,9.0016,9.0016,9.0016,9.0016,9.0016,9.0016,9.0016,9.0016,9.0016,9.0016,9.0016,9.0016,9.0016,9.0016,9.0016,9.0016,9.0016,9.0016,9.0016,9.0016,9.0016,9.0016,9.0016,9.0016,9.0016,9.0016,9.0016,9.0016,9.0016,9.0016,9.0016,9.0016,9.0016,9.0016,9.0016,9.0016,9.0016,9.0016,9.0016,9.0016,5.7078,6.0004,6.2778,6.3584,6.9775,7.8241,8.7943,9.0917,9.2646,9.6171,9.94,10.1856,10.2662,10.4458,10.5852,10.6071,10.7713,10.8988,10.9196,10.9245,10.7757,10.3694,10.794,0.0,0.0,0.0,0.0,0.0,0.0,0.0,9.7968,9.2819,9.0016,9.0016,9.0016,9.0016,9.0016,9.0016,9.0016,0.0,9.0016,9.0016,9.0016,9.0016,9.0016,9.0016,9.0016,9.0016,9.0016,9.0016,9.0016,9.0016,9.0016,9.0016,9.0016,9.0016,9.0016,9.0016,9.0016,9.0016,9.0016,9.0016,9.0016,9.0016,9.0016,9.0016,9.0016,9.0016,9.0016,9.0016,9.0016,9.0016,9.0016,9.0016,9.0016,9.0016,9.0016,9.0016,9.0016,9.0016,9.0016,9.0016,9.0016,9.0016,9.0016,9.0016,9.0016,9.0016,9.0016,9.0016,9.0016,9.0016,9.0016,9.0016,9.0016,9.0016,9.0016,9.0016,9.0016,9.0016,9.0016,9.0016,9.0016,9.0016,9.0016,9.0016,9.0016,9.0016,9.0016,9.0016,9.0016,9.0016,5.7078,6.0004,6.2778,6.3584,6.8361,7.5239,8.4195,8.465,8.5573,9.4181,9.6893,9.7714,9.7807,10.1543,10.3779,10.1374,10.4851,10.8158,10.9134,10.9245,10.7757,10.3694,10.5282,0.0,0.0,0.0,0.0,0.0,0.0,0.0,0.0,9.4453,9.0016,9.0016,9.0016,9.0016,9.0016,9.0016,9.0016,9.0016,9.0016,9.0016,9.0016,9.0016,9.0016,9.0016,9.0016,9.0016,9.0016,9.0016,9.0016,9.0016,9.0016,9.0016,9.0016,9.0016,9.0016,9.0016,9.0016,9.0016,9.0016,9.0016,9.0016,9.0016,9.0016,9.0016,9.0016,9.0016,9.0016,9.0016,9.0016,9.0016,9.0016,9.0016,9.0016,9.0016,9.0016,9.0016,9.0016,9.0016,9.0016,9.0016,9.0016,9.0016,9.0016,9.0016,9.0016,9.0016,9.0016,9.0016,9.0016,9.0016,9.0016,9.0016,9.0016,9.0016,9.0016,9.0016,9.0016,9.0016,9.0016,9.0016,9.0016,9.0016,9.0016,9.0016,9.0016,9.0016,9.0016,9.0016,9.0016,9.0016,5.7078,5.9596,6.196,6.2825,6.7473,7.2468,7.4958,7.6315,7.9273,8.7375,9.1504,9.369,9.369,9.7705,0.0,9.9549,10.4066,10.6995,10.4975,10.7336,10.5898,9.69,10.1965,0.0,0.0,0.0,0.0,0.0,0.0,0.0,0.0,9.3281,9.0016,9.0016,9.0016,9.0016,9.0016,9.0016,9.0016,9.0016,9.0016,9.0016,9.0016,9.0016,9.0016,9.0016,9.0016,9.0016,9.0016,9.0016,9.0016,9.0016,9.0016,9.0016,9.0016,9.0016,9.0016,9.0016,9.0016,9.0016,9.0016,9.0016,9.0016,9.0016,9.0016,9.0016,9.0016,9.0016,9.0016,9.0016,9.0016,9.0016,9.0016,9.0016,9.0016,9.0016,9.0016,9.0016,9.0016,9.0016,9.0016,9.0016,9.0016,9.0016,9.0016,9.0016,9.0016,9.0016,9.0016,9.0016,9.0016,9.0016,9.0016,9.0016,9.0016,9.0016,9.0016,9.0016,9.0016,9.0016,9.0016,9.0016,9.0016,9.0016,9.0016,9.0016,9.0016,9.0016,9.0016,9.0016,9.0016,9.0016,5.7078,5.9368,6.1437,6.2369,6.6248,6.9672,6.8957,7.0735,7.4226,8.0117,8.5632,8.9351,8.9351,9.3304,0.0,9.7001,10.1797,10.5042,10.3645,10.6798,10.5162,9.4115,9.9331,0.0,0.0,0.0,0.0,0.0,0.0,0.0,0.0,9.2354,9.0016,9.0016,9.0016,9.0016,9.0016,9.0016,9.0016,9.0016,9.0016,9.0016,9.0016,9.0016,9.0016,9.0016,9.0016,9.0016,9.0016,9.0016,9.0016,9.0016,9.0016,9.0016,9.0016,9.0016,9.0016,9.0016,9.0016,9.0016,9.0016,9.0016,9.0016,9.0016,9.0016,9.0016,9.0016,9.0016,9.0016,9.0016,9.0016,9.0016,9.0016,9.0016,9.0016,9.0016,9.0016,9.0016,9.0016,9.0016,9.0016,9.0016,9.0016,9.0016,9.0016,9.0016,9.0016,9.0016,9.0016,9.0016,9.0016,9.0016,9.0016,9.0016,9.0016,9.0016,9.0016,9.0016,9.0016,9.0016,9.0016,9.0016,9.0016,9.0016,9.0016,9.0016,9.0016,9.0016,9.0016,9.0016,9.0016,9.0016,5.7078,5.9368,6.1437,6.2369,6.4481,6.6762,6.8446,6.9406,7.0735,7.3236,7.9567,8.4627,8.4627,8.8351,0.0,9.2983,9.7196,10.2078,10.695,10.8562,10.6223,9.8071,9.7922,9.7209,0.0,0.0,0.0,0.0,0.0,0.0,0.0,9.2354,9.0016,9.0016,9.0016,9.0016,9.0016,9.0016,9.0016,9.0016,9.0016,9.0016,9.0016,9.0016,9.0016,9.0016,9.0016,9.0016,9.0016,9.0016,9.0016,9.0016,9.0016,9.0016,9.0016,9.0016,9.0016,9.0016,9.0016,9.0016,9.0016,9.0016,9.0016,9.0016,9.0016,9.0016,9.0016,9.0016,9.0016,9.0016,9.0016,9.0016,9.0016,9.0016,9.0016,9.0016,9.0016,9.0016,9.0016,9.0016,9.0016,9.0016,9.0016,9.0016,9.0016,9.0016,9.0016,9.0016,9.0016,9.0016,9.0016,9.0016,9.0016,9.0016,9.0016,9.0016,9.0016,9.0016,9.0016,9.0016,9.0016,9.0016,9.0016,9.0016,9.0016,9.0016,9.0016,9.0016,9.0016,9.0016,9.0016,9.0016,5.6926,5.8495,5.9872,6.1314,6.3099,6.4807,6.5946,6.8116,7.0355,7.1755,7.5234,7.856,8.0278,0.0,8.6984,8.7902,9.2181,9.5135,9.4492,9.7671,9.7287,8.9691,9.2034,9.3014,0.0,0.0,0.0,0.0,0.0,0.0,0.0,9.2354,9.0016,9.0016,9.0016,9.0016,9.0016,9.0016,9.0016,9.0016,9.0016,9.0016,9.0016,9.0016,9.0016,9.0016,9.0016,9.0016,9.0016,9.0016,9.0016,9.0016,9.0016,9.0016,9.0016,9.0016,9.0016,9.0016,9.0016,9.0016,9.0016,9.0016,9.0016,9.0016,9.0016,9.0016,9.0016,9.0016,9.0016,9.0016,9.0016,9.0016,9.0016,9.0016,9.0016,9.0016,9.0016,9.0016,9.0016,9.0016,9.0016,9.0016,9.0016,9.0016,9.0016,9.0016,9.0016,9.0016,9.0016,9.0016,9.0016,9.0016,9.0016,9.0016,9.0016,9.0016,9.0016,9.0016,9.0016,9.0016,9.0016,9.0016,9.0016,9.0016,9.0016,9.0016,9.0016,9.0016,9.0016,9.0016,9.0016,9.0016,5.685,5.8115,5.9112,6.0792,6.2007,6.3099,6.4207,6.6333,6.8571,7.0426,7.2055,0.0,0.0,8.0074,8.3098,8.5333,8.99,9.3028,9.2842,9.5865,9.5927,9.0238,9.0884,9.07,0.0,0.0,0.0,0.0,0.0,0.0,9.3994,9.1466,9.0016,9.0016,9.0016,9.0016,9.0016,9.0016,9.0016,9.0016,9.0016,9.0016,9.0016,9.0016,9.0016,9.0016,9.0016,9.0016,9.0016,9.0016,9.0016,9.0016,9.0016,9.0016,9.0016,9.0016,9.0016,9.0016,9.0016,9.0016,9.0016,9.0016,9.0016,9.0016,9.0016,9.0016,9.0016,9.0016,9.0016,9.0016,9.0016,9.0016,9.0016,9.0016,9.0016,9.0016,9.0016,9.0016,9.0016,9.0016,9.0016,9.0016,9.0016,9.0016,9.0016,9.0016,9.0016,9.0016,9.0016,9.0016,9.0016,9.0016,9.0016,9.0016,9.0016,9.0016,9.0016,9.0016,9.0016,9.0016,9.0016,9.0016,9.0016,9.0016,9.0016,9.0016,9.0016,9.0016,9.0016,9.0016,9.0016,9.0016,5.6774,5.8001,5.8999,6.064,6.1134,6.1627,6.3213,6.4276,6.5839,6.8989,0.0,0.0,7.4106,7.6766,7.9928,8.4481,8.9118,9.3774,9.8412,0.0,9.9296,9.6619,9.2885,8.9743,8.7651,8.7469,0.0,0.0,0.0,0.0,9.0016,9.0016,9.0016,9.0016,9.0016,9.0016,9.0016,9.0016,9.0016,9.0016,9.0016,9.0016,9.0016,9.0016,9.0016,9.0016,9.0016,9.0016,9.0016,9.0016,9.0016,9.0016,9.0016,9.0016,9.0016,9.0016,9.0016,9.0016,9.0016,9.0016,9.0016,9.0016,9.0016,9.0016,9.0016,9.0016,9.0016,9.0016,9.0016,9.0016,9.0016,9.0016,9.0016,9.0016,9.0016,9.0016,9.0016,9.0016,9.0016,9.0016,9.0016,9.0016,9.0016,9.0016,9.0016,9.0016,9.0016,9.0016,9.0016,9.0016,9.0016,9.0016,9.0016,9.0016,9.0016,9.0016,9.0016,9.0016,9.0016,9.0016,9.0016,9.0016,9.0016,9.0016,9.0016,9.0016,9.0016,9.0016,9.0016,9.0016,9.0016,9.0016,5.5847,5.7165,5.8039,5.9037,6.0261,6.1323,6.1741,6.3449,6.5156,6.5922,6.8192,7.0203,7.1,7.3729,7.6864,7.9888,8.1938,8.3971,8.6311,8.6785,8.7157,8.7763,8.6968,8.6664,8.74,8.7469,8.8152,0.0,0.0,0.0,9.0016,9.0016,9.0016,9.0016,9.0016,9.0016,9.0016,9.0016,9.0016,9.0016,9.0016,9.0016,9.0016,9.0016,9.0016,9.0016,9.0016,9.0016,9.0016,9.0016,9.0016,9.0016,9.0016,9.0016,9.0016,9.0016,9.0016,9.0016,9.0016,9.0016,9.0016,9.0016,9.0016,9.0016,9.0016,9.0016,9.0016,9.0016,9.0016,9.0016,9.0016,9.0016,9.0016,9.0016,9.0016,9.0016,9.0016,9.0016,9.0016,9.0016,9.0016,9.0016,9.0016,9.0016,9.0016,9.0016,9.0016,9.0016,9.0016,9.0016,9.0016,9.0016,9.0016,9.0016,9.0016,9.0016,9.0016,9.0016,9.0016,9.0016,9.0016,9.0016,9.0016,9.0016,9.0016,9.0016,9.0016,9.0016,9.0016,9.0016,9.0016,9.0016,5.5999,5.7165,5.7724,5.8505,5.972,6.0754,6.1134,6.2272,6.3562,6.4701,6.6408,6.8154,6.971,7.2135,7.4562,7.6691,7.9908,8.273,8.4422,8.4896,8.5603,0.0,0.0,8.5499,8.6786,8.7242,8.8001,0.0,0.0,0.0,9.0016,9.0016,9.0016,9.0016,9.0016,9.0016,9.0016,9.0016,9.0016,9.0016,9.0016,9.0016,9.0016,9.0016,9.0016,9.0016,0.0,9.0016,9.0016,9.0016,9.0016,9.0016,9.0016,9.0016,9.0016,9.0016,9.0016,9.0016,9.0016,9.0016,9.0016,9.0016,9.0016,9.0016,9.0016,9.0016,9.0016,9.0016,9.0016,9.0016,9.0016,9.0016,9.0016,9.0016,9.0016,9.0016,9.0016,9.0016,9.0016,9.0016,9.0016,9.0016,9.0016,9.0016,9.0016,9.0016,9.0016,9.0016,9.0016,9.0016,9.0016,9.0016,9.0016,9.0016,9.0016,9.0016,9.0016,9.0016,9.0016,9.0016,9.0016,9.0016,9.0016,9.0016,9.0016,9.0016,9.0016,9.0016,9.0016,9.0016,9.0016,9.0016,5.652,5.7534,5.7887,5.8695,5.952,6.0213,6.0906,6.1134,6.1817,6.3942,6.4663,6.5801,6.8685,7.0772,7.2666,7.4372,7.9527,8.401,8.607,8.6815,8.7627,8.8749,0.0,8.5157,8.622,8.7014,8.7849,8.8768,0.0,9.0016,9.0016,9.0016,9.0016,9.0016,9.0016,9.0016,9.0016,9.0016,9.0016,9.0016,9.0016,9.0016,9.0016,9.0016,9.0016,9.0016,0.0,9.0016,9.0016,9.0016,9.0016,9.0016,9.0016,9.0016,9.0016,9.0016,9.0016,9.0016,9.0016,9.0016,9.0016,9.0016,9.0016,9.0016,9.0016,9.0016,9.0016,9.0016,9.0016,9.0016,9.0016,9.0016,9.0016,9.0016,9.0016,9.0016,9.0016,9.0016,9.0016,9.0016,9.0016,9.0016,9.0016,9.0016,9.0016,9.0016,9.0016,9.0016,9.0016,9.0016,9.0016,9.0016,9.0016,9.0016,9.0016,9.0016,9.0016,9.0016,9.0016,9.0016,9.0016,9.0016,9.0016,9.0016,9.0016,9.0016,9.0016,9.0016,9.0016,9.0016,9.0016,9.0016,5.6049,5.7442,5.8761,5.9634,5.9976,6.0128,6.0242,6.0783,6.1361,6.1703,6.3486,6.508,6.5612,6.8268,7.0924,7.2628,7.5475,7.8555,8.1743,8.2281,8.2895,8.451,8.4263,0.0,8.6144,8.7014,8.7849,8.8768,8.9523,9.0016,9.0016,9.0016,9.0016,9.0016,9.0016,9.0016,9.0016,9.0016,9.0016,9.0016,9.0016,9.0016,9.0016,9.0016,9.0016,9.0016,0.0,0.0,9.0016,9.0016,9.0016,9.0016,9.0016,9.0016,9.0016,9.0016,9.0016,9.0016,9.0016,9.0016,9.0016,9.0016,9.0016,9.0016,9.0016,9.0016,9.0016,9.0016,9.0016,9.0016,9.0016,9.0016,9.0016,9.0016,9.0016,9.0016,9.0016,9.0016,9.0016,9.0016,9.0016,9.0016,9.0016,9.0016,9.0016,9.0016,9.0016,9.0016,9.0016,9.0016,9.0016,9.0016,9.0016,9.0016,9.0016,9.0016,9.0016,9.0016,9.0016,9.0016,9.0016,9.0016,9.0016,9.0016,9.0016,9.0016,9.0016,9.0016,9.0016,9.0016,9.0016,9.0016,5.71,5.8467,5.953,5.9976,6.009,6.009,6.009,6.0327,6.0745,6.1134,6.2129,6.3335,6.467,6.694,6.9325,7.1523,7.4299,7.6918,7.8969,8.0411,8.1702,8.2917,8.3488,8.4248,0.0,8.671,8.7659,8.808,8.9295,9.0016,9.0016,9.0016,9.0016,9.0016,9.0016,9.0016,9.0016,9.0016,9.0016,9.0016,9.0016,9.0016,9.0016,9.0016,9.0016,0.0,0.0,0.0,9.0016,9.0016,9.0016,9.0016,9.0016,9.0016,9.0016,9.0016,9.0016,9.0016,9.0016,9.0016,9.0016,9.0016,9.0016,9.0016,9.0016,9.0016,9.0016,9.0016,9.0016,9.0016,9.0016,9.0016,9.0016,9.0016,9.0016,9.0016,9.0016,9.0016,9.0016,9.0016,9.0016,9.0016,9.0016,9.0016,9.0016,9.0016,9.0016,9.0016,9.0016,9.0016,9.0016,9.0016,9.0016,9.0016,9.0016,9.0016,9.0016,9.0016,9.0016,9.0016,9.0016,9.0016,9.0016,9.0016,9.0016,9.0016,9.0016,9.0016,9.0016,9.0016,9.0016,9.0016,5.8429,0.0,6.009,6.009,6.009,6.009,0.0,6.009,6.0213,6.0859,6.1096,6.1893,6.398,6.5908,6.7996,7.0611,7.3802,7.6311,7.7412,7.9538,8.1322,8.2309,8.3221,8.4096,8.4891,8.6483,8.7469,8.7469,8.9067,9.0016,9.0016,9.0016,9.0016,9.0016,9.0016,9.0016,9.0016,9.0016,9.0016,9.0016,9.0016,9.0016,9.0016,9.0016,9.0016,0.0,0.0,0.0,9.0016,9.0016,9.0016,9.0016,9.0016,9.0016,9.0016,9.0016,9.0016,9.0016,9.0016,9.0016,9.0016,9.0016,9.0016,9.0016,9.0016,9.0016,9.0016,9.0016,9.0016,9.0016,9.0016,9.0016,9.0016,9.0016,9.0016,9.0016,9.0016,9.0016,9.0016,9.0016,9.0016,9.0016,9.0016,9.0016,9.0016,9.0016,9.0016,9.0016,9.0016,9.0016,9.0016,9.0016,9.0016,9.0016,9.0016,9.0016,9.0016,9.0016,9.0016,9.0016,9.0016,9.0016,9.0016,9.0016,9.0016,9.0016,9.0016,9.0016,9.0016,9.0016,9.0016,9.0016,0.0,5.9986,6.009,6.009,6.009,6.009,6.009,6.009,0.0,6.0166,6.0745,6.1551,6.2588,6.4755,6.7193,6.9672,7.2894,7.5701,7.7298,7.9082,8.0715,8.2233,8.3221,8.4096,8.4891,8.6483,8.7469,8.7469,8.9067,9.0016,9.0016,9.0016,9.0016,9.0016,9.0016,9.0016,9.0016,9.0016,9.0016,9.0016,9.0016,9.0016,9.0016,9.0016,9.0016,0.0,0.0,0.0,0.0,9.0016,9.0016,9.0016,9.0016,9.0016,9.0016,9.0016,9.0016,9.0016,9.0016,9.0016,9.0016,9.0016,9.0016,9.0016,9.0016,9.0016,9.0016,9.0016,9.0016,9.0016,9.0016,9.0016,9.0016,9.0016,9.0016,9.0016,9.0016,9.0016,9.0016,9.0016,9.0016,9.0016,9.0016,9.0016,9.0016,9.0016,9.0016,9.0016,9.0016,9.0016,9.0016,9.0016,9.0016,9.0016,9.0016,9.0016,9.0016,9.0016,9.0016,9.0016,9.0016,9.0016,9.0016,9.0016,9.0016,9.0016,9.0016,9.0016,9.0016,9.0016,9.0016,9.0016,5.9948,6.009,6.009,6.009,6.009,6.009,6.009,6.009,6.009,6.009,6.0707,6.1513,6.2436,6.4603,6.7117,6.9558,7.2328,7.4982,7.7222,7.8513,7.969,8.0829,8.212,8.3486,0.0,8.6068,8.6938,8.7431,8.8612,8.9485,8.9979,9.0016,9.0016,9.0016,9.0016,9.0016,9.0016,9.0016,9.0016,9.0016,9.0016,9.0016,9.0016,9.0016,9.0016,0.0,0.0,0.0,0.0,9.0016,9.0016,9.0016,9.0016,9.0016,9.0016,9.0016,9.0016,9.0016,9.0016,9.0016,9.0016,9.0016,9.0016,9.0016,9.0016,9.0016,9.0016,9.0016,9.0016,9.0016,9.0016,9.0016,9.0016,9.0016,9.0016,9.0016,9.0016,9.0016,9.0016,9.0016,9.0016,9.0016,9.0016,9.0016,9.0016,9.0016,9.0016,9.0016,9.0016,9.0016,9.0016,9.0016,9.0016,9.0016,9.0016,9.0016,9.0016,9.0016,9.0016,9.0016,9.0016,9.0016,9.0016,9.0016,9.0016,9.0016,9.0016,9.0016,9.0016,9.0016,9.0016,9.0016,6.009,6.009,6.01,6.0365,6.0441,6.0441,6.0441,6.0441,6.0441,6.0441,6.0868,6.1589,6.2749,6.4793,6.7117,6.9558,7.2063,7.4567,7.7184,7.8247,7.9159,8.0335,8.1626,8.2992,8.4436,0.0,8.6638,8.7431,8.8308,8.9185,8.9979,9.0016,9.0016,9.0016,9.0016,9.0016,9.0016,9.0016,9.0016,9.0016,9.0016,9.0016,9.0016,9.0016,9.0016,0.0,0.0,0.0,0.0,9.0016,9.0016,9.0016,9.0016,9.0016,9.0016,9.0016,9.0016,9.0016,9.0016,9.0016,9.0016,9.0016,9.0016,9.0016,9.0016,9.0016,9.0016,9.0016,9.0016,9.0016,9.0016,9.0016,9.0016,9.0016,9.0016,9.0016,9.0016,9.0016,9.0016,9.0016,9.0016,9.0016,9.0016,9.0016,9.0016,9.0016,9.0016,9.0016,9.0016,9.0016,9.0016,9.0016,9.0016,9.0016,9.0016,9.0016,9.0016,9.0016,9.0016,9.0016,9.0016,9.0016,9.0016,9.0016,9.0016,9.0016,9.0016,9.0016,9.0016,9.0016,9.0016,9.0016,6.009,6.0062,6.0251,6.102,6.1248,6.1248,6.1248,6.1248,6.1248,6.1248,6.1248,6.1779,6.3441,6.5142,6.7117,6.9596,7.2063,7.4567,7.7184,7.8247,7.9349,8.1057,8.1929,8.2764,8.3678,8.5271,8.6638,8.7394,8.8308,0.0,8.9941,8.9979,8.9979,9.0016,9.0016,9.0016,9.0016,9.0016,9.0016,9.0016,9.0016,9.0016,9.0016,9.0016,9.0016,0.0,0.0,0.0,0.0,9.0016,9.0016,9.0016,9.0016,9.0016,9.0016,9.0016,9.0016,9.0016,9.0016,9.0016,9.0016,9.0016,9.0016,9.0016,9.0016,9.0016,9.0016,9.0016,9.0016,9.0016,9.0016,9.0016,9.0016,9.0016,9.0016,9.0016,9.0016,9.0016,9.0016,9.0016,9.0016,9.0016,9.0016,9.0016,9.0016,9.0016,9.0016,9.0016,9.0016,9.0016,9.0016,9.0016,9.0016,9.0016,9.0016,9.0016,9.0016,9.0016,9.0016,9.0016,9.0016,9.0016,9.0016,9.0016,9.0016,9.0016,9.0016,9.0016,9.0016,9.0016,9.0016,9.0016,6.009,6.0479,6.0944,6.1172,6.1732,6.2179,6.2179,6.2179,6.2179,6.2179,6.2605,6.3327,6.4397,6.5946,6.7953,7.0535,7.2442,7.4567,7.7184,7.8247,7.9158,8.0297,8.1133,8.1891,8.2765,8.3866,8.5121,8.6562,8.7435,8.827,8.9105,8.9185,8.9451,8.9979,9.0016,9.0016,9.0016,9.0016,9.0016,9.0016,9.0016,9.0016,9.0016,9.0016,9.0016,9.0016,9.0016,0.0,0.0,9.0016,9.0016,9.0016,9.0016,9.0016,9.0016,9.0016,9.0016,9.0016,9.0016,9.0016,9.0016,9.0016,9.0016,9.0016,9.0016,9.0016,9.0016,9.0016,9.0016,9.0016,9.0016,9.0016,9.0016,9.0016,9.0016,9.0016,9.0016,9.0016,9.0016,9.0016,9.0016,9.0016,9.0016,9.0016,9.0016,9.0016,9.0016,9.0016,9.0016,9.0016,9.0016,9.0016,9.0016,9.0016,9.0016,9.0016,9.0016,9.0016,9.0016,9.0016,9.0016,9.0016,9.0016,9.0016,9.0016,9.0016,9.0016,9.0016,9.0016,9.0016,9.0016,9.0016,6.0441,6.0897,6.1399,6.2044,6.2643,6.3053,6.3053,6.3053,6.3053,6.3053,6.3698,6.4466,6.5301,6.6857,6.875,7.0953,7.2666,7.4567,7.7184,7.8247,7.9045,7.9955,8.0791,8.1588,8.2346,0.0,8.4323,8.565,8.6562,8.7204,8.7818,8.8118,8.865,8.9485,8.9523,8.9675,9.0016,9.0016,9.0016,9.0016,9.0016,9.0016,9.0016,9.0016,9.0016,9.0016,9.0016,0.0,0.0,9.0016,9.0016,9.0016,9.0016,9.0016,9.0016,9.0016,9.0016,9.0016,9.0016,9.0016,9.0016,9.0016,9.0016,9.0016,9.0016,9.0016,9.0016,9.0016,9.0016,9.0016,9.0016,9.0016,9.0016,9.0016,9.0016,9.0016,9.0016,9.0016,9.0016,9.0016,9.0016,9.0016,9.0016,9.0016,9.0016,9.0016,9.0016,9.0016,9.0016,9.0016,9.0016,9.0016,9.0016,9.0016,9.0016,9.0016,9.0016,9.0016,9.0016,9.0016,9.0016,9.0016,9.0016,9.0016,9.0016,9.0016,9.0016,9.0016,9.0016,9.0016,9.0016,9.0016,6.102,6.1286,6.1741,6.3365,6.382,6.3858,6.3858,6.3858,6.3896,6.3972,6.458,6.5346,6.6319,6.7839,6.9472,7.1143,7.2818,7.4757,7.7222,7.8286,7.9158,7.9993,8.0715,8.1474,8.2233,8.3107,8.3982,8.4777,8.5688,8.6182,8.6182,8.69,8.7814,8.8692,8.873,8.9109,8.9865,8.9903,8.9941,9.0016,9.0016,9.0016,9.0016,9.0016,9.0016,9.0016,9.0016,0.0,0.0,9.0016,9.0016,9.0016,9.0016,9.0016,9.0016,9.0016,9.0016,9.0016,9.0016,9.0016,9.0016,9.0016,9.0016,9.0016,9.0016,9.0016,9.0016,9.0016,9.0016,9.0016,9.0016,9.0016,9.0016,9.0016,9.0016,9.0016,9.0016,9.0016,9.0016,9.0016,9.0016,9.0016,9.0016,9.0016,9.0016,9.0016,9.0016,9.0016,9.0016,9.0016,9.0016,9.0016,9.0016,9.0016,9.0016,9.0016,9.0016,9.0016,9.0016,9.0016,9.0016,9.0016,9.0016,9.0016,9.0016,9.0016,9.0016,9.0016,8.9979,8.9903,8.9903,8.9865,6.102,6.1732,6.2521,6.3516,6.4238,6.4663,6.4663,6.4663,6.4883,6.5598,6.5863,6.6471,6.7991,6.9059,7.0312,7.1983,7.4185,7.6121,7.7374,7.8817,7.9879,8.0069,8.0221,8.0677,8.1436,8.2272,0.0,8.3982,8.4777,8.5233,8.5233,8.6068,8.6941,8.7735,8.7773,8.8194,8.9071,8.9109,8.9413,9.0016,9.0016,9.0016,9.0016,9.0016,9.0016,9.0016,9.0016,0.0,0.0,9.0016,9.0016,9.0016,9.0016,9.0016,9.0016,9.0016,9.0016,9.0016,9.0016,9.0016,9.0016,9.0016,9.0016,9.0016,9.0016,9.0016,9.0016,9.0016,9.0016,9.0016,9.0016,9.0016,9.0016,9.0016,9.0016,9.0016,9.0016,9.0016,9.0016,9.0016,9.0016,9.0016,9.0016,9.0016,9.0016,9.0016,9.0016,9.0016,9.0016,9.0016,9.0016,9.0016,9.0016,9.0016,9.0016,9.0016,9.0016,9.0016,9.0016,9.0016,9.0016,9.0016,9.0016,9.0016,9.0016,9.0016,9.0016,9.0016,8.9675,8.9109,8.9109,8.8688,6.1571,6.2217,6.2892,6.401,6.4625,6.4928,6.4928,6.4928,6.5156,6.6091,6.6585,6.7269,6.8566,6.9781,7.1034,7.2287,7.4602,7.6501,7.7412,7.9006,8.0069,8.0069,8.0069,8.0411,8.1171,8.1967,8.2802,8.3716,8.4474,8.4777,8.4398,8.5195,8.6068,8.6862,8.69,8.728,8.8194,8.8194,8.8384,8.876,8.9219,8.9409,8.9489,8.9827,9.0016,9.0016,9.0016,0.0,9.0016,9.0016,9.0016,9.0016,9.0016,9.0016,9.0016,9.0016,9.0016,9.0016,9.0016,9.0016,9.0016,9.0016,9.0016,9.0016,9.0016,9.0016,9.0016,9.0016,9.0016,9.0016,9.0016,9.0016,9.0016,9.0016,9.0016,9.0016,9.0016,9.0016,9.0016,9.0016,9.0016,9.0016,9.0016,9.0016,9.0016,9.0016,9.0016,9.0016,9.0016,9.0016,9.0016,9.0016,9.0016,9.0016,9.0016,9.0016,9.0016,9.0016,9.0016,9.0016,9.0016,9.0016,8.9827,8.9489,8.9409,8.9219,8.8802,8.8802,8.8612,8.8194,8.8194,8.7887,6.1913,6.2474,6.293,6.4359,6.4853,6.4928,6.4928,6.4928,6.5232,6.6281,6.7003,6.7769,6.8832,7.0422,7.1751,7.24,7.4716,7.6691,7.745,7.9006,8.0069,0.0,8.0069,8.0335,8.0981,8.1739,0.0,0.0,8.4056,8.4284,8.3792,8.4437,8.5157,8.603,8.6068,8.6486,8.7242,8.728,8.7356,8.7507,8.8232,8.8616,8.8616,8.9257,8.9561,8.9599,8.9713,0.0,8.9789,8.9941,9.0016,9.0016,9.0016,9.0016,9.0016,9.0016,9.0016,9.0016,9.0016,9.0016,8.9979,8.9675,8.9561,8.9561,8.9561,8.9561,8.9561,8.9561,8.9561,8.9561,8.9561,8.9561,8.9561,8.9561,8.9561,8.9561,8.9561,8.9561,8.9561,8.9561,8.9675,8.9789,8.9789,8.9903,9.0016,9.0016,9.0016,9.0016,9.0016,8.9751,8.9561,8.9561,8.9561,8.9561,8.9561,8.9561,8.9561,8.9561,8.9561,8.9561,8.9561,8.9561,8.9257,8.8616,8.8616,8.8232,8.7469,8.7469,8.7394,8.728,8.728,8.7166,6.1201,6.1989,6.2816,6.3698,6.4397,6.4928,6.4928,6.4928,6.5384,6.6971,6.7389,6.7958,6.952,7.1224,7.2362,7.2476,7.5248,7.7412,7.7526,7.9006,8.0069,8.0069,8.0069,8.0107,8.0221,8.0943,8.1474,8.1588,8.2309,8.3069,8.3754,8.3868,8.4323,8.5119,8.5119,8.5575,8.6448,8.6486,8.6786,8.7469,8.7583,8.7659,8.7659,8.7773,8.7811,8.7849,8.8612,0.0,8.9033,8.9713,9.0016,9.0016,9.0016,9.0016,9.0016,9.0016,9.0016,9.0016,9.0016,9.0016,8.9789,8.8266,8.7811,8.7811,8.7811,8.7811,8.7811,8.7811,8.7811,8.7811,8.7811,8.7811,8.7811,8.7811,8.7811,8.7811,8.7811,8.7811,8.7811,8.7811,8.846,8.8995,8.8995,8.9523,9.0016,9.0016,9.0016,9.0016,9.0016,8.8684,8.7811,8.7811,8.7811,8.7811,8.7811,8.7811,8.7811,8.7811,8.7811,8.7811,8.7811,8.7811,8.7773,8.7659,8.7659,8.7583,8.7469,8.7469,8.7128,8.6486,8.6486,8.603,6.102,6.1513,6.2036,6.2901,6.3698,6.4245,6.4245,6.4587,6.527,6.6547,6.7123,6.7845,6.9097,7.0725,7.2017,7.2438,7.4527,7.6499,7.7412,7.8589,7.95,0.0,8.0069,0.0,8.0069,8.0791,8.1246,0.0,8.155,8.193,8.2309,8.2765,8.341,8.4286,8.4284,8.4663,8.5537,8.5537,8.5726,8.6027,8.6559,8.6786,8.6824,8.728,8.7469,8.7507,0.0,8.808,8.8118,8.846,8.857,8.857,8.857,8.857,8.857,8.857,8.857,8.857,8.857,8.857,8.8456,8.7697,8.7469,8.7469,8.7469,8.7469,8.7469,8.7469,8.7469,8.7469,8.7469,8.7469,8.7469,8.7469,8.7469,8.7469,8.7469,8.7469,8.7469,8.7469,8.7814,8.808,8.808,8.8342,8.857,8.857,8.857,8.857,8.857,8.7925,8.7469,8.7469,8.7469,8.7469,8.7469,8.7469,8.7469,8.7469,8.7469,8.7469,8.7469,8.7469,8.728,8.6865,8.6786,8.6559,8.6027,8.6027,8.5878,8.5537,8.5537,8.5347,6.0783,6.1096,6.1399,6.2065,6.2863,6.3471,6.3471,6.4086,6.4883,6.5788,6.6585,6.7465,6.8604,7.0004,7.1333,7.2325,7.3916,0.0,7.6994,7.8058,0.0,7.969,0.0,8.0069,8.0069,8.0639,0.0,0.0,8.0943,8.1019,8.1246,8.1777,8.2498,8.3373,8.341,8.3714,8.4322,8.4549,8.4739,8.4967,8.565,8.5954,8.5992,8.6559,8.6824,8.6862,8.709,8.7166,8.7166,8.7394,8.7469,8.7469,8.7469,8.7469,8.7469,8.7469,8.7469,8.7431,8.6976,8.6824,8.6824,8.6824,8.6824,8.6824,8.6824,8.6824,8.6824,8.6824,8.6824,8.6824,8.6824,8.6824,8.6824,8.6824,8.6824,8.6824,8.6824,8.6824,8.6824,8.6824,8.6824,8.69,8.7128,8.7356,8.7469,8.7469,8.7469,8.7318,8.6862,8.6824,8.6824,8.6824,8.6824,8.6824,8.6824,8.6824,8.6824,8.6824,8.6824,8.6824,8.6824,8.6824,8.6559,8.5954,8.5954,8.5612,8.4967,8.4967,8.4967,8.4967,8.4967,8.4967,6.0128,6.0669,6.1248,6.1286,6.1989,6.2664,6.2664,6.3243,6.4048,6.4815,6.575,6.6851,6.849,0.0,7.0583,7.2249,7.3916,7.5321,7.6159,7.7716,7.8741,0.0,0.0,0.0,0.0,0.0,0.0,8.0145,0.0,8.0487,8.1208,8.1284,8.1702,8.246,8.2498,8.2498,8.2574,8.341,8.417,8.4967,8.5005,8.5005,8.5005,8.5081,8.5081,8.5119,8.5992,8.6372,8.641,8.7166,8.7469,8.7469,8.7469,8.7469,8.7469,8.7469,8.7469,8.7242,8.561,8.5081,8.5081,8.5081,8.5081,8.5081,8.5081,8.5081,8.5081,8.5081,8.5081,8.5081,8.5081,8.5081,8.5081,8.5081,8.5081,8.5081,8.5081,8.5081,8.5081,8.5081,8.5081,8.5347,8.622,8.6976,8.7469,8.7469,8.7469,8.69,8.5268,8.5081,8.5081,8.5081,8.5081,8.5081,8.5081,8.5081,8.5081,8.5081,8.5081,8.5081,8.5081,8.5081,8.5081,8.5005,8.5005,8.5005,8.4967,8.4967,8.4967,8.4967,8.4967,8.4967,5.9938,6.0251,6.0479,6.0479,6.1087,6.1732,6.1732,6.2407,6.3243,6.401,6.4845,6.5794,6.6965,6.83,6.9591,7.0697,7.2287,7.3916,7.5245,7.6425,7.7489,7.859,7.9044,7.9424,0.0,0.0,0.0,8.0069,8.0069,8.0221,8.0487,8.0487,8.0867,8.1625,8.1663,8.1891,8.2422,8.2726,8.303,8.3333,8.3904,8.421,8.417,8.4701,8.4967,8.4967,8.5309,8.5423,8.5461,8.5764,8.5838,8.5838,8.5838,8.5838,8.5838,8.5838,8.5838,8.561,8.3902,8.3333,8.3333,8.3333,8.3333,8.3409,8.4018,8.421,8.4323,8.4815,8.4967,8.4967,8.4967,8.4967,8.4967,8.4967,8.4967,8.4967,8.4967,8.4967,8.4967,8.4967,8.4967,8.5043,8.5385,8.5688,8.5838,8.5838,8.5838,8.565,8.5043,8.4967,8.4967,8.4967,8.4967,8.4967,8.4967,8.4967,8.4967,8.4967,8.4474,8.421,8.421,8.3599,8.3333,8.3333,8.3333,8.3333,8.3333,8.3333,8.3333,8.3333,8.3333,8.3333,5.9064,5.9216,5.9292,5.9558,5.9986,6.0451,6.0754,6.1504,6.2293,6.2795,6.3592,6.4466,6.5636,6.6744,6.8072,6.971,7.0958,7.2249,7.3954,7.5096,7.6197,7.7374,7.821,0.0,0.0,0.0,0.0,7.9614,7.9917,8.0069,8.0069,8.0069,8.0335,8.0867,8.0867,8.1095,8.1626,8.1891,8.2005,8.2043,8.2917,8.3297,8.3335,8.3866,8.4092,8.4092,8.4092,8.4092,8.4092,8.4092,8.4092,8.4092,8.4092,8.4092,8.4092,8.4092,8.4092,8.3902,8.2802,8.2422,8.2422,8.2422,8.2422,8.2536,8.3145,8.3297,8.341,8.398,8.4092,8.4092,8.4092,8.4092,8.417,8.4474,8.4549,8.4625,8.4891,8.4967,8.4967,8.4967,8.4967,8.4967,8.4967,8.4967,8.4967,8.4967,8.4967,8.4739,8.417,8.4092,8.4092,8.4092,8.4092,8.4092,8.4092,8.4092,8.4092,8.4092,8.36,8.3297,8.3297,8.2726,8.2422,8.2422,8.2422,8.2422,8.2422,8.2422,8.2422,8.2422,8.2422,8.2422,5.7458,5.7458,5.7648,5.8429,5.8619,5.8847,5.9758,6.0593,6.1172,6.121,6.1884,6.3015,6.4587,6.4891,6.5998,6.9292,6.9938,7.0545,7.2211,7.3878,7.498,7.5053,7.7146,7.8628,0.0,7.8628,7.8666,7.8704,7.95,8.0031,8.0031,8.0069,8.0069,8.0069,8.0069,8.0069,8.0069,8.0867,8.1208,8.1246,8.1967,8.2384,8.2384,8.2384,8.2422,8.2422,8.2422,8.2422,8.2422,8.2422,8.2422,8.2422,8.2422,8.2422,8.2422,8.2384,8.2346,8.2346,8.2346,8.2346,8.2346,8.2346,8.2346,8.2384,8.2384,8.2384,8.2384,8.2422,8.2422,8.2422,8.2422,8.2422,8.265,8.3526,8.3754,8.3944,8.4701,8.4891,8.4891,8.4891,8.4891,8.4891,8.4891,8.4891,8.4891,8.4891,8.4891,8.4284,8.265,8.2422,8.2422,8.2422,8.2422,8.2422,8.2422,8.2422,8.2422,8.2422,8.2422,8.2384,8.2384,8.2384,8.2346,8.2346,8.2346,8.2346,8.2346,8.2346,8.2346,8.2346,8.2346,8.2346,5.5532,5.5722,5.5912,5.6683,5.6884,5.7138,5.8001,5.8837,5.9606,6.0251,6.1049,6.1922,6.3053,6.4162,6.5232,6.6181,6.8382,7.0127,7.0621,7.2135,7.365,7.4866,7.5625,7.6045,7.6045,7.6577,7.7184,7.783,7.8665,7.9083,7.9083,7.9727,8.0069,8.0069,8.0069,8.0069,8.0069,8.0297,8.0411,8.0411,8.0639,8.1019,8.1588,8.1588,8.1853,8.2422,8.2422,8.2422,8.2422,8.2422,8.2422,8.2422,8.2422,8.2422,8.2271,8.1133,8.0715,8.0715,8.0715,8.0715,8.0715,8.0715,8.0715,8.0867,8.1398,8.1588,8.1702,8.2271,8.2422,8.2422,8.2422,8.2422,8.2498,8.2726,8.2764,8.284,8.3068,8.3105,8.3105,8.3105,8.3105,8.3105,8.3105,8.3105,8.3105,8.3105,8.3105,8.2954,8.2498,8.2422,8.2422,8.2422,8.2422,8.2422,8.2422,8.2422,8.2422,8.2422,8.1891,8.1588,8.1588,8.1019,8.0715,8.0715,8.0715,8.0715,8.0715,8.0715,8.0715,8.0715,8.0715,8.0715,5.2696,5.2899,5.3165,5.4341,5.4645,5.4948,5.6178,5.7089,5.7822,5.8353,5.9378,6.0441,6.1343,6.2529,6.36,0.0,6.6371,6.8002,6.8376,7.0198,7.1831,7.278,7.2894,7.308,7.3457,7.4828,7.5929,7.6461,7.7564,7.821,7.821,7.8741,7.9196,7.95,7.95,7.9727,8.0069,8.0069,8.0069,8.0069,8.0069,8.0335,8.0791,8.0791,8.1019,8.1436,8.1436,8.1436,8.1436,8.1436,8.1436,8.1436,8.1436,8.1436,8.1322,8.0411,8.0069,8.0069,8.0069,8.0069,8.0069,8.0069,8.0069,8.0145,8.0639,8.0791,8.0867,8.1322,8.1436,8.1436,8.1436,8.1436,8.155,8.1853,8.1929,8.2005,8.2346,8.2422,8.2422,8.2422,8.2422,8.2422,8.2422,8.2422,8.2195,8.155,8.1436,8.1436,8.1436,8.1436,8.1436,8.1436,8.1436,8.1436,8.1436,8.1436,8.1436,8.1436,8.1019,8.0791,8.0791,8.0335,8.0069,8.0069,7.9727,7.95,7.95,7.9196,7.9044,7.9044,7.9044,7.8816,4.9498,4.9664,5.0044,5.1685,5.2064,5.2482,0.0,0.0,5.5783,5.5783,5.7214,5.8657,5.9454,6.0441,6.1589,6.3099,6.4162,6.508,6.6015,6.811,6.952,6.9444,6.952,7.0009,7.1067,7.3191,7.4562,7.4714,7.6197,7.7184,7.726,7.7336,7.7792,7.8552,7.859,7.9006,7.9803,7.9879,7.9917,7.9917,8.0031,8.0069,8.0069,8.0069,8.0069,8.0069,8.0069,8.0069,8.0069,8.0069,8.0069,8.0069,8.0069,7.9955,7.9803,7.9803,7.9803,7.9803,7.9803,7.9803,7.9803,7.9803,7.9841,7.9917,7.9917,7.9993,8.0069,8.0069,8.0069,8.0069,8.0069,8.0069,8.0259,8.0943,8.1133,8.1322,8.2005,8.2157,8.2157,8.2157,8.2157,8.2157,8.2157,8.2157,8.1663,8.0297,8.0069,8.0069,8.0069,8.0069,8.0069,8.0069,8.0069,8.0069,8.0069,8.0069,8.0069,8.0069,8.0069,8.0031,7.9917,7.9917,7.9879,7.9803,7.9006,7.859,7.859,7.7792,7.7412,7.7412,7.7298,7.6691,0.0,0.0,0.0,0.0,0.0,0.0,0.0,0.0,5.3203,5.3203,5.5062,5.6732,5.6884,5.8771,6.0403,6.0736,6.2567,6.4276,6.508,6.6212,6.6737,6.5991,6.6554,6.7877,7.0047,7.0659,7.1527,7.2894,7.3884,7.4719,7.5473,7.6121,7.688,7.7754,7.7792,7.7867,7.8019,7.8666,7.9006,7.8969,7.9765,8.0069,8.0069,8.0069,8.0069,8.0069,8.0069,8.0069,8.0069,8.0069,8.0069,8.0069,8.0069,7.9234,7.8019,7.8019,7.8019,7.8019,7.8019,7.8019,7.8019,7.8019,7.8475,7.9006,7.9006,7.95,8.0069,8.0069,8.0069,8.0069,8.0069,8.0069,8.0107,8.0259,8.0297,8.0335,8.0525,8.0563,8.0563,8.0563,8.0563,8.0563,8.0563,8.0563,8.0449,8.0107,8.0069,8.0069,8.0069,8.0069,8.0069,8.0069,8.0069,8.0069,8.0069,8.0069,8.0069,8.0069,8.0069,7.9765,7.9007,7.9006,7.8703,7.8057,7.7867,7.7792,7.7792,7.688,7.6463,7.6463,7.5815,7.4334,0.0,0.0,0.0,0.0,0.0,0.0,0.0,0.0,0.0,0.0,0.0,5.4455,0.0,0.0,5.8391,5.9226,6.0783,6.2188,6.2955,6.42,6.4724,6.3858,6.4534,6.5674,6.7319,6.823,6.9249,7.054,7.1793,7.2666,7.3191,7.3919,7.4754,7.5628,7.6045,7.6499,7.688,7.7679,7.8171,7.8171,7.8626,7.8816,7.8816,7.8816,7.8816,7.8816,7.8816,7.8816,7.8816,7.8816,7.8816,7.8816,7.8816,7.8285,7.7564,7.7564,7.7564,7.7564,7.7564,7.7564,7.7564,7.7564,7.783,7.8171,7.8171,7.8475,7.8816,7.8816,7.8816,7.8816,7.8816,7.912,7.9386,7.9386,7.9765,8.0069,8.0069,8.0069,8.0069,8.0069,8.0069,8.0069,8.0069,8.0069,8.0069,8.0069,8.0069,8.0069,8.0069,8.0069,8.0069,8.0069,8.0069,8.0069,8.0069,8.0069,8.0069,8.0069,7.969,7.9044,7.8209,7.7716,7.7298,7.688,7.6009,7.5592,7.5592,7.4375,7.3764,7.3726,7.1148,6.9743,0.0,0.0,0.0,0.0,0.0,0.0,0.0,0.0,0.0,0.0,0.0,0.0,0.0,0.0,0.0,5.7545,5.8619,5.972,6.083,6.1884,6.2445,6.2132,6.2757,6.3668,6.4587,6.5946,6.7161,6.8256,6.9586,7.0531,7.0801,7.1447,7.2249,7.3201,7.3954,7.4714,7.5476,7.6387,7.6804,7.6804,0.0,0.0,7.7298,7.7488,7.7564,7.7564,7.7564,7.7564,7.7564,7.7564,7.7564,7.7488,7.6842,7.6577,7.6577,7.6577,7.6577,7.6577,7.6577,7.6577,7.6577,7.6577,7.6691,7.6804,7.6804,7.6918,0.0,7.707,7.7184,7.7298,7.7298,7.7905,7.8514,7.8514,7.9044,7.9576,7.9576,7.9576,7.9652,7.9803,7.9841,7.9879,8.0031,7.9803,7.9652,7.9803,7.969,7.9727,8.0031,7.9917,7.9879,8.0069,8.0069,7.9993,7.9841,7.9993,7.9955,7.9614,7.9044,7.821,7.7108,7.6197,7.559,7.5248,7.3919,7.3125,7.2973,7.1337,7.0573,7.0459,6.51,6.3461,0.0,0.0,0.0,0.0,0.0,0.0,0.0,0.0,0.0,0.0,0.0,0.0,0.0,0.0,0.0,0.0,5.5646,5.7453,5.9834,5.9064,5.8788,6.0204,6.1049,6.215,6.3744,6.4078,6.4838,6.6433,6.6769,6.7497,6.9016,0.0,0.0,0.0,0.0,7.2131,7.2894,7.3694,7.4112,7.415,7.5665,7.6349,7.6387,7.7184,7.7564,7.7564,7.7564,7.7564,7.7564,7.7564,7.7564,7.726,7.4261,7.3084,7.3084,7.3084,7.3084,7.3084,7.3084,0.0,0.0,7.3084,7.3505,7.4112,7.4112,7.4678,7.5321,7.5321,7.5779,7.6349,7.6349,7.7032,7.7678,7.7678,7.7754,7.783,7.783,7.783,7.8057,7.8741,7.8855,7.9158,7.9955,7.8854,7.8095,7.8779,7.8285,7.8398,7.9879,7.9386,7.9196,7.9993,0.0,0.0,7.8931,7.9652,7.9424,7.798,7.8362,7.7679,7.5397,7.4451,7.3312,7.1937,7.1709,7.1186,7.0393,6.8718,6.7915,6.7678,5.8604,5.4855,0.0,0.0,0.0,0.0,0.0,0.0,0.0,0.0,0.0,0.0,0.0,0.0,0.0,0.0,0.0,0.0,5.3607,5.4417,5.548,5.5912,5.652,5.767,5.8933,6.0251,6.1466,6.2036,6.2795,6.4032,6.4534,6.5142,6.5832,6.6813,6.7649,6.8403,6.9358,7.0042,7.035,7.1675,7.2287,7.2325,7.3501,7.4033,7.4071,7.4451,7.4602,0.0,7.4602,7.4602,7.4602,7.4602,7.4602,0.0,0.0,0.0,0.0,0.0,7.1038,7.1038,7.1038,7.1038,7.1038,7.1038,7.1266,7.1531,7.1531,7.1797,7.2097,7.2097,7.2739,7.3384,7.3384,7.4337,7.5324,7.5324,7.5703,7.6233,7.6653,7.6766,7.7032,7.7905,7.8057,0.0,7.7259,7.6575,7.6385,7.711,7.6994,7.7222,7.8474,7.8285,7.8209,7.8551,7.8626,7.8437,7.8095,7.8399,0.0,0.0,0.0,7.5855,7.4299,7.3008,0.0,0.0,0.0,0.0,0.0,0.0,0.0,0.0,5.1942,5.0176,0.0,0.0,0.0,0.0,0.0,0.0,0.0,0.0,0.0,0.0,0.0,0.0,0.0,0.0,0.0,0.0,0.0,5.1698,5.1495,5.2924,5.4367,5.543,5.6997,5.8353,5.9292,5.9872,6.0669,6.1828,6.2407,6.2947,6.3433,6.4572,6.5401,6.556,6.6775,6.7503,6.7731,6.9206,6.9961,6.9961,7.0991,7.1489,7.1489,7.1717,7.1831,7.1831,7.1831,7.1831,7.1831,7.1831,7.1831,7.1603,6.9444,6.8609,6.8609,6.8609,6.8609,6.8609,6.8609,6.8609,6.8609,6.8609,6.8609,6.8609,6.8609,6.8609,6.8609,6.8609,6.9401,7.027,7.027,7.1451,7.267,7.267,7.316,7.3878,7.4678,7.483,7.5172,7.6273,7.5931,7.5096,7.3843,7.384,7.4258,7.5058,7.5172,0.0,7.6727,7.6842,7.6918,7.7146,7.7412,7.7374,7.688,7.7032,7.6615,7.5286,7.464,7.3805,7.2708,7.111,6.9282,6.7193,6.3791,6.1172,0.0,0.0,0.0,0.0,0.0,0.0,0.0,0.0,0.0,0.0,0.0,0.0,0.0,0.0,0.0,0.0,0.0,0.0,0.0,0.0,0.0,0.0,0.0,0.0,4.9022,5.039,5.2062,5.3734,5.5278,5.658,5.7534,5.7648,5.837,6.0014,6.0166,6.0888,6.255,6.2664,6.3082,6.382,6.3896,6.4276,6.5042,6.5977,6.6465,6.6465,6.8142,6.8908,6.8946,6.971,7.0051,7.0051,7.0051,7.0051,7.0051,7.0051,7.0051,6.971,6.6408,6.508,6.508,6.508,6.508,6.508,6.508,6.508,6.508,6.508,6.508,6.508,6.508,6.508,6.508,6.508,6.6295,6.7579,6.7579,6.8832,7.0089,7.0089,7.0127,7.0355,7.1295,7.1519,7.1941,7.3505,7.1873,7.0203,7.0165,7.0877,7.1747,7.2476,7.2628,0.0,7.4866,7.5093,7.5397,7.6159,7.7032,7.688,7.5245,7.5779,7.521,7.278,7.259,7.1831,7.0165,6.849,6.7193,6.6351,6.4594,6.1514,5.7051,0.0,0.0,0.0,0.0,0.0,0.0,0.0,0.0,0.0,0.0,0.0,0.0,0.0,0.0,0.0,0.0,0.0,0.0,0.0,0.0,0.0,0.0,0.0,0.0,0.0,4.9858,5.0428,5.2393,5.3848,5.4177,5.5228,5.633,5.7377,5.7491,5.8011,5.9168,5.971,6.0432,6.1305,6.1808,6.2491,6.3395,6.4192,6.461,6.461,6.5718,6.6219,6.6257,6.6522,6.6636,6.6636,6.6636,6.6636,6.6636,6.6636,6.5991,6.499,6.3812,6.3395,6.3395,6.3395,6.3395,6.3395,6.3395,6.3395,6.3027,6.087,6.0168,6.0168,6.0168,5.8708,5.7944,6.2179,6.2689,6.2385,6.4437,6.4297,6.406,6.6125,6.505,6.4489,6.7994,6.8756,6.9249,7.0924,6.5374,6.118,6.3621,6.4431,6.4423,6.339,6.7541,7.0415,6.9258,7.1584,7.3463,7.3729,7.4033,7.3957,7.3388,7.3118,7.2397,7.0958,7.035,6.9287,6.7611,6.6402,6.5415,6.4648,6.0498,5.642,5.2467,0.0,0.0,0.0,0.0,0.0,0.0,0.0,0.0,0.0,0.0,0.0,0.0,0.0,0.0,0.0,0.0,0.0,0.0,0.0,0.0,0.0,0.0,0.0,0.0,0.0,0.0,4.7844,4.9834,0.0,5.1547,5.2558,5.3544,5.4379,5.4721,5.5278,5.6166,5.6975,5.7784,5.8657,5.916,5.9872,6.0764,6.1875,6.2415,6.2453,6.3554,6.4086,6.4086,6.4086,6.4086,6.4086,6.4086,6.4086,6.401,6.2795,6.1073,5.9202,5.9202,5.8558,5.776,5.8523,5.8794,5.8749,5.8575,5.8492,5.7999,5.4908,5.3918,5.3918,5.3918,5.2693,5.2098,5.6234,5.6685,5.6665,5.9979,5.9129,5.82,6.1558,6.0835,6.0294,6.3759,6.4494,6.4642,6.5188,5.9568,5.5777,5.9267,5.9297,5.8412,5.7173,6.163,6.4952,6.4485,6.7269,6.9796,7.1051,7.1451,7.1016,6.9457,6.9986,6.9399,6.6953,6.7208,6.682,6.5446,6.3972,6.235,6.0601,5.6324,5.2357,0.0,0.0,0.0,0.0,0.0,0.0,0.0,0.0,0.0,0.0,0.0,0.0,0.0,0.0,0.0,0.0,0.0,0.0,0.0,0.0,0.0,0.0,0.0,0.0,0.0,0.0,0.0,4.5922,4.7374,0.0,0.0,0.0,0.0,5.0957,5.1788,5.2646,5.343,5.4303,5.5126,5.5973,5.6011,5.6455,5.7382,5.9064,5.99,5.9872,6.1533,6.2322,6.2322,6.2322,6.2322,6.2322,6.2322,6.2322,6.2094,5.8612,5.555,5.2948,5.2802,5.1068,4.8926,5.0827,5.1564,5.1513,5.0998,5.0832,5.0399,4.7798,4.6825,4.669,4.669,4.704,0.0,0.0,4.8795,5.0572,5.4226,5.3436,5.2589,5.6356,5.7135,5.7319,5.8394,5.8666,5.8239,0.0,5.4282,5.3384,5.6508,0.0,5.3776,5.3621,5.513,5.7364,6.0422,6.2201,6.447,6.783,6.904,6.7863,6.3548,6.6381,6.6268,6.1262,6.3057,6.4032,6.3382,6.092,5.7931,5.4495,5.2148,0.0,0.0,0.0,0.0,0.0,0.0,0.0,0.0,0.0,0.0,0.0,0.0,0.0,0.0,0.0,0.0,0.0,0.0,0.0,0.0,0.0,0.0,0.0,0.0,0.0,0.0,4.013,4.1612,4.2405,4.2035,4.2877,0.0,0.0,0.0,0.0,0.0,0.0,4.8416,5.0195,5.1926,5.3392,5.343,5.4177,5.5646,5.6683,5.7149,5.7187,5.8305,5.8826,5.8826,5.8826,5.8826,5.8826,5.8826,5.8826,5.8508,5.447,5.2313,5.1385,4.8943,4.7558,4.6924,4.7079,4.7125,4.7092,4.7002,4.6934,4.6831,4.6096,0.0,4.226,4.226,0.0,0.0,0.0,0.0,4.4614,4.8306,4.7377,4.6292,4.967,4.9015,4.8483,5.1733,5.274,5.2312,0.0,4.5931,4.3828,4.7071,0.0,0.0,0.0,0.0,5.42,5.2545,5.5775,5.8548,5.9461,6.2402,6.2673,5.8549,6.082,6.1637,5.9731,5.7414,5.6599,5.7611,5.4463,5.1554,4.9061,0.0,0.0,0.0,0.0,0.0,0.0,0.0,0.0,0.0,0.0,0.0,0.0,0.0,0.0,0.0,0.0,0.0,0.0,0.0,0.0,0.0,0.0,0.0,0.0,0.0,0.0,0.0,3.6249,3.7346,3.7398,3.7048,3.7717,0.0,0.0,0.0,0.0,0.0,0.0,0.0,0.0,0.0,4.7332,4.7593,4.838,4.9707,5.1522,5.2623,5.3044,5.501,5.609,5.6406,5.6406,5.6406,5.6406,5.6406,5.5018,5.2498,5.0065,4.7685,4.5404,0.0,0.0,0.0,0.0,4.1911,4.188,4.1566,4.1333,0.0,0.0,0.0,0.0,0.0,0.0,0.0,0.0,0.0,0.0,0.0,0.0,0.0,4.4381,4.4273,4.3972,4.6259,4.5272,4.3925,0.0,4.0793,3.9175,4.246,0.0,0.0,0.0,0.0,0.0,4.7954,5.0692,5.3213,5.4774,5.6946,5.6759,5.2924,5.5396,5.6144,5.3774,5.269,5.2246,5.2619,4.982,4.6864,0.0,0.0,0.0,0.0,0.0,0.0,0.0,0.0,0.0,0.0,0.0,0.0,0.0,0.0,0.0,0.0,0.0,0.0,0.0,0.0,0.0,0.0,0.0,0.0,0.0,0.0,0.0,0.0,0.0,3.2697,3.2216,0.0,0.0,0.0,0.0,0.0,0.0,0.0,0.0,0.0,0.0,0.0,0.0,0.0,4.1411,4.2167,4.5205,4.7136,4.8069,5.0993,5.2744,5.3417,5.3417,5.3571,5.3829,5.3321,0.0,4.5996,4.5293,0.0,0.0,0.0,0.0,0.0,0.0,0.0,0.0,0.0,0.0,0.0,0.0,0.0,0.0,0.0,0.0,0.0,0.0,0.0,0.0,0.0,0.0,3.6351,3.9724,4.0919,4.1186,0.0,3.7571,3.5473,3.8236,0.0,0.0,0.0,0.0,0.0,0.0,0.0,0.0,4.5046,4.6324,4.8136,5.1268,5.2072,5.0929,4.7348,5.0248,5.0586,4.6673,4.8287,4.8938,4.787,4.5645,0.0,0.0,0.0,0.0,0.0,0.0,0.0,0.0,0.0,0.0,0.0,0.0,0.0,0.0,0.0,0.0,0.0,0.0,0.0,0.0,0.0,0.0,0.0,0.0,0.0,0.0,0.0,0.0,0.0,0.0,0.0,0.0,0.0,0.0,0.0,0.0,0.0,0.0,0.0,0.0,0.0,0.0,0.0,0.0,0.0,0.0,0.0,0.0,0.0,0.0,4.4223,4.494,4.5041,4.5041,4.6104,4.7785,4.4423,4.3247,4.3411,0.0,0.0,0.0,0.0,0.0,0.0,0.0,0.0,0.0,0.0,0.0,0.0,0.0,0.0,0.0,0.0,0.0,0.0,0.0,0.0,0.0,0.0,0.0,0.0,0.0,3.5257,3.5099,0.0,0.0,0.0,0.0,0.0,0.0,0.0,0.0,0.0,0.0,0.0,0.0,4.1104,4.1851,4.2653,4.379,4.68,4.7167,4.3334,4.6124,4.7259,4.5331,4.2747,4.1777,0.0,0.0,0.0,0.0,0.0,0.0,0.0,0.0,0.0,0.0,0.0,0.0,0.0,0.0,0.0,0.0,0.0,0.0,0.0,0.0,0.0,0.0,0.0,0.0,0.0,0.0,0.0,0.0,0.0,0.0,0.0,0.0,0.0,0.0,0.0,0.0,0.0,0.0,0.0,0.0,0.0,0.0,0.0,0.0,0.0,0.0,0.0,0.0,0.0,0.0,0.0,0.0,0.0,0.0,0.0,0.0,0.0,0.0,0.0,3.6391,0.0,0.0,0.0,0.0,0.0,0.0,0.0,0.0,0.0,0.0,0.0,0.0,0.0,0.0,0.0,0.0,0.0,0.0,0.0,0.0,0.0,0.0,0.0,0.0,0.0,0.0,0.0,0.0,0.0,0.0,0.0,0.0,0.0,0.0,0.0,0.0,0.0,0.0,0.0,0.0,3.8802,3.992,4.0726,4.1042,4.2993,4.3411,4.1274,4.2573,4.2967,4.1666,3.9296,0.0,0.0,0.0,0.0,0.0,0.0,0.0,0.0,0.0,0.0,0.0,0.0,0.0,0.0,0.0,0.0,0.0,0.0,0.0,0.0,0.0,0.0,0.0,0.0,0.0,0.0,0.0,0.0,0.0,0.0,0.0,0.0,0.0,0.0,0.0,0.0,0.0,0.0,0.0,0.0,0.0,0.0,0.0,0.0,0.0,0.0,0.0,0.0,0.0,0.0,0.0,0.0,0.0,0.0,0.0,0.0,0.0,0.0,0.0,3.5004,0.0,0.0,0.0,0.0,0.0,0.0,0.0,0.0,0.0,0.0,0.0,0.0,0.0,0.0,0.0,0.0,0.0,0.0,0.0,0.0,0.0,0.0,0.0,0.0,0.0,0.0,0.0,0.0,0.0,0.0,0.0,0.0,0.0,0.0,0.0,0.0,0.0,0.0,0.0,0.0,0.0,3.7401,3.8776,3.9794,4.0024,4.0409,4.0457,4.0076,3.992,3.9426,3.8386,0.0,0.0,0.0,0.0,0.0,0.0,0.0,0.0,0.0,0.0,0.0,0.0,0.0,0.0,0.0,0.0,0.0,0.0,0.0,0.0,0.0,0.0,0.0,0.0,0.0,0.0,0.0,0.0,0.0,0.0,0.0,0.0,0.0,0.0,0.0,0.0,0.0,0.0,0.0,0.0,0.0,0.0,0.0,0.0,0.0,0.0,0.0,0.0,0.0,0.0,0.0,0.0,0.0,0.0,0.0,0.0,0.0,0.0,0.0,0.0,0.0,0.0,0.0,0.0,0.0,0.0,0.0,0.0,0.0,0.0,0.0,0.0,0.0,0.0,0.0,0.0,0.0,0.0,0.0,0.0,0.0,0.0,0.0,0.0,0.0,0.0,0.0,0.0,0.0,0.0,0.0,0.0,0.0,0.0,0.0,0.0,0.0,0.0,0.0,0.0,0.0,0.0,3.6616,3.7477,3.8308,3.9234,3.9389,3.9415,3.9363,3.89,3.8412,3.7817,0.0,0.0,0.0,0.0,0.0,0.0,0.0,0.0,0.0,0.0,0.0,0.0,0.0,0.0,0.0,0.0,0.0,0.0,0.0,0.0,0.0,0.0,0.0,0.0,0.0,0.0,0.0,0.0,0.0,0.0,0.0,0.0,0.0,0.0,0.0,0.0,0.0,0.0,0.0,0.0,0.0,0.0,0.0,0.0,0.0,0.0,0.0,0.0,0.0,0.0,0.0,0.0,0.0,0.0,0.0,0.0,0.0,0.0,0.0,0.0,0.0,0.0,0.0,0.0,0.0,0.0,0.0,0.0,0.0,0.0,0.0,0.0,0.0,0.0,0.0,0.0,0.0,0.0,0.0,0.0,0.0,0.0,0.0,0.0,0.0,0.0,0.0,0.0,0.0,0.0,0.0,0.0,0.0,0.0,0.0,0.0,0.0,0.0,0.0,0.0,0.0,0.0,3.5085,3.6332,3.7423,3.8228,3.8588,3.8666,3.8358,3.8127,3.7321,3.571,0.0,0.0,0.0,0.0,0.0,0.0,0.0,0.0,0.0,0.0,0.0,0.0,0.0,0.0,0.0,0.0,0.0,0.0,0.0,0.0,0.0,0.0,0.0,0.0,0.0,0.0,0.0,0.0,0.0,0.0,0.0,0.0,0.0,0.0,0.0,0.0,0.0,0.0,0.0,0.0,0.0,0.0,0.0,0.0,0.0,0.0,0.0,0.0,0.0,0.0,0.0,0.0,0.0,0.0,0.0,0.0,0.0,0.0,0.0,0.0,0.0,0.0,0.0,0.0,0.0,0.0,0.0,0.0,0.0,0.0,0.0,0.0,0.0,0.0,0.0,0.0,0.0,0.0,0.0,0.0,0.0,0.0,0.0,0.0,0.0,0.0,0.0,0.0,0.0,0.0,0.0,0.0,0.0,0.0,0.0,0.0,0.0,0.0,0.0,0.0,0.0,0.0,3.3864,3.5164,3.6306,3.7115,3.7529,3.7607,3.7245,3.6881,3.597,3.4306,0.0,0.0,0.0,0.0,0.0,0.0,0.0,0.0,0.0,0.0,0.0,0.0,0.0,0.0,0.0,0.0,0.0,0.0,0.0,0.0,0.0,0.0,0.0,0.0,0.0,0.0,0.0,0.0,0.0,0.0,0.0,0.0,0.0,0.0,0.0,0.0,0.0,0.0,0.0,0.0,0.0,0.0,0.0,0.0,0.0,0.0,0.0,0.0,0.0,0.0,0.0,0.0,0.0,0.0,0.0,0.0,0.0,0.0,0.0,0.0,0.0,0.0,0.0,0.0,0.0,0.0,0.0,0.0,0.0,0.0,0.0,0.0,0.0,0.0,0.0,0.0,0.0,0.0,0.0,0.0,0.0,0.0,0.0,0.0,0.0,0.0,0.0,0.0,0.0,0.0,0.0,0.0,0.0,0.0,0.0,0.0,0.0,0.0,0.0,0.0,0.0,0.0,3.3212,3.389,3.467,3.5865,3.5968,3.5968,3.5995,3.4904,3.4228,0.0,0.0,0.0,0.0,0.0,0.0,0.0,0.0,0.0,0.0,0.0,0.0,0.0,0.0,0.0,0.0,0.0,0.0,0.0,0.0,0.0,0.0,0.0,0.0,0.0,0.0,0.0,0.0,0.0,0.0,0.0,0.0,0.0,0.0,0.0,0.0,0.0,0.0,0.0,0.0,0.0,0.0,0.0,0.0,0.0,0.0,0.0,0.0,0.0,0.0,0.0,0.0,0.0,0.0,0.0,0.0,0.0,0.0,0.0,0.0,0.0,0.0,0.0,0.0,0.0,0.0,0.0,0.0,0.0,0.0,0.0,0.0,0.0,0.0,0.0,0.0,0.0,0.0,0.0,0.0,0.0,0.0,0.0,0.0,0.0,0.0,0.0,0.0,0.0,0.0,0.0,0.0,0.0,0.0,0.0,0.0,0.0,0.0,0.0,0.0,0.0,0.0,0.0,3.2119,3.2695,3.3474,0.0,3.4436,3.4384,3.4722,3.4098,3.3342,3.2537,0.0,0.0,0.0,0.0,0.0,0.0,0.0,0.0,0.0,0.0,0.0,0.0,0.0,0.0,0.0,0.0,0.0,0.0,0.0,0.0,0.0,0.0,0.0,0.0,0.0,0.0,0.0,0.0,0.0,0.0,0.0,0.0,0.0,0.0,0.0,0.0,0.0,0.0,0.0,0.0,0.0,0.0,0.0,0.0,0.0,0.0,0.0,0.0,0.0,0.0,0.0,0.0,0.0,0.0,0.0,0.0,0.0,0.0,0.0,0.0,0.0,0.0,0.0,0.0,0.0,0.0,0.0,0.0,0.0,0.0,0.0,0.0,0.0,0.0,0.0,0.0,0.0,0.0,0.0,0.0,0.0,0.0,0.0,0.0,0.0,0.0,0.0,0.0,0.0,0.0,0.0,0.0,0.0,0.0,0.0,0.0,0.0,0.0,0.0,0.0,0.0,0.0,0.0,3.1967,3.2514,0.0,3.3241,3.3213,3.3526,3.3082,3.2457,3.1731,0.0,0.0,0.0,0.0,0.0,0.0,0.0,0.0,0.0,0.0,0.0,0.0,0.0,0.0,0.0,0.0,0.0,0.0,0.0,0.0,0.0,0.0,0.0,0.0,0.0,0.0,0.0,0.0,0.0,0.0,0.0,0.0,0.0,0.0,0.0,0.0,0.0,0.0,0.0,0.0,0.0,0.0,0.0,0.0,0.0,0.0,0.0,0.0,0.0,0.0,0.0,0.0,0.0,0.0,0.0,0.0,0.0,0.0,0.0,0.0,0.0,0.0,0.0,0.0,0.0,0.0,0.0,0.0,0.0,0.0,0.0,0.0,0.0,0.0,0.0,0.0,0.0,0.0,0.0,0.0,0.0,0.0,0.0,0.0,0.0,0.0,0.0,0.0,0.0,0.0,0.0,0.0,0.0,0.0,0.0,0.0,0.0,0.0,0.0,0.0,0.0,0.0,0.0,3.1601,3.1811,3.2359,3.236,3.2359,3.2411,3.1915,3.1603,3.1603,3.0538,0.0,0.0,0.0,0.0,0.0,0.0,0.0,0.0,0.0,0.0,0.0,0.0,0.0,0.0,0.0,0.0,0.0,0.0,0.0,0.0,0.0,0.0,0.0,0.0,0.0,0.0,0.0,0.0,0.0,0.0,0.0,0.0,0.0,0.0,0.0,0.0,0.0,0.0,0.0,0.0,0.0,0.0,0.0,0.0,0.0,0.0,0.0,0.0,0.0,0.0,0.0,0.0,0.0,0.0,0.0,0.0,0.0,0.0,0.0,0.0,0.0,0.0,0.0,0.0,0.0,0.0,0.0,0.0,0.0,0.0,0.0,0.0,0.0,0.0,0.0,0.0,0.0,0.0,0.0,0.0,0.0,0.0,0.0,0.0,0.0,0.0,0.0,0.0,0.0,0.0,0.0,0.0,0.0,0.0,0.0,0.0,0.0,0.0,0.0,0.0,0.0,0.0,3.0697,3.1167,3.1785,3.1424,3.1322,3.1811,3.1294,3.0959,3.0959,2.994,0.0,0.0,0.0,0.0,0.0,0.0,0.0,0.0,0.0,0.0,0.0,0.0,0.0,0.0,0.0,0.0,0.0,0.0,0.0,0.0,0.0,0.0,0.0,0.0,0.0,0.0,0.0,0.0,0.0,0.0,0.0,0.0,0.0,0.0,0.0,0.0,0.0,0.0,0.0,0.0,0.0,0.0,0.0,0.0,0.0,0.0,0.0,0.0,0.0,0.0,0.0,0.0,0.0,0.0,0.0,0.0,0.0,0.0,0.0,0.0,0.0,0.0,0.0,0.0,0.0,0.0,0.0,0.0,0.0,0.0,0.0,0.0,0.0,0.0,0.0,0.0,0.0,0.0,0.0,0.0,0.0,0.0,0.0,0.0,0.0,0.0,0.0,0.0,0.0,0.0,0.0,0.0,0.0,0.0,0.0,0.0,0.0,0.0,0.0,0.0,0.0,0.0,2.9843,3.057,3.1164,3.0933,3.0858,3.1216,3.07,3.0362,3.0362,2.9108,0.0,0.0,0.0,0.0,0.0,0.0,0.0,0.0,0.0,0.0,0.0,0.0,0.0,0.0,0.0,0.0,0.0,0.0,0.0,0.0,0.0,0.0,0.0,0.0,0.0,0.0,0.0,0.0,0.0,0.0,0.0,0.0,0.0,0.0,0.0,0.0,0.0,0.0,0.0,0.0,0.0,0.0,0.0,0.0,0.0,0.0,0.0,0.0,0.0,0.0,0.0,0.0,0.0,0.0,0.0,0.0,0.0,0.0,0.0,0.0,0.0,0.0,0.0,0.0,0.0,0.0,0.0,0.0,0.0,0.0,0.0,0.0,0.0,0.0,0.0,0.0,0.0,0.0,0.0,0.0,0.0,0.0,0.0,0.0,0.0,0.0,0.0,0.0,0.0,0.0,0.0,0.0,0.0,0.0,0.0,0.0,0.0,0.0,0.0,0.0,0.0,0.0,0.0,2.9917,3.0521,3.0676,3.0653,3.0599,3.0181,2.9891,2.9814,0.0,0.0,0.0,0.0,0.0,0.0,0.0,0.0,0.0,0.0,0.0,0.0,0.0,0.0,0.0,0.0,0.0,0.0,0.0,0.0,0.0,0.0,0.0,0.0,0.0,0.0,0.0,0.0,0.0,0.0,0.0,0.0,0.0,0.0,0.0,0.0,0.0,0.0,0.0,0.0,0.0,0.0,0.0,0.0,0.0,0.0,0.0,0.0,0.0,0.0,0.0,0.0,0.0,0.0,0.0,0.0,0.0,0.0,0.0,0.0,0.0,0.0,0.0,0.0,0.0,0.0,0.0,0.0,0.0,0.0,0.0,0.0,0.0,0.0,0.0,0.0,0.0,0.0,0.0,0.0,0.0,0.0,0.0,0.0,0.0,0.0,0.0,0.0,0.0,0.0,0.0,0.0,0.0,0.0,0.0,0.0,0.0,0.0,0.0,0.0,0.0,0.0,0.0,0.0,0.0,2.9921,3.0443,3.0521,3.0099,2.9969,2.9758,2.9308,0.0,0.0,0.0,0.0,0.0,0.0,0.0,0.0,0.0,0.0,0.0,0.0,0.0,0.0]}]]]